[[{"header":{"parameterUnit":"m.s-1","parameterCategory":1,"la1":30.6,"la2":28.766,"lo1":-90.7593,"lo2":-88.6598,"dy":0.0162,"dx":0.0183,"nx":116,"ny":114,"refTime":"2024-07-02T00:00:00:Z","depth":0,"parameterNumber":2,"parameterNumberName":"U-component_of_WINDS"},"data":[0.0,0.0,0.0,0.0,0.0,0.0,0.0,0.0,0.0,0.0,0.0,0.0,0.0,0.0,0.0,0.0,0.0,0.0,0.0,0.0,0.0,0.0,0.0,0.0,0.0,0.0,0.0,0.0,0.0,0.0,0.0,0.0,0.0,0.0,0.0,0.0,0.0,0.0,0.0,0.0,0.0,0.0,0.0,0.0,0.0,0.0,0.0,0.0,0.0,0.0,0.0,0.0,0.0,0.0,0.0,0.0,0.0,0.0,0.0,0.0,0.0,0.0,0.0,0.0,0.0,0.0,0.0,0.0,0.0,0.0,0.0,0.0,0.0,0.0,0.0,0.0,0.0,0.0,0.0,0.0,0.0,0.0,0.0,0.0,0.0,0.0,0.0,0.0,0.0,0.0,0.0,0.0,0.0,0.0,0.0,0.0,0.0,0.0,0.0,0.0,0.0,0.0,0.0,0.0,0.0,0.0,0.0,0.0,0.0,0.0,0.0,0.0,0.0,0.0,0.0,0.0,0.0,0.0,0.0,0.0,0.0,0.0,0.0,0.0,0.0,0.0,0.0,0.0,0.0,0.0,0.0,0.0,0.0,0.0,0.0,0.0,0.0,0.0,0.0,0.0,0.0,0.0,0.0,0.0,0.0,0.0,0.0,0.0,0.0,0.0,0.0,0.0,0.0,0.0,0.0,0.0,0.0,0.0,0.0,0.0,0.0,0.0,0.0,0.0,0.0,0.0,0.0,0.0,0.0,0.0,0.0,0.0,0.0,0.0,0.0,0.0,0.0,0.0,0.0,0.0,0.0,0.0,0.0,0.0,0.0,0.0,0.0,0.0,0.0,0.0,0.0,0.0,0.0,0.0,0.0,0.0,0.0,0.0,0.0,0.0,0.0,0.0,0.0,0.0,0.0,0.0,0.0,0.0,0.0,0.0,0.0,0.0,0.0,0.0,0.0,0.0,0.0,0.0,0.0,0.0,0.0,0.0,0.0,0.0,0.0,0.0,0.0,0.0,0.0,0.0,0.0,0.0,0.0,0.0,0.0,0.0,0.0,0.0,0.0,0.0,0.0,0.0,0.0,0.0,0.0,0.0,0.0,0.0,0.0,0.0,0.0,0.0,0.0,0.0,0.0,0.0,0.0,0.0,0.0,0.0,0.0,0.0,0.0,0.0,0.0,0.0,0.0,0.0,0.0,0.0,0.0,0.0,0.0,0.0,0.0,0.0,0.0,0.0,0.0,0.0,0.0,0.0,0.0,0.0,0.0,0.0,0.0,0.0,0.0,0.0,0.0,0.0,0.0,0.0,0.0,0.0,0.0,0.0,0.0,0.0,0.0,0.0,0.0,0.0,0.0,0.0,0.0,0.0,0.0,0.0,0.0,0.0,0.0,0.0,0.0,0.0,0.0,0.0,0.0,0.0,0.0,0.0,0.0,0.0,0.0,0.0,0.0,0.0,0.0,0.0,0.0,0.0,0.0,0.0,0.0,0.0,0.0,0.0,0.0,0.0,0.0,0.0,0.0,0.0,0.0,0.0,0.0,0.0,0.0,0.0,0.0,0.0,0.0,0.0,0.0,0.0,0.0,0.0,0.0,0.0,0.0,0.0,0.0,0.0,0.0,0.0,0.0,0.0,0.0,0.0,0.0,0.0,0.0,0.0,0.0,0.0,0.0,0.0,0.0,0.0,0.0,0.0,0.0,0.0,0.0,0.0,0.0,0.0,0.0,0.0,0.0,0.0,0.0,0.0,0.0,0.0,0.0,0.0,0.0,0.0,0.0,0.0,0.0,0.0,0.0,0.0,0.0,0.0,0.0,0.0,0.0,0.0,0.0,0.0,0.0,0.0,0.0,0.0,0.0,0.0,0.0,0.0,0.0,0.0,0.0,0.0,0.0,0.0,0.0,0.0,0.0,0.0,0.0,0.0,0.0,0.0,0.0,0.0,0.0,0.0,0.0,0.0,0.0,0.0,0.0,0.0,0.0,0.0,0.0,0.0,0.0,0.0,0.0,0.0,0.0,0.0,0.0,0.0,0.0,0.0,0.0,0.0,0.0,0.0,0.0,0.0,0.0,0.0,0.0,0.0,0.0,0.0,0.0,0.0,0.0,0.0,0.0,0.0,0.0,0.0,0.0,0.0,0.0,0.0,0.0,0.0,0.0,0.0,0.0,0.0,0.0,0.0,0.0,0.0,0.0,0.0,0.0,0.0,0.0,0.0,0.0,0.0,0.0,0.0,0.0,0.0,0.0,0.0,0.0,0.0,0.0,0.0,0.0,0.0,0.0,0.0,0.0,0.0,0.0,0.0,0.0,0.0,0.0,0.0,0.0,0.0,0.0,0.0,0.0,0.0,0.0,0.0,0.0,0.0,0.0,0.0,0.0,0.0,0.0,0.0,0.0,0.0,0.0,0.0,0.0,0.0,0.0,0.0,0.0,0.0,0.0,0.0,0.0,0.0,0.0,0.0,0.0,0.0,0.0,0.0,0.0,0.0,0.0,0.0,0.0,0.0,0.0,0.0,0.0,0.0,0.0,0.0,0.0,0.0,0.0,0.0,0.0,0.0,0.0,0.0,0.0,0.0,0.0,0.0,0.0,0.0,0.0,0.0,0.0,0.0,0.0,0.0,0.0,0.0,0.0,0.0,0.0,0.0,0.0,0.0,0.0,0.0,0.0,0.0,0.0,0.0,0.0,0.0,0.0,0.0,0.0,0.0,0.0,0.0,0.0,0.0,0.0,0.0,0.0,0.0,0.0,0.0,0.0,0.0,0.0,0.0,0.0,0.0,0.0,0.0,0.0,0.0,0.0,0.0,0.0,0.0,0.0,0.0,0.0,0.0,0.0,0.0,0.0,0.0,0.0,0.0,0.0,0.0,0.0,0.0,0.0,0.0,0.0,0.0,0.0,0.0,0.0,0.0,0.0,0.0,0.0,0.0,0.0,0.0,0.0,0.0,0.0,0.0,0.0,0.0,0.0,0.0,0.0,0.0,0.0,0.0,0.0,0.0,0.0,0.0,0.0,0.0,0.0,0.0,0.0,0.0,0.0,0.0,0.0,0.0,0.0,0.0,0.0,0.0,0.0,0.0,0.0,0.0,0.0,0.0,0.0,0.0,0.0,0.0,0.0,0.0,0.0,0.0,0.0,0.0,0.0,0.0,0.0,0.0,0.0,0.0,0.0,0.0,0.0,0.0,0.0,0.0,0.0,0.0,0.0,0.0,0.0,0.0,0.0,0.0,0.0,0.0,0.0,0.0,0.0,0.0,0.0,0.0,0.0,0.0,0.0,0.0,0.0,0.0,0.0,0.0,0.0,0.0,0.0,0.0,0.0,0.0,0.0,0.0,0.0,0.0,0.0,0.0,0.0,0.0,0.0,0.0,0.0,0.0,0.0,0.0,0.0,0.0,0.0,0.0,0.0,0.0,0.0,0.0,0.0,0.0,0.0,0.0,0.0,0.0,0.0,0.0,0.0,0.0,0.0,0.0,0.0,0.0,0.0,0.0,0.0,0.0,0.0,0.0,0.0,0.0,0.0,0.0,0.0,0.0,0.0,0.0,0.0,0.0,0.0,0.0,0.0,0.0,0.0,0.0,0.0,0.0,0.0,0.0,0.0,0.0,0.0,0.0,0.0,0.0,0.0,0.0,0.0,0.0,0.0,0.0,0.0,0.0,0.0,0.0,0.0,0.0,0.0,0.0,0.0,0.0,0.0,0.0,0.0,0.0,0.0,0.0,0.0,0.0,0.0,0.0,0.0,0.0,0.0,0.0,0.0,0.0,0.0,0.0,0.0,0.0,0.0,0.0,0.0,0.0,0.0,0.0,0.0,0.0,0.0,0.0,0.0,0.0,0.0,0.0,0.0,0.0,0.0,0.0,0.0,0.0,0.0,0.0,0.0,0.0,0.0,0.0,0.0,0.0,0.0,0.0,0.0,0.0,0.0,0.0,0.0,0.0,0.0,0.0,0.0,0.0,0.0,0.0,0.0,0.0,0.0,0.0,0.0,0.0,0.0,0.0,0.0,0.0,0.0,0.0,0.0,0.0,0.0,0.0,0.0,0.0,0.0,0.0,0.0,0.0,0.0,0.0,0.0,0.0,0.0,0.0,0.0,0.0,0.0,0.0,0.0,0.0,0.0,0.0,0.0,0.0,0.0,0.0,0.0,0.0,0.0,0.0,0.0,0.0,0.0,0.0,0.0,0.0,0.0,0.0,0.0,0.0,0.0,0.0,0.0,0.0,0.0,0.0,0.0,0.0,0.0,0.0,0.0,0.0,0.0,0.0,0.0,0.0,0.0,0.0,0.0,0.0,0.0,0.0,0.0,0.0,0.0,0.0,0.0,0.0,0.0,0.0,0.0,0.0,0.0,0.0,0.0,0.0,0.0,0.0,0.0,0.0,0.0,0.0,0.0,0.0,0.0,0.0,0.0,0.0,0.0,0.0,0.0,0.0,0.0,0.0,0.0,0.0,0.0,0.0,0.0,0.0,0.0,0.0,0.0,0.0,0.0,0.0,0.0,0.0,0.0,0.0,0.0,0.0,0.0,0.0,0.0,0.0,0.0,0.0,0.0,0.0,0.0,0.0,0.0,0.0,0.0,0.0,0.0,0.0,0.0,0.0,0.0,0.0,0.0,0.0,0.0,0.0,0.0,0.0,0.0,0.0,0.0,0.0,0.0,0.0,0.0,0.0,0.0,0.0,0.0,0.0,0.0,0.0,0.0,0.0,0.0,0.0,0.0,0.0,0.0,0.0,0.0,0.0,0.0,0.0,0.0,0.0,0.0,0.0,0.0,0.0,0.0,0.0,0.0,0.0,0.0,0.0,0.0,0.0,0.0,0.0,0.0,0.0,0.0,0.0,0.0,0.0,0.0,0.0,0.0,0.0,0.0,0.0,0.0,0.0,0.0,0.0,0.0,0.0,0.0,0.0,0.0,0.0,0.0,0.0,0.0,0.0,0.0,0.0,0.0,0.0,0.0,0.0,0.0,0.0,0.0,0.0,0.0,0.0,0.0,0.0,0.0,0.0,0.0,0.0,0.0,0.0,0.0,0.0,0.0,0.0,0.0,0.0,0.0,0.0,0.0,0.0,0.0,0.0,0.0,0.0,0.0,0.0,0.0,0.0,0.0,0.0,0.0,0.0,0.0,0.0,0.0,0.0,0.0,0.0,0.0,0.0,0.0,0.0,0.0,0.0,0.0,0.0,0.0,0.0,0.0,0.0,0.0,0.0,0.0,0.0,0.0,0.0,0.0,0.0,0.0,0.0,0.0,0.0,0.0,0.0,0.0,0.0,0.0,0.0,0.0,0.0,0.0,0.0,0.0,0.0,0.0,0.0,0.0,0.0,0.0,0.0,0.0,0.0,0.0,0.0,0.0,0.0,0.0,0.0,0.0,0.0,0.0,0.0,0.0,0.0,0.0,0.0,0.0,0.0,0.0,0.0,0.0,0.0,0.0,0.0,0.0,0.0,0.0,0.0,0.0,0.0,0.0,0.0,0.0,0.0,0.0,0.0,0.0,0.0,0.0,0.0,0.0,0.0,0.0,0.0,0.0,0.0,0.0,0.0,0.0,0.0,0.0,0.0,0.0,0.0,0.0,0.0,0.0,0.0,0.0,0.0,0.0,0.0,0.0,0.0,0.0,0.0,0.0,0.0,0.0,0.0,0.0,0.0,0.0,0.0,0.0,0.0,0.0,0.0,0.0,0.0,0.0,0.0,0.0,0.0,0.0,0.0,0.0,0.0,0.0,0.0,0.0,0.0,0.0,0.0,0.0,0.0,0.0,0.0,0.0,0.0,0.0,0.0,0.0,0.0,0.0,0.0,0.0,0.0,0.0,0.0,0.0,0.0,0.0,0.0,0.0,0.0,0.0,0.0,0.0,0.0,0.0,0.0,0.0,0.0,0.0,0.0,0.0,0.0,0.0,0.0,0.0,0.0,0.0,0.0,0.0,0.0,0.0,0.0,0.0,0.0,0.0,0.0,0.0,0.0,0.0,0.0,0.0,0.0,0.0,0.0,0.0,0.0,0.0,0.0,0.0,0.0,0.0,0.0,0.0,0.0,0.0,0.0,0.0,0.0,0.0,0.0,0.0,0.0,0.0,0.0,0.0,0.0,-3.1375,-3.0794,0.0,0.0,0.0,0.0,0.0,0.0,0.0,0.0,0.0,0.0,0.0,0.0,0.0,0.0,0.0,0.0,0.0,0.0,0.0,0.0,0.0,0.0,0.0,-1.5036,-1.5861,-1.6811,-1.6989,-1.715,-1.7415,0.0,0.0,0.0,0.0,0.0,-1.6287,-1.6306,-1.6353,-1.6373,-1.7185,-1.7597,-1.7623,-1.722,-1.6923,-1.6684,0.0,0.0,0.0,0.0,0.0,0.0,0.0,0.0,0.0,0.0,0.0,0.0,0.0,0.0,0.0,0.0,0.0,0.0,0.0,0.0,0.0,0.0,0.0,0.0,0.0,0.0,0.0,0.0,0.0,0.0,0.0,0.0,0.0,0.0,0.0,0.0,0.0,0.0,0.0,0.0,0.0,0.0,0.0,0.0,0.0,0.0,0.0,0.0,0.0,0.0,0.0,0.0,0.0,0.0,0.0,0.0,0.0,0.0,0.0,0.0,0.0,0.0,0.0,0.0,0.0,0.0,0.0,0.0,0.0,0.0,-3.2434,-3.2042,0.0,0.0,0.0,0.0,0.0,0.0,0.0,0.0,0.0,0.0,0.0,0.0,0.0,0.0,0.0,0.0,0.0,0.0,0.0,0.0,0.0,-1.3509,-1.4315,-1.5133,-1.6022,-1.7036,-1.726,-1.7451,-1.7721,-1.7732,0.0,0.0,0.0,-1.7181,-1.7106,-1.7302,-1.7339,-1.7202,-1.788,-1.8229,-1.83,-1.83,-1.8019,-1.7528,-1.7575,0.0,0.0,0.0,0.0,0.0,0.0,0.0,0.0,0.0,0.0,0.0,0.0,0.0,0.0,0.0,0.0,0.0,0.0,0.0,0.0,0.0,0.0,0.0,0.0,0.0,0.0,0.0,0.0,0.0,0.0,0.0,0.0,0.0,0.0,0.0,0.0,0.0,0.0,0.0,0.0,0.0,0.0,0.0,0.0,0.0,0.0,0.0,0.0,0.0,0.0,0.0,0.0,0.0,0.0,0.0,0.0,0.0,0.0,0.0,0.0,0.0,0.0,0.0,-3.4237,-3.4315,-3.4315,-3.4315,-3.4316,-3.4316,-3.4316,-3.3964,-3.3359,-3.2676,0.0,0.0,0.0,0.0,0.0,0.0,0.0,0.0,0.0,0.0,0.0,0.0,0.0,0.0,0.0,0.0,0.0,0.0,0.0,-1.3509,-1.4315,-1.5165,-1.608,-1.7101,-1.7356,-1.7595,-1.785,-1.7872,0.0,0.0,-1.8562,-1.8578,-1.7954,-1.8633,-1.8672,-1.8035,-1.8148,-1.8229,-1.83,-1.83,-1.8353,-1.8438,-1.8442,-1.8056,-1.7432,0.0,0.0,0.0,0.0,0.0,0.0,0.0,0.0,0.0,0.0,0.0,0.0,0.0,0.0,0.0,0.0,0.0,0.0,0.0,0.0,0.0,0.0,0.0,0.0,0.0,0.0,0.0,0.0,0.0,0.0,0.0,0.0,0.0,0.0,0.0,0.0,0.0,0.0,0.0,0.0,0.0,-2.8782,-2.9072,0.0,0.0,0.0,0.0,0.0,0.0,0.0,0.0,0.0,0.0,0.0,0.0,0.0,-3.4526,-3.4522,-3.6025,-3.6789,-3.6793,-3.7557,-3.791,-3.791,-3.791,-3.791,-3.791,-3.791,0.0,-3.3398,-3.3281,0.0,0.0,0.0,0.0,0.0,0.0,0.0,0.0,0.0,0.0,0.0,0.0,0.0,0.0,0.0,0.0,0.0,0.0,0.0,0.0,0.0,-1.5217,-1.6181,-1.7223,-1.7526,-1.7783,-1.8048,0.0,-1.8648,-1.8671,-1.9378,-1.9629,-1.935,-1.9287,-1.8897,-1.82,-1.82,-1.8236,-1.8311,-1.8307,-1.8388,-1.8559,-1.8574,-1.8474,-1.828,-1.8384,0.0,0.0,0.0,0.0,0.0,0.0,0.0,0.0,0.0,0.0,0.0,0.0,0.0,0.0,0.0,0.0,0.0,0.0,0.0,0.0,0.0,0.0,0.0,0.0,0.0,0.0,0.0,0.0,0.0,0.0,0.0,0.0,0.0,0.0,0.0,0.0,0.0,0.0,0.0,-2.8193,-2.9459,-3.0029,-3.0425,-3.0875,0.0,0.0,0.0,0.0,0.0,0.0,0.0,0.0,0.0,-3.4861,-3.6142,-3.6836,-3.6846,-3.7588,-3.7964,-3.7973,-3.8391,-3.8591,-3.8593,-3.8594,-3.8594,-3.8594,-3.8594,-3.7734,-3.6289,-3.5781,-3.5586,-3.5488,0.0,0.0,0.0,0.0,-3.3711,-3.4062,0.0,0.0,0.0,0.0,0.0,0.0,0.0,0.0,0.0,0.0,0.0,0.0,-1.4569,-1.5483,-1.6411,-1.7299,-1.7635,0.0,0.0,0.0,-1.9013,-1.9178,-1.9821,-2.0128,-1.9964,-1.9293,-1.8686,-1.82,-1.82,-1.8232,-1.8305,-1.8294,-1.8348,-1.8455,-1.8516,-1.8658,-1.8824,-1.8923,-1.8673,0.0,0.0,0.0,0.0,0.0,0.0,0.0,0.0,0.0,0.0,0.0,0.0,0.0,0.0,0.0,0.0,0.0,0.0,0.0,0.0,0.0,0.0,0.0,0.0,0.0,0.0,0.0,0.0,0.0,0.0,0.0,0.0,0.0,0.0,0.0,0.0,0.0,0.0,-2.9246,-3.0238,-3.0941,-3.124,-3.1666,0.0,0.0,0.0,0.0,0.0,0.0,-3.4718,-3.5956,-3.6679,-3.6672,-3.8063,-3.8826,-3.8807,-3.9021,-3.9145,-3.9138,-3.9202,-3.9231,-3.9235,-3.9258,-3.9277,-3.9277,-3.9277,-3.9277,-3.918,-3.8086,-3.7637,-3.75,-3.6191,-3.5703,-3.5625,-3.4961,-3.5137,-3.5605,0.0,0.0,0.0,0.0,0.0,0.0,0.0,0.0,0.0,0.0,0.0,-1.4455,-1.5258,0.0,-1.6894,-1.7268,-1.7612,-1.7889,0.0,0.0,-1.843,-1.9081,-1.9816,-1.9831,-1.9078,-1.8482,-1.8175,-1.82,-1.82,-1.8232,-1.8305,-1.8305,-1.8301,-1.831,-1.8385,-1.8582,-1.8905,-1.9027,-1.9144,-1.9246,0.0,0.0,0.0,0.0,0.0,0.0,0.0,0.0,0.0,0.0,0.0,0.0,0.0,0.0,0.0,0.0,0.0,0.0,0.0,0.0,0.0,0.0,0.0,0.0,0.0,0.0,0.0,0.0,0.0,0.0,0.0,0.0,0.0,0.0,0.0,0.0,0.0,0.0,0.0,-3.1924,-3.2718,0.0,0.0,0.0,0.0,-3.5749,-3.5867,-3.6594,-3.8241,-3.8418,-3.8475,-3.8464,-3.9297,-3.9708,-3.9643,-4.0464,-4.0864,-4.088,-4.0935,-4.0961,-4.0971,-4.1034,-4.1074,-4.1074,-4.1074,-4.1074,-4.0937,-3.9238,-3.8535,-3.8535,-3.8437,-3.8398,-3.8398,-3.8359,-3.8379,-3.8398,0.0,0.0,0.0,-1.2343,-1.2256,-1.2205,-1.221,-1.2576,-1.2924,-1.317,-1.416,-1.4995,0.0,-1.6196,-1.6863,-1.7199,-1.7491,-1.7749,-1.7955,0.0,-1.8796,-1.9028,-2.0212,-2.0756,-2.0551,-2.0377,-2.0072,-1.9631,-1.9148,-1.894,-1.8988,-1.851,-1.8307,-1.8375,-1.8385,-1.8544,-1.8779,-1.8869,-1.9025,-1.9243,-1.9318,-1.9221,0.0,0.0,0.0,0.0,0.0,0.0,0.0,0.0,0.0,0.0,0.0,0.0,0.0,0.0,0.0,0.0,0.0,0.0,0.0,0.0,0.0,0.0,0.0,0.0,0.0,0.0,0.0,0.0,0.0,0.0,0.0,0.0,0.0,0.0,0.0,0.0,0.0,-3.2827,-3.3195,0.0,-3.4955,-3.5073,-3.5801,-3.7546,-3.7666,-3.7944,-3.8573,-3.9121,-3.9411,-3.9361,-4.0149,-4.0557,-4.0539,-4.0848,-4.0991,-4.099,-4.1061,-4.1093,-4.1108,-4.1171,-4.1191,-4.1191,-4.1152,-4.1132,-4.1093,-4.0467,-4.0233,-4.0215,-3.9668,-3.9434,-3.9375,-3.8809,-3.8594,-3.8594,-1.2603,-1.2564,0.0,-1.2449,-1.2323,-1.2313,-1.2541,-1.293,-1.3359,-1.3821,-1.464,-1.5337,-1.5669,-1.6286,-1.6773,-1.7064,-1.7384,-1.763,-1.7828,0.0,-1.8738,-1.8981,-2.0154,-2.0989,-2.1391,-2.1186,-2.0838,-2.0394,-1.9912,-1.9717,-1.9767,-1.9263,-1.9073,-1.9133,-1.9112,-1.9226,-1.941,-1.9498,-1.957,-1.961,-1.969,-1.9784,-1.9904,0.0,0.0,0.0,0.0,0.0,0.0,0.0,0.0,0.0,0.0,0.0,0.0,0.0,0.0,0.0,0.0,0.0,0.0,0.0,0.0,0.0,0.0,0.0,0.0,0.0,0.0,0.0,0.0,0.0,0.0,0.0,0.0,0.0,0.0,-3.2394,-3.3556,-3.4195,-3.4789,-3.5576,-3.6753,-3.6872,-3.7481,-3.8934,-3.9035,-3.9176,-3.9452,-4.0,-4.0289,-4.0242,-4.076,-4.1014,-4.0997,-4.1003,-4.1007,-4.1003,-4.1074,-4.1106,-4.1105,-4.1171,-4.1191,-4.1152,-4.1111,-4.1109,-4.1106,-4.1103,-4.1125,-4.1109,-4.0526,-4.0312,-4.0273,-3.9687,-3.9473,-3.9473,-1.261,-1.2597,-1.2574,-1.2514,-1.2383,-1.2526,-1.3197,-1.3266,-1.3698,-1.5024,-1.5209,-1.5496,-1.6223,-1.649,-1.6672,-1.6888,-1.7272,-1.7561,-1.7687,-1.7828,-1.824,-1.8998,-1.9684,-2.0467,-2.1412,-2.0674,-2.0326,-2.0481,-2.0446,-2.0464,-2.0535,-2.05,-2.0547,-2.0604,-2.0535,-2.0616,-2.0807,-2.0933,-2.0795,-2.0485,-2.0526,-2.0615,-2.074,0.0,0.0,0.0,0.0,0.0,0.0,0.0,0.0,0.0,0.0,0.0,0.0,0.0,0.0,0.0,0.0,0.0,0.0,0.0,0.0,0.0,0.0,0.0,0.0,0.0,0.0,0.0,0.0,0.0,0.0,0.0,0.0,0.0,-3.1994,-3.4308,-3.5951,-3.6079,-3.7505,-3.8541,-3.8629,-3.863,-3.9006,-3.9876,-3.9935,-4.031,-4.1152,-4.1132,-4.1091,-4.1108,-4.1109,-4.1079,-4.0994,-4.1,-4.099,-4.0993,-4.1074,-4.1104,-4.1099,-4.117,-4.1152,-4.1092,-4.1108,-4.1101,-4.1108,-4.1108,-4.1101,-4.1095,-4.1105,-4.1132,-4.1191,-4.1191,-4.1191,-4.1191,-1.269,-1.2639,-1.2597,-1.2574,-1.2429,-1.2536,-1.3199,-1.3663,-1.4236,-1.5085,-1.5624,-1.602,-1.6256,-1.6434,-1.6607,-1.6815,0.0,-1.7372,-1.7532,-1.7676,-1.8346,-1.9672,-2.045,-2.1251,-2.2112,-2.1908,-2.1843,-2.1922,-2.1443,-2.1256,-2.1361,-2.0807,-2.0639,-2.074,-2.0673,-2.0769,-2.0951,-2.0976,-2.1412,-2.2015,-2.1507,-2.141,-2.1567,0.0,0.0,0.0,0.0,0.0,0.0,0.0,0.0,0.0,0.0,0.0,0.0,0.0,0.0,0.0,0.0,0.0,0.0,0.0,0.0,0.0,0.0,0.0,0.0,0.0,0.0,0.0,0.0,0.0,0.0,0.0,-3.2817,-3.4556,-3.4791,-3.5494,-3.6448,-3.7728,-3.8295,-3.8803,-3.9409,-3.9468,-3.9826,-4.0696,-4.0775,-4.0895,-4.1172,-4.1172,-4.1152,-4.1091,-4.11,-4.1087,-4.1074,-4.1013,-4.1011,-4.107,-4.1087,-4.11,-4.1109,-4.1111,-4.1111,-4.1108,-4.1094,-4.1076,-4.1035,-4.1022,-4.1037,-4.1039,-4.1072,-4.1104,-4.1126,-4.1129,-4.1131,-4.1132,-1.2757,-1.2678,-1.26,-1.2597,-1.2675,-1.2946,-1.3646,-1.4251,-1.4855,-1.5531,-1.5962,-1.6207,-1.6246,-1.6382,-1.653,0.0,0.0,-1.7236,-1.7439,-1.7927,-1.874,-1.9951,0.0,-2.1573,-2.2374,-2.2391,-2.2432,-2.2501,-2.2154,-2.2022,-2.2107,-2.1739,-2.1615,-2.1668,-2.1657,-2.1744,-2.1888,-2.1961,-2.2429,-2.3079,-2.2744,-2.2511,-2.2357,-2.2357,-2.2187,-2.1967,-2.1964,-2.2016,-2.204,-2.1664,0.0,0.0,0.0,0.0,0.0,0.0,0.0,0.0,0.0,0.0,0.0,0.0,0.0,0.0,0.0,0.0,0.0,0.0,0.0,0.0,0.0,0.0,0.0,0.0,-3.4606,-3.6304,-3.7371,-3.7578,-3.7977,-3.898,-3.943,-3.9821,-4.0307,-4.0346,-4.0549,-4.1068,-4.1107,-4.113,-4.1191,-4.1191,-4.1172,-4.1132,-4.1108,-4.1103,-4.1098,-4.1065,-4.1064,-4.1094,-4.11,-4.1105,-4.109,-4.109,-4.1106,-4.1095,-4.1068,-4.1014,-4.0958,-4.0956,-4.0961,-4.0961,0.0,0.0,0.0,0.0,-4.0344,-4.0056,-1.2827,-1.2761,-1.2722,-1.2722,-1.3126,-1.3673,-1.4405,-1.4912,-1.5452,-1.6116,0.0,-1.6207,-1.6222,-1.6344,0.0,0.0,0.0,-1.7199,0.0,-1.8425,0.0,-1.9968,-2.0856,-2.1657,-2.2377,-2.2377,-2.2419,-2.2474,-2.2538,-2.2623,-2.2685,-2.2829,-2.2893,-2.2889,-2.2982,-2.3045,-2.3114,-2.3336,-2.352,-2.3724,-2.3927,-2.3664,-2.3143,-2.3143,-2.2737,-2.2179,-2.2183,-2.2287,-2.2391,-2.2438,0.0,0.0,0.0,0.0,0.0,0.0,0.0,0.0,0.0,0.0,0.0,0.0,0.0,0.0,0.0,0.0,0.0,0.0,0.0,0.0,0.0,0.0,0.0,0.0,-3.6196,-3.7214,-3.9478,-3.9887,-3.9948,-3.9954,-4.062,-4.1109,-4.1109,-4.1109,-4.1097,-4.1107,-4.1108,-4.113,-4.1191,-4.1191,0.0,0.0,0.0,-4.1091,-4.1108,-4.1104,-4.1101,-4.1101,-4.1106,-4.1108,-4.1107,-4.1105,-4.1095,-4.1087,-4.1025,-4.0953,-4.0896,-4.0893,-4.0883,-4.0893,-4.0854,-4.0842,-4.076,-3.9942,-3.92,-3.8588,-1.2924,-1.3173,-1.3493,-1.3493,-1.3916,-1.4472,-1.5112,-1.5254,-1.5513,-1.6181,-1.6274,-1.6301,-1.6357,0.0,0.0,0.0,0.0,-1.7308,0.0,0.0,-1.9849,-1.9985,-2.1333,-2.2158,-2.2324,-2.2324,-2.2324,-2.2338,-2.2422,-2.2501,-2.2619,-2.2699,-2.2803,-2.2889,-2.2982,-2.307,-2.3205,-2.3447,-2.3642,-2.3795,-2.3996,-2.4032,-2.398,-2.398,-2.3943,-2.3913,-2.3974,-2.4083,-2.4109,-2.3535,-2.3391,-2.3366,-2.2787,0.0,0.0,0.0,0.0,0.0,0.0,0.0,0.0,0.0,0.0,0.0,0.0,0.0,0.0,0.0,0.0,0.0,0.0,0.0,0.0,-3.586,-3.771,-3.9244,-3.9738,-4.0403,-4.0854,-4.0854,-4.0992,-4.1109,-4.1109,-4.1094,-4.11,-4.1107,-4.111,-4.1113,-4.1112,-4.1112,-4.1112,-4.1112,-4.1112,-4.1132,-4.1172,-4.1171,-4.1171,-4.1171,-4.1131,0.0,-4.1107,-4.1093,-4.107,-4.1022,-4.096,-4.0915,-4.0898,-4.0833,-4.0823,-4.0765,-4.0181,-3.9944,-3.9857,-3.8982,-3.8604,-3.8512,-1.3925,-1.4089,-1.4283,-1.4207,-1.4674,-1.514,-1.5412,-1.5679,-1.5967,-1.6309,-1.6382,-1.6421,-1.649,0.0,0.0,0.0,0.0,0.0,0.0,-1.9719,-2.0602,-2.0602,-2.1688,-2.2296,-2.2296,-2.2296,-2.2296,-2.2296,-2.2366,-2.2446,-2.2555,-2.2646,-2.2738,0.0,0.0,0.0,0.0,0.0,0.0,0.0,0.0,0.0,-2.4201,-2.4201,-2.4266,-2.4358,-2.4454,-2.459,-2.4643,-2.4339,-2.4327,-2.4347,-2.4016,-2.3894,-2.4074,0.0,0.0,0.0,0.0,0.0,0.0,0.0,0.0,0.0,0.0,0.0,0.0,0.0,0.0,-3.2741,-3.3216,0.0,-3.6197,-3.7097,-3.8694,-3.9951,-4.0385,-4.0836,-4.1109,-4.1109,-4.1093,-4.1094,-4.1094,-4.11,-4.1106,-4.1092,-4.1093,-4.1094,-4.1107,-4.1106,-4.1106,-4.1106,-4.1108,-4.1111,-4.1152,-4.1172,-4.1172,-4.1152,-4.1129,-4.1102,-4.1093,-4.1079,-4.1,-4.0944,-4.0872,-4.0844,-4.0859,-4.0812,-4.08,-4.067,-3.9436,-3.8966,-3.8906,-3.8065,-3.7523,-3.7193,-1.5123,-1.5247,-1.5238,-1.4977,-1.5432,-1.5826,-1.5726,-1.6145,-1.6463,-1.6463,-1.6528,-1.662,-1.6686,-1.6815,-1.7041,0.0,0.0,0.0,0.0,-2.039,-2.119,-2.119,-2.1904,-2.2296,-2.2296,-2.2296,-2.2296,-2.2296,-2.2349,-2.2405,-2.2487,-2.2592,0.0,0.0,0.0,0.0,0.0,0.0,0.0,0.0,0.0,0.0,-2.4229,-2.4257,-2.4284,-2.4357,-2.4513,-2.4645,-2.4768,-2.4893,-2.5006,-2.5101,-2.5168,-2.5191,-2.5363,-2.616,-2.5931,0.0,0.0,0.0,0.0,0.0,0.0,0.0,0.0,-3.107,-3.1774,-3.3246,-3.3699,-3.4069,-3.4934,-3.5821,-3.6915,-3.8502,-3.9476,-4.0307,-4.0992,-4.1109,-4.1109,-4.1091,-4.1095,-4.11,-4.1103,-4.1108,-4.1092,-4.1093,-4.1092,-4.1108,-4.1093,-4.1091,-4.107,-4.107,-4.1098,-4.1104,-4.1109,-4.1151,-4.1151,-4.1109,-4.1099,-4.1083,-4.1079,-4.1007,-4.0957,-4.0911,-4.0833,-4.0798,-4.0808,-4.0803,-4.0797,-4.0642,-3.9069,-3.8374,-3.8171,-3.7189,-3.6428,-3.5883,-1.5973,-1.6451,-1.6617,-1.5883,-1.6308,-1.6687,-1.6512,-1.6586,-1.6657,-1.6657,-1.6786,-1.6914,-1.7039,-1.7158,-1.758,0.0,0.0,0.0,0.0,-2.0703,-2.119,-2.119,-2.1904,-2.2296,-2.2296,-2.2296,-2.2296,-2.2296,-2.231,-2.2352,-2.2405,0.0,0.0,0.0,0.0,0.0,0.0,0.0,0.0,0.0,0.0,0.0,-2.4375,-2.4435,-2.4469,-2.4503,-2.4703,-2.4817,-2.4891,-2.5037,-2.5095,-2.5107,-2.5174,-2.5191,-2.5363,-2.616,-2.6345,-2.6479,-2.7434,-2.8179,-2.8926,-2.98,-3.0654,-3.1339,0.0,-3.2902,-3.4136,-3.4409,-3.5074,-3.5888,-3.674,-3.7625,-3.8521,-3.9496,-4.0393,-4.0992,-4.109,-4.1109,-4.1091,-4.1097,-4.1098,-4.1104,-4.1093,-4.1093,-4.1091,-4.1102,-4.1091,-4.1095,-4.11,-4.1033,-4.1008,-4.1008,-4.1076,-4.1094,-4.1093,-4.1114,-4.1114,-4.1093,-4.1092,-4.1061,-4.102,-4.0937,-4.0906,-4.0907,-4.0829,-4.0808,-4.0797,-4.0797,-4.0797,-4.07,-3.9733,-3.8882,-3.8023,-3.6448,-3.5847,-3.5813,-1.6856,-1.7084,-1.7162,-1.6779,-1.6847,-1.6921,-1.6785,-1.6837,-1.6873,-1.6879,-1.7027,-1.7175,-1.726,-1.7809,-1.8525,-1.9378,-1.9913,-2.0339,-2.0686,-2.1414,-2.1837,-2.1837,-2.2127,-2.2296,-2.2296,-2.2296,-2.2296,-2.2296,-2.2296,-2.2338,-2.2391,0.0,0.0,0.0,0.0,0.0,0.0,0.0,0.0,0.0,0.0,0.0,-2.4532,-2.4642,-2.47,-2.4746,-2.4827,-2.491,0.0,0.0,-2.5095,-2.5113,-2.518,-2.5516,-2.6064,-2.6918,-2.7166,-2.7357,-2.8217,-2.9091,-2.9972,-3.0898,-3.1447,-3.2043,-3.3117,-3.3984,-3.4717,-3.525,-3.5657,-3.6175,-3.7038,-3.79,-3.8794,-3.9653,-4.053,-4.1109,-4.1109,-4.1109,-4.1091,-4.1098,-4.1102,-4.1109,-4.1093,-4.1108,-4.1095,-4.1097,-4.1064,-4.1039,-4.1042,-4.1016,-4.0993,-4.0993,-4.1029,-4.1034,-4.1042,-4.1048,-4.1048,-4.1042,-4.1006,-4.0967,-4.0933,-4.0874,-4.0832,-4.0831,-4.0802,-4.0803,-4.0797,-4.0797,-4.0797,-4.0719,-3.9849,-3.9288,-3.8746,-3.7072,-3.6178,-3.5803,-1.7531,-1.7467,-1.7448,-1.7389,-1.7253,-1.7108,-1.6994,-1.7032,-1.7079,-1.7105,-1.7284,-1.7534,-1.7833,-1.8471,-1.9251,-2.0268,-2.0873,-2.1292,-2.1495,-2.2006,-2.2296,-2.2296,-2.2296,0.0,-2.2296,-2.2296,-2.2296,-2.2296,-2.2296,-2.2338,0.0,0.0,0.0,0.0,0.0,0.0,0.0,0.0,0.0,0.0,0.0,0.0,-2.5335,-2.5499,-2.5449,-2.5271,-2.5036,-2.4999,0.0,0.0,-2.5125,-2.515,-2.518,-2.5606,-2.6236,-2.7122,-2.7707,-2.8273,-2.9159,-2.9861,-3.0581,-3.1502,-3.1961,-3.2593,-3.4162,-3.4745,-3.5133,-3.5768,-3.59,-3.6162,-3.7038,-3.79,-3.8794,-3.9653,-4.053,-4.1109,-4.1109,-4.1109,-4.1091,-4.1098,-4.1105,-4.1092,-4.1092,-4.1098,-4.1094,-4.1061,-4.1019,-4.0967,-4.098,-4.0948,-4.0939,-4.0939,-4.096,-4.0972,-4.0964,-4.0974,-4.0974,-4.0964,-4.0914,-4.0896,-4.0864,-4.0815,-4.0796,-4.0797,-4.0797,-4.0797,-4.0797,-4.0797,-4.0797,-4.0739,-4.012,-3.9713,-3.9346,-3.8144,-3.7026,-3.609,-1.7789,-1.767,-1.7589,-1.7589,-1.7526,-1.7425,-1.7224,-1.7253,-1.7305,-1.7372,-1.7561,-1.8042,-1.8949,-1.9017,-1.9605,-2.1126,-2.1213,-2.1512,-2.2212,-2.2279,-2.2296,-2.2296,-2.2296,-2.2296,-2.2296,-2.2296,-2.2296,-2.2296,-2.2296,-2.2338,0.0,0.0,0.0,0.0,0.0,0.0,0.0,0.0,0.0,0.0,0.0,0.0,-2.7137,-2.7347,-2.6989,-2.6244,-2.5393,0.0,0.0,0.0,-2.521,-2.521,-2.5191,-2.5229,0.0,-2.6285,-2.7737,-2.926,-3.0125,-3.0414,-3.0693,-3.1569,-3.248,-3.3413,-3.4384,-3.5259,-3.5866,-3.5888,-3.59,-3.6162,-3.7038,-3.79,-3.8794,-3.9653,-4.053,-4.1109,-4.1109,-4.1109,-4.1091,-4.1098,-4.1108,-4.1093,-4.1108,-4.1091,-4.1076,-4.1016,-4.0932,-4.0893,-4.0907,-4.0844,-4.0812,-4.0812,-4.0877,-4.0903,-4.0893,-4.0893,-4.0893,-4.0893,-4.0903,-4.0876,-4.08,-4.079,-4.0797,-4.0797,-4.0797,-4.0797,-4.0797,-4.0797,-4.0797,-4.0797,-4.0777,-4.0236,-3.9481,-3.9443,-3.8374,-3.6857,-1.8135,-1.8093,-1.805,-1.7947,-1.7909,-1.786,-1.7749,-1.7606,-1.7554,-1.7715,-1.7911,0.0,0.0,0.0,0.0,0.0,-2.2085,-2.216,-2.2415,-2.2432,-2.2432,-2.2432,-2.2432,-2.2432,-2.2432,-2.2432,-2.2432,-2.2432,-2.2432,-2.246,0.0,0.0,0.0,0.0,0.0,0.0,0.0,0.0,0.0,0.0,0.0,0.0,-2.7418,-2.7572,-2.7485,-2.7153,0.0,0.0,0.0,0.0,-2.5191,-2.5191,-2.5191,-2.5604,-2.636,-2.7852,-2.9129,-3.0108,-3.0438,-3.0558,-3.0907,-3.2369,-3.3009,-3.3644,-3.5126,-3.5693,-3.5903,-3.5903,-3.5906,-3.6162,-3.7038,-3.7447,-3.8105,-3.9553,-4.0055,-4.0439,-4.101,-4.1109,-4.109,-4.1093,-4.1103,-4.1092,-4.1091,-4.1064,-4.1017,-4.0993,-4.0948,-4.0874,-4.0839,-4.0818,-4.0796,-4.0792,-4.0823,-4.0821,-4.0833,-4.0839,-4.0839,-4.0833,-4.0821,-4.0825,-4.0809,-4.0797,-4.0797,-4.0797,-4.0797,-4.0797,-4.0797,-4.0797,-4.0797,-4.0797,-4.0797,-4.0623,-4.0294,-3.9713,-3.9137,-3.8459,-1.8416,-1.8388,-1.833,-1.827,-1.8211,0.0,0.0,0.0,0.0,0.0,0.0,0.0,0.0,0.0,0.0,0.0,0.0,-2.2623,-2.2623,-2.2619,-2.2646,-2.2646,-2.2646,-2.2646,-2.2646,-2.2619,-2.2743,-2.2997,-2.3004,-2.3179,0.0,0.0,0.0,0.0,0.0,0.0,0.0,0.0,0.0,0.0,0.0,0.0,-2.8446,-2.8575,-2.8434,0.0,0.0,0.0,0.0,-2.5401,-2.5382,-2.5573,-2.5298,-2.5803,-2.6886,-2.8704,-2.9637,-3.0147,-3.0532,-3.0642,-3.0997,-3.2448,-3.3054,-3.3676,-3.5112,-3.5672,-3.5894,-3.5892,-3.5894,-3.607,-3.6629,-3.6993,-3.7671,-3.9104,-3.9605,-4.0104,-4.0971,-4.1109,-4.1109,-4.1109,-4.1101,-4.1091,-4.1094,-4.1052,-4.1025,-4.1,-4.0932,-4.0888,-4.0842,-4.0801,-4.0798,-4.0802,-4.0802,-4.0794,-4.0798,-4.0798,-4.0798,-4.0798,-4.0794,-4.0796,-4.0797,-4.0797,-4.0797,-4.0797,-4.0797,-4.0797,-4.0797,-4.0797,-4.0797,-4.0797,-4.0797,-4.0797,-4.0739,-4.0178,-3.9764,-3.9265,-1.8625,-1.8551,-1.8514,0.0,0.0,0.0,0.0,0.0,0.0,0.0,0.0,0.0,0.0,0.0,0.0,0.0,0.0,0.0,-2.2829,0.0,0.0,-2.2932,-2.2932,-2.2927,-2.2927,-2.285,-2.3189,-2.3931,-2.3894,-2.4371,-2.5326,0.0,0.0,0.0,0.0,0.0,0.0,0.0,0.0,0.0,0.0,0.0,-3.0123,-3.0253,0.0,0.0,0.0,0.0,0.0,-2.5835,-2.5765,-2.6281,-2.5556,-2.5974,-2.708,-2.8799,-2.9334,-2.9571,-3.0451,-3.0717,-3.0921,-3.1868,-3.2675,-3.3479,-3.435,-3.5181,-3.5771,-3.5836,-3.5844,-3.5848,-3.5894,-3.6587,-3.744,-3.8348,-3.9197,-4.0045,-4.0973,-4.109,-4.1109,-4.1109,-4.1101,-4.1108,-4.1092,-4.1108,-4.1094,-4.1078,-4.0964,-4.0898,-4.0902,-4.0829,-4.0808,-4.0797,-4.0797,-4.0797,-4.0797,-4.0797,-4.0797,-4.0797,-4.0797,-4.0797,-4.0797,-4.0797,-4.0797,-4.0797,-4.0797,-4.0797,-4.0797,-4.0797,-4.0797,-4.0797,-4.0797,-4.0797,-4.0797,-4.0797,-4.0274,-3.9338,0.0,0.0,0.0,0.0,0.0,0.0,0.0,0.0,0.0,0.0,0.0,0.0,0.0,0.0,0.0,0.0,0.0,0.0,-2.318,0.0,0.0,0.0,0.0,0.0,-2.3271,-2.3259,0.0,0.0,0.0,-2.4199,-2.5661,0.0,0.0,0.0,0.0,0.0,0.0,0.0,0.0,0.0,0.0,0.0,-3.026,0.0,0.0,0.0,0.0,0.0,0.0,-2.6651,-2.6266,-2.6554,-2.7052,-2.7851,-2.8702,-2.9214,-2.9829,-3.0412,-3.0709,-3.0778,-3.0984,-3.187,-3.2248,-3.2623,-3.3505,-3.3871,-3.4216,-3.4878,-3.5014,-3.5209,-3.5853,-3.6161,-3.6789,-3.825,-3.8684,-3.9354,-4.0888,-4.11,-4.1097,-4.1097,-4.1099,-4.1104,-4.1091,-4.1092,-4.1369,-4.1998,-4.1383,-4.0954,-4.0907,-4.0832,-4.0792,-4.0797,-4.0797,-4.0797,-4.0797,-4.0797,-4.0797,-4.0797,-4.0797,-4.0797,-4.0797,-4.0797,-4.0797,-4.0797,-4.0797,-4.0797,-4.0797,-4.0797,-4.0797,-4.0797,-4.0797,-4.0797,-4.0797,-4.0797,-4.0661,-4.0319,0.0,0.0,0.0,0.0,0.0,0.0,0.0,0.0,0.0,0.0,0.0,0.0,0.0,0.0,0.0,0.0,0.0,0.0,0.0,0.0,0.0,0.0,0.0,0.0,0.0,0.0,0.0,0.0,0.0,0.0,0.0,0.0,0.0,0.0,0.0,0.0,0.0,0.0,0.0,0.0,0.0,0.0,0.0,0.0,0.0,0.0,0.0,0.0,0.0,-2.8288,-2.7654,-2.7295,-2.8622,-2.9168,-2.94,-2.9832,-3.0338,-3.0756,-3.0789,-3.0801,-3.0927,-3.1417,-3.1818,-3.2239,-3.2728,-3.3137,-3.3539,-3.4025,-3.4437,-3.4848,-3.5348,-3.5737,-3.6542,-3.8228,-3.8504,-3.9113,-4.0855,-4.1107,-4.1104,-4.1099,-4.1101,-4.1105,-4.111,-4.1093,-4.1452,-4.2323,-4.1873,-4.1703,-4.201,-4.1615,-4.1371,-4.1363,-4.0996,-4.0797,-4.0797,-4.0797,-4.0797,-4.0797,-4.0797,-4.0797,-4.0797,-4.0797,-4.0797,-4.0797,-4.0797,-4.0797,-4.0797,-4.0797,-4.0797,-4.0797,-4.0797,-4.0797,-4.0797,-4.0797,-4.0797,-4.0739,0.0,0.0,0.0,0.0,0.0,0.0,0.0,0.0,0.0,-1.9743,-2.0656,-2.1524,-2.2271,-2.3149,0.0,0.0,0.0,0.0,0.0,0.0,0.0,0.0,0.0,0.0,0.0,-2.3927,0.0,0.0,0.0,0.0,0.0,0.0,0.0,0.0,0.0,0.0,0.0,0.0,0.0,0.0,0.0,0.0,0.0,0.0,0.0,0.0,0.0,0.0,0.0,-3.0024,-2.9268,-2.8269,-2.9974,-3.0044,-2.9656,-3.0474,-3.0756,-3.0791,-3.0801,-3.0793,-3.0804,-3.0806,-3.1367,-3.1927,-3.1934,-3.2513,-3.3085,-3.32,-3.3827,-3.4433,-3.4661,-3.5327,-3.6384,-3.8064,-3.8437,-3.9062,-4.0703,-4.1034,-4.1092,-4.1104,-4.1106,-4.1108,-4.1108,-4.1191,-4.1627,-4.2496,-4.2617,-4.2891,-4.3466,-4.2722,-4.2222,-4.2104,-4.126,-4.0797,-4.0797,-4.0797,-4.0797,-4.0797,-4.0797,-4.0797,-4.0797,-4.0797,-4.0797,-4.0797,-4.0797,-4.0797,-4.0797,-4.0797,-4.0797,-4.0797,-4.0797,-4.0797,-4.0797,-4.0797,-4.0797,-4.0797,0.0,0.0,0.0,0.0,0.0,0.0,0.0,0.0,0.0,0.0,0.0,0.0,0.0,0.0,0.0,0.0,0.0,0.0,0.0,0.0,0.0,0.0,0.0,0.0,-2.4247,-2.4229,-2.4577,-2.5326,0.0,0.0,0.0,0.0,0.0,0.0,0.0,0.0,0.0,0.0,0.0,0.0,0.0,0.0,0.0,0.0,0.0,0.0,0.0,0.0,0.0,0.0,-2.9669,-2.9066,-3.0221,-3.0517,-3.0503,-3.0728,-3.0799,-3.0795,-3.0798,-3.0806,-3.0798,-3.0806,-3.0916,-3.1024,-3.1031,-3.1133,-3.1459,-3.2183,-3.2454,-3.2981,-3.4432,-3.4823,-3.5487,-3.7225,-3.8078,-3.8851,-3.989,-4.0658,-4.1092,-4.1093,-4.1092,-4.111,-4.1093,-4.1756,-4.2502,-4.3322,-4.4052,-4.4167,-4.354,-4.3291,-4.284,-4.2123,-4.126,-4.0797,-4.0797,-4.0797,-4.0797,-4.0797,-4.0797,-4.0797,-4.0797,-4.0797,-4.0797,-4.0797,-4.0797,-4.0797,-4.0797,-4.0797,-4.0797,-4.0797,-4.0797,-4.0797,-4.0797,-4.0797,-4.0797,-4.0797,0.0,0.0,0.0,0.0,0.0,0.0,0.0,0.0,0.0,0.0,-2.1052,-2.1954,0.0,0.0,0.0,0.0,0.0,0.0,0.0,0.0,0.0,0.0,0.0,-2.4393,-2.4392,-2.4392,-2.4586,-2.4985,0.0,-2.4916,-2.5714,-2.5514,-2.5684,-2.6153,-2.6307,0.0,0.0,0.0,0.0,0.0,0.0,0.0,0.0,0.0,0.0,0.0,0.0,0.0,0.0,0.0,-3.0139,-2.9926,-3.0449,-3.0645,-3.0717,-3.0772,-3.0793,-3.0802,-3.0808,-3.0799,-3.0807,-3.0795,-3.0791,-3.08,-3.08,-3.0809,-3.0924,-3.1331,-3.1753,-3.2303,-3.3183,-3.406,-3.5075,-3.6409,-3.7687,-3.8795,-3.9684,-4.0552,-4.1107,-4.1093,-4.1093,-4.1289,-4.1738,-4.2119,-4.2873,-4.4172,-4.4628,-4.485,-4.4856,-4.4353,-4.3468,-4.2142,-4.166,-4.1216,-4.0797,-4.0797,-4.0797,-4.0797,-4.0797,-4.0797,-4.0797,-4.0797,-4.0797,-4.0797,-4.0797,-4.0797,-4.0797,-4.0797,-4.0797,-4.0797,-4.0797,-4.0797,-4.0797,-4.0797,-4.0797,-4.0797,0.0,0.0,0.0,0.0,0.0,0.0,0.0,-1.8922,-1.9207,-1.9962,-2.1096,-2.2072,-2.2665,-2.3748,0.0,0.0,0.0,0.0,0.0,0.0,0.0,0.0,0.0,-2.4515,-2.4512,0.0,0.0,-2.4917,-2.5186,0.0,0.0,0.0,0.0,0.0,-2.5297,-2.5351,-2.545,0.0,0.0,0.0,0.0,-2.9514,0.0,0.0,0.0,0.0,0.0,-3.0433,-3.0453,-3.05,-3.0535,-3.055,-3.0591,-3.0665,-3.0719,-3.0772,-3.0806,-3.079,-3.0799,-3.0809,-3.0819,-3.0824,-3.0818,-3.08,-3.0809,-3.0803,-3.0791,-3.0777,-3.129,-3.1802,-3.2058,-3.3319,-3.4625,-3.5564,-3.7273,-3.8736,-3.9421,-4.0424,-4.1099,-4.1092,-4.1093,-4.1444,-4.232,-4.2515,-4.3219,-4.4773,-4.5008,-4.5376,-4.6032,-4.5201,-4.4077,-4.2697,-4.2234,-4.1712,-4.1067,-4.0893,-4.0797,-4.0797,-4.0797,-4.0797,-4.0797,-4.0797,-4.0797,-4.0797,-4.0797,-4.0797,-4.0797,-4.0797,-4.0797,-4.0797,-4.0797,-4.0797,-4.0797,-4.0797,-4.0797,-4.0797,0.0,0.0,0.0,0.0,0.0,0.0,0.0,-1.9007,-1.9134,-1.9269,-2.0865,-2.2033,-2.2152,-2.3612,0.0,0.0,0.0,0.0,0.0,0.0,0.0,0.0,0.0,0.0,0.0,0.0,0.0,-2.5967,-2.6816,0.0,0.0,0.0,0.0,0.0,0.0,-2.5389,-2.5397,-2.547,0.0,0.0,0.0,0.0,0.0,0.0,0.0,0.0,0.0,-3.0534,-3.0589,-3.0593,-3.0634,-3.0688,-3.0689,-3.07,-3.0711,-3.0788,-3.0803,-3.0791,-3.0791,-3.0841,-3.0889,-3.0895,-3.0859,-3.0794,-3.0809,-3.0798,-3.0784,-3.0728,-3.0769,-3.1086,-3.1934,-3.2825,-3.3721,-3.4664,-3.6885,-3.8536,-3.8605,-4.004,-4.1109,-4.1091,-4.1098,-4.1431,-4.2321,-4.3062,-4.3872,-4.4832,-4.5572,-4.5993,-4.6007,-4.5174,-4.4636,-4.4465,-4.2929,-4.2027,-4.1893,-4.1164,-4.0797,-4.0797,-4.0797,-4.0797,-4.0797,-4.0797,-4.0797,-4.0797,-4.0797,-4.0797,-4.0797,-4.0797,-4.0797,-4.0797,-4.0797,-4.0797,-4.0797,-4.0797,-4.0797,-4.0797,0.0,0.0,0.0,0.0,0.0,0.0,0.0,-1.9156,-1.9266,-1.9361,-2.0938,-2.21,-2.2208,-2.372,-2.4746,0.0,0.0,0.0,0.0,0.0,0.0,0.0,0.0,0.0,0.0,0.0,-2.6034,-2.6154,-2.7138,0.0,0.0,0.0,0.0,0.0,0.0,-2.5901,-2.5456,-2.5456,0.0,0.0,0.0,0.0,0.0,0.0,0.0,0.0,0.0,0.0,-3.0662,-3.0656,-3.0697,-3.0762,-3.0752,-3.0765,-3.087,-3.1427,-3.1589,-3.1573,-3.1578,-3.1976,-3.2276,-3.1756,-3.16,-3.1585,-3.1578,-3.1147,-3.073,-3.0717,-3.0707,-3.0808,-3.1189,-3.2376,-3.3411,-3.3805,-3.6472,-3.851,-3.8502,-3.9991,-4.1104,-4.11,-4.1551,-4.2215,-4.3092,-4.3905,-4.4721,-4.5558,-4.5929,-4.6066,-4.6002,-4.5659,-4.5243,-4.4723,-4.3995,-4.3092,-4.2009,-4.168,-4.1274,-4.0797,-4.0797,-4.0797,-4.0797,-4.0797,-4.0797,-4.0797,-4.0796,-4.0802,-4.0802,-4.0806,-4.08,-4.0802,-4.0802,-4.079,-4.0797,-4.0797,-4.0797,-4.0797,0.0,0.0,0.0,0.0,0.0,0.0,-1.9253,-1.9323,-1.9427,-1.9548,-2.1087,-2.2208,-2.2323,-2.3834,-2.4884,-2.4947,0.0,0.0,0.0,0.0,0.0,0.0,0.0,0.0,0.0,0.0,-2.6431,-2.6579,-2.7808,-2.8345,0.0,0.0,-2.7744,-2.6704,0.0,0.0,0.0,0.0,0.0,0.0,0.0,0.0,0.0,0.0,0.0,0.0,0.0,0.0,0.0,0.0,0.0,-3.0806,-3.0801,-3.0812,0.0,-3.1537,-3.1906,-3.2044,-3.1796,-3.2349,-3.2805,-3.1933,-3.1715,-3.1714,-3.1728,-3.1198,-3.0724,-3.0704,-3.0701,-3.0778,-3.1041,-3.2292,-3.3388,0.0,-3.6378,-3.8481,-3.85,-3.9993,-4.1108,-4.1103,-4.1632,-4.2354,-4.3233,-4.4046,-4.476,-4.5321,-4.5583,-4.5687,-4.5652,-4.5864,-4.572,-4.5072,-4.4524,-4.366,-4.2396,-4.1893,-4.1351,-4.0797,-4.0797,-4.0797,-4.0797,-4.0803,-4.0809,-4.0809,-4.08,-4.0792,-4.0792,-4.0796,-4.0796,-4.0792,-4.08,-4.0802,-4.0809,-4.0797,-4.0797,-4.0797,0.0,0.0,0.0,0.0,0.0,0.0,0.0,-1.9504,-1.9618,-1.968,-2.1226,-2.2328,-2.2395,-2.3953,-2.5018,-2.5097,0.0,0.0,0.0,0.0,0.0,0.0,0.0,0.0,0.0,0.0,0.0,0.0,-2.922,-2.9775,-2.9184,-2.9255,-2.8366,-2.6702,0.0,0.0,0.0,0.0,0.0,0.0,0.0,0.0,0.0,0.0,0.0,0.0,0.0,0.0,0.0,0.0,0.0,0.0,0.0,-3.0844,-3.0887,-3.0822,-3.1426,-3.1914,-3.1055,-3.1453,-3.189,-3.1035,-3.0816,-3.0815,-3.0808,-3.0804,-3.0776,-3.0701,-3.0695,-3.0967,-3.1822,-3.272,-3.3582,-3.4458,-3.6735,-3.8426,-3.85,-3.9997,-4.1107,-4.1097,-4.1119,-4.1469,-4.2327,-4.3142,-4.3618,-4.3624,-4.4367,-4.4811,-4.4817,-4.5569,-4.5975,-4.5892,-4.4283,-4.3375,-4.3285,-4.1641,-4.0816,-4.0797,-4.0797,-4.0797,-4.0797,-4.0802,-4.0794,-4.08,-4.0796,-4.0807,-4.0807,-4.0807,-4.0807,-4.0807,-4.0792,-4.0794,-4.0794,-4.0803,-4.0797,-4.0797,0.0,0.0,0.0,0.0,0.0,0.0,0.0,-1.9674,-1.9763,-1.9825,-2.1318,-2.24,-2.2451,-2.3974,-2.5025,-2.5084,0.0,0.0,0.0,0.0,0.0,0.0,0.0,0.0,0.0,0.0,0.0,0.0,0.0,0.0,-3.0012,-3.0149,-2.9571,-2.8481,-2.8512,-2.8067,0.0,0.0,0.0,0.0,0.0,0.0,-3.0777,0.0,0.0,0.0,0.0,0.0,0.0,0.0,0.0,0.0,0.0,0.0,0.0,-3.0867,-3.1449,-3.2032,-3.1758,-3.2313,-3.2789,-3.1913,-3.1697,-3.1683,-3.1685,-3.1231,-3.0789,-3.0719,-3.0704,-3.0963,-3.1844,-3.2718,-3.3771,-3.5193,-3.7109,-3.862,-3.9304,-4.0379,-4.1109,-4.1107,-4.1639,-4.2323,-4.3195,-4.3512,-4.3641,-4.3591,-4.3841,-4.3951,-4.3918,-4.4151,-4.4533,-4.5052,-4.4568,-4.371,-4.2486,-4.1944,-4.1394,-4.0798,-4.0798,-4.0798,-4.0798,-4.0809,-4.079,-4.0796,-4.0842,-4.0872,-4.0872,-4.0873,-4.0873,-4.0872,-4.0862,-4.0834,-4.0794,-4.0808,-4.079,-4.0797,0.0,0.0,0.0,0.0,0.0,0.0,0.0,-1.98,-1.9843,-1.9896,-2.1356,-2.242,-2.2488,-2.4018,-2.505,-2.5132,0.0,0.0,0.0,0.0,0.0,0.0,0.0,0.0,0.0,0.0,0.0,0.0,0.0,0.0,0.0,0.0,0.0,-2.933,-2.9388,-2.8929,0.0,0.0,0.0,0.0,0.0,0.0,-3.0806,0.0,0.0,0.0,0.0,0.0,0.0,0.0,0.0,0.0,0.0,0.0,0.0,0.0,-3.1259,-3.1644,-3.1622,-3.2253,-3.2708,-3.1834,-3.1601,-3.1616,-3.1606,-3.1198,-3.08,-3.0745,-3.0978,-3.1463,-3.2326,-3.3177,-3.4303,-3.6008,-3.7483,-3.873,-3.9675,-4.0541,-4.1099,-4.1093,-4.1582,-4.2129,-4.267,-4.2713,-4.2683,-4.2617,-4.2899,-4.3048,-4.3005,-4.3316,-4.3587,-4.3751,-4.3751,-4.3211,-4.211,-4.1761,-4.1346,-4.0807,-4.0807,-4.0807,-4.0807,-4.0837,-4.0842,-4.0842,-4.0888,-4.0898,0.0,-4.0898,-4.0898,-4.0898,-4.0907,-4.0862,-4.0829,-4.0806,-4.0808,-4.079,0.0,0.0,0.0,0.0,0.0,0.0,0.0,0.0,0.0,0.0,-2.1367,-2.2432,-2.2499,-2.4061,-2.513,0.0,0.0,0.0,0.0,0.0,0.0,0.0,0.0,0.0,0.0,0.0,0.0,0.0,-2.9774,-3.0309,-3.0509,0.0,0.0,0.0,-2.9493,0.0,0.0,0.0,0.0,0.0,-3.0815,-3.0803,0.0,0.0,0.0,0.0,0.0,0.0,0.0,0.0,0.0,0.0,0.0,0.0,0.0,0.0,0.0,0.0,0.0,-3.139,-3.1825,-3.101,-3.0819,-3.0801,-3.0818,-3.0791,0.0,-3.0793,-3.1432,-3.2263,-3.3149,-3.3954,-3.5065,-3.6828,-3.7821,-3.8739,-3.9664,-4.0547,-4.1103,-4.1093,-4.1093,-4.1093,-4.1107,-4.1099,-4.1061,-4.099,-4.1696,-4.2116,-4.2116,-4.2889,-4.2932,-4.2135,-4.2115,-4.208,-4.2028,-4.1214,-4.0812,-4.0812,-4.0812,-4.0812,-4.0812,-4.0877,-4.0907,-4.0907,-4.0898,-4.0907,-4.0907,-4.0907,-4.0907,-4.0903,-4.0898,-4.0902,-4.0897,-4.0823,-4.08,-4.0794,0.0,0.0,0.0,0.0,0.0,0.0,0.0,0.0,0.0,0.0,0.0,-2.2488,-2.2572,-2.4098,0.0,0.0,0.0,0.0,0.0,0.0,0.0,0.0,0.0,0.0,0.0,0.0,0.0,-2.8976,-2.9895,-3.0431,-3.0583,-3.0656,0.0,0.0,0.0,0.0,0.0,0.0,0.0,0.0,-3.0853,-3.0875,0.0,0.0,0.0,0.0,-3.0898,-3.0898,0.0,0.0,0.0,0.0,0.0,0.0,0.0,0.0,-3.0896,-3.0895,-3.0889,0.0,-3.1122,-3.0929,-3.0874,-3.0877,0.0,-3.0836,-3.0801,-3.0806,-3.1434,-3.2273,-3.3145,-3.3954,-3.5065,-3.6828,-3.7837,-3.8734,-3.9675,-4.056,-4.1091,-4.1094,-4.1093,-4.111,-4.1097,-4.1046,-4.1025,-4.0991,-4.1178,-4.1265,-4.1199,-4.1393,-4.1427,-4.1209,-4.1209,-4.1194,-4.1183,-4.0969,-4.0888,-4.0888,-4.0888,-4.0888,-4.0869,-4.0893,-4.0898,-4.0898,-4.0903,-4.0907,-4.0907,-4.0907,-4.0907,-4.0907,-4.0898,-4.0903,-4.0897,-4.0826,-4.0798,-4.0794,0.0,0.0,0.0,0.0,0.0,0.0,0.0,0.0,0.0,0.0,0.0,0.0,0.0,0.0,0.0,0.0,0.0,0.0,0.0,0.0,0.0,0.0,0.0,0.0,0.0,0.0,0.0,0.0,0.0,-3.05,0.0,0.0,0.0,0.0,0.0,0.0,0.0,0.0,0.0,0.0,-3.0897,0.0,0.0,0.0,0.0,0.0,-3.0898,-3.0898,0.0,-3.0898,-3.0898,-3.0898,0.0,0.0,0.0,0.0,-3.0897,-3.0897,-3.0894,-3.0891,-3.0888,-3.0865,-3.0848,-3.0852,-3.0897,-3.0859,-3.079,-3.0798,-3.1753,-3.2743,-3.3204,-3.4614,-3.6129,-3.7469,-3.8424,-3.9312,-4.025,-4.08,-4.1108,-4.1092,-4.1106,-4.1094,-4.1053,-4.1014,-4.1006,-4.1003,-4.0963,-4.0941,-4.0907,-4.0907,-4.0907,-4.0907,-4.0907,-4.0898,-4.0903,-4.0903,-4.0893,-4.0907,-4.0907,-4.0907,-4.0907,-4.0907,-4.0907,-4.0907,-4.0907,-4.0907,-4.0907,-4.0907,-4.0907,-4.0907,-4.0907,-4.0898,-4.0898,-4.0823,-4.0796,-4.0798,0.0,0.0,0.0,0.0,0.0,0.0,0.0,0.0,0.0,0.0,0.0,0.0,0.0,0.0,0.0,0.0,0.0,0.0,0.0,0.0,0.0,0.0,0.0,0.0,0.0,0.0,0.0,0.0,0.0,0.0,0.0,0.0,0.0,0.0,0.0,0.0,0.0,0.0,0.0,-3.0898,-3.0898,0.0,0.0,0.0,0.0,0.0,0.0,0.0,0.0,-3.0898,-3.0898,-3.0898,-3.0898,0.0,0.0,0.0,0.0,0.0,-3.0897,-3.0992,-3.1064,-3.1001,-3.0999,-3.1002,-3.107,-3.0937,-3.0834,-3.096,-3.2226,-3.333,-3.346,-3.5469,-3.7333,-3.8076,-3.9042,-4.002,-4.0957,-4.1088,-4.1076,-4.1082,-4.1083,-4.1057,-4.1009,-4.1002,-4.1003,-4.0982,-4.0921,-4.0907,-4.0907,-4.0907,-4.0907,-4.0907,-4.0903,-4.0903,-4.0903,-4.0907,-4.0907,-4.0907,-4.0907,-4.0907,-4.0907,-4.0907,-4.0903,-4.0903,-4.0903,-4.0898,-4.0878,-4.0878,-4.0878,-4.0878,-4.0878,-4.0878,-4.0869,-4.0823,-4.0801,-4.0801,0.0,0.0,0.0,0.0,0.0,0.0,0.0,0.0,0.0,0.0,0.0,0.0,0.0,0.0,0.0,0.0,0.0,0.0,0.0,0.0,0.0,0.0,0.0,0.0,0.0,0.0,0.0,0.0,0.0,0.0,-3.0681,-3.0751,-3.0794,0.0,0.0,0.0,0.0,0.0,-3.0897,-3.0897,-3.0898,0.0,0.0,0.0,0.0,0.0,0.0,0.0,0.0,-3.0898,-3.0898,-3.0898,-3.0898,0.0,0.0,0.0,0.0,0.0,-3.0897,-3.1404,-3.1911,-3.1909,-3.1909,-3.1891,-3.1914,-3.1346,-3.1001,-3.1748,-3.2642,-3.3511,-3.4194,-3.5838,-3.7139,-3.7275,-3.8653,-3.9999,-4.0883,-4.102,-4.1011,-4.1013,-4.1017,-4.101,-4.0991,-4.1007,-4.0982,-4.0917,-4.0912,-4.0907,-4.0907,-4.0907,-4.0907,-4.0907,-4.0903,-4.0907,-4.0907,-4.0893,-4.0907,-4.0907,-4.0907,-4.0907,-4.0907,-4.0907,-4.0893,-4.0907,-4.0907,-4.0877,-4.0823,-4.0823,-4.0823,-4.0823,-4.0823,-4.0823,-4.0818,-4.0798,-4.0806,-4.0818,0.0,0.0,0.0,0.0,0.0,0.0,0.0,0.0,0.0,0.0,0.0,0.0,0.0,0.0,0.0,0.0,0.0,0.0,0.0,0.0,0.0,0.0,0.0,0.0,0.0,0.0,0.0,0.0,0.0,-2.9528,-3.0053,-3.0579,-3.0827,-3.0859,0.0,0.0,0.0,0.0,-3.0897,-3.0898,0.0,0.0,0.0,0.0,0.0,0.0,0.0,0.0,0.0,0.0,-3.0898,-3.0898,-3.0898,0.0,0.0,0.0,0.0,0.0,-3.0898,-3.1504,-3.2265,-3.2695,-3.2791,-3.279,-3.2793,-3.2497,-3.2306,-3.266,-3.339,-3.4213,-3.5045,-3.6606,-3.8063,-3.9041,-3.9878,-4.0548,-4.0935,-4.0997,-4.1,-4.099,-4.1006,-4.1,-4.1003,-4.0978,-4.0921,-4.0907,-4.0907,-4.0907,-4.0907,-4.0907,-4.0903,-4.0903,-4.0893,-4.0877,-4.0842,-4.0858,-4.0854,-4.0903,-4.0898,-4.0907,-4.0907,-4.0893,-4.0898,-4.0902,-4.0867,-4.0837,-4.0807,-4.0807,-4.0807,-4.0807,-4.0807,-4.0807,-4.0807,-4.0812,-4.0806,-4.0815,0.0,0.0,0.0,0.0,0.0,0.0,0.0,0.0,0.0,0.0,0.0,0.0,0.0,0.0,0.0,0.0,0.0,0.0,0.0,0.0,0.0,0.0,0.0,0.0,0.0,0.0,0.0,-2.9043,-2.8433,-2.86,-2.954,-3.0417,-3.0858,0.0,0.0,0.0,0.0,0.0,-3.0897,-3.0898,0.0,0.0,0.0,0.0,0.0,0.0,0.0,0.0,0.0,0.0,0.0,0.0,0.0,0.0,0.0,-3.0872,-3.0873,-3.0875,-3.0876,-3.1503,-3.2324,-3.2969,-3.3261,-3.3456,-3.3652,-3.3549,-3.3433,-3.3587,-3.4251,-3.5069,-3.5946,-3.7491,-3.915,-4.0721,-4.0978,-4.0991,-4.0984,-4.0972,-4.0988,-4.0984,-4.098,-4.0978,-4.0978,-4.0941,-4.0907,-4.0907,-4.0907,-4.0907,-4.0907,-4.0903,-4.0908,-4.0902,-4.0872,-4.0856,-4.0796,-4.0796,-4.0832,-4.0877,-4.0878,-4.0869,-4.0888,-4.0888,-4.0872,-4.0862,-4.0826,-4.0796,-4.0809,-4.0809,-4.0809,-4.0809,-4.0809,-4.0809,-4.0804,-4.0794,-4.0806,-4.0807,0.0,0.0,0.0,0.0,0.0,0.0,0.0,0.0,0.0,0.0,0.0,0.0,0.0,0.0,0.0,0.0,0.0,0.0,0.0,0.0,0.0,0.0,0.0,0.0,0.0,-2.9423,-2.903,-2.8276,-2.8227,-2.8675,-2.9603,-3.0486,-3.0898,-3.0897,0.0,0.0,0.0,0.0,-3.0897,-3.0897,-3.0898,0.0,0.0,0.0,0.0,0.0,0.0,0.0,0.0,0.0,0.0,0.0,0.0,0.0,-3.0809,-3.0819,-3.0819,-3.0804,-3.081,-3.1441,-3.2147,-3.2266,-3.2851,-3.3613,-3.4411,-3.3988,-3.361,-3.4358,-3.5154,-3.5976,-3.686,-3.8423,-3.9893,-4.0752,-4.0912,-4.0912,-4.0917,-4.0912,-4.0912,-4.0917,-4.0912,-4.0912,-4.0912,-4.0907,-4.0907,-4.0907,-4.0907,-4.0907,-4.0907,-4.0903,-4.0907,-4.0902,-4.0834,-4.08,-4.08,-4.08,-4.0798,-4.0812,-4.0812,-4.0812,-4.0812,-4.0812,-4.0815,-4.0806,-4.08,-4.0808,-4.0803,-4.0803,-4.0803,-4.0803,-4.0803,-4.0803,-4.0803,-4.0797,-4.0796,-4.0812,0.0,0.0,0.0,0.0,0.0,0.0,0.0,0.0,0.0,0.0,0.0,0.0,0.0,0.0,0.0,0.0,0.0,0.0,0.0,0.0,0.0,0.0,0.0,-3.0355,-2.9476,-2.8929,-2.8231,-2.7383,-2.7981,-2.8721,-2.9627,-3.0488,0.0,0.0,0.0,0.0,0.0,0.0,0.0,-3.0898,-3.0898,-3.0898,0.0,0.0,0.0,0.0,0.0,0.0,0.0,0.0,-3.0898,-3.0897,-3.0811,-3.0805,-3.0796,-3.0792,-3.0796,-3.0809,-3.0798,-3.1045,-3.156,-3.2673,-3.3162,-3.363,-3.4504,-3.5249,-3.5838,-3.6093,-3.6787,-3.7628,-3.8486,-3.9641,-4.0558,-4.0849,-4.0907,-4.0907,-4.0907,-4.0907,-4.0907,-4.0907,-4.0907,-4.0907,-4.0907,-4.0907,-4.0907,-4.0907,-4.0907,-4.0907,-4.0907,-4.0898,-4.0877,-4.0842,-4.0798,-4.0808,-4.079,-4.079,-4.0796,-4.0794,-4.079,-4.0807,-4.0807,-4.0804,-4.0806,-4.0794,-4.0796,-4.0803,-4.0797,-4.0797,-4.0797,-4.0797,-4.0797,-4.0797,-4.0797,-4.0797,-4.0796,-4.08,0.0,0.0,0.0,0.0,0.0,0.0,0.0,0.0,0.0,0.0,0.0,0.0,0.0,0.0,0.0,0.0,0.0,0.0,0.0,0.0,0.0,0.0,0.0,-3.0403,-2.9551,-2.8954,-2.8229,-2.7338,-2.8256,-2.9023,-2.9629,0.0,0.0,0.0,0.0,0.0,0.0,0.0,0.0,0.0,-3.0898,-3.0898,0.0,0.0,0.0,0.0,0.0,0.0,0.0,0.0,-3.0877,-3.0853,-3.0817,-3.0781,-3.0765,-3.0769,-3.0774,-3.0776,-3.0776,-3.0976,-3.1496,-3.2688,-3.3409,-3.403,-3.4875,-3.6183,-3.7108,-3.6766,-3.7329,-3.8156,-3.9019,-3.9927,-4.0519,-4.0519,-4.0733,-4.0907,-4.0907,-4.0907,-4.0907,-4.0907,-4.0907,-4.0907,-4.0907,-4.0907,-4.0907,-4.0907,-4.0907,-4.0907,-4.0907,-4.0898,-4.0877,-4.0837,-4.0809,-4.0806,-4.0808,-4.0808,-4.0808,-4.0808,-4.0809,-4.0796,-4.0798,-4.0794,-4.0802,-4.0802,-4.0803,-4.0797,-4.0797,-4.0797,-4.0797,-4.0797,-4.0797,-4.0797,-4.0797,-4.0797,-4.0809,-4.0802,0.0,0.0,0.0,0.0,0.0,0.0,0.0,0.0,0.0,0.0,0.0,0.0,0.0,0.0,0.0,0.0,0.0,0.0,0.0,0.0,0.0,0.0,0.0,-3.0422,-2.9625,-2.9607,-2.9197,-2.8317,-2.9179,-2.9609,-2.9629,-3.0508,0.0,0.0,0.0,0.0,0.0,0.0,0.0,0.0,-3.0897,-3.0896,-3.0894,0.0,0.0,0.0,0.0,0.0,0.0,0.0,-3.0806,-3.0796,-3.079,0.0,0.0,-3.0704,-3.0701,-3.0707,-3.0697,-3.1384,-3.2091,-3.2115,-3.342,-3.4926,-3.5733,-3.6585,-3.6943,-3.6009,-3.6459,-3.7269,-3.8142,-3.9063,-3.9679,-3.9679,-4.0364,-4.0888,-4.0888,-4.0907,-4.0907,-4.0907,-4.0907,-4.0907,-4.0907,-4.0907,-4.0907,-4.0907,-4.0907,-4.0907,-4.0907,-4.0898,-4.0902,-4.0902,-4.0842,-4.0807,-4.0807,-4.0807,-4.0807,-4.0807,-4.0807,-4.0798,-4.0797,-4.0797,-4.0797,-4.0797,-4.0797,-4.0797,-4.0797,-4.0797,-4.0797,-4.0797,-4.0797,-4.0797,-4.0797,-4.0797,-4.0797,-4.0797,0.0,0.0,0.0,0.0,0.0,0.0,0.0,0.0,0.0,0.0,0.0,0.0,0.0,0.0,0.0,0.0,0.0,0.0,0.0,0.0,0.0,0.0,0.0,0.0,0.0,0.0,-3.0097,-2.9218,-2.9473,-2.9902,0.0,0.0,0.0,-3.0898,0.0,0.0,0.0,0.0,0.0,0.0,-3.0826,-3.0822,-3.0821,0.0,0.0,0.0,0.0,0.0,0.0,0.0,0.0,0.0,-3.0733,0.0,-3.0681,-3.0638,-3.0653,-3.0707,-3.0709,-3.1393,-3.2241,-3.2856,-3.4293,-3.5775,-3.6615,-3.6978,-3.7218,-3.7492,-3.7749,-3.7987,-3.8244,-3.8578,-3.879,-3.879,-3.9509,-4.0053,-4.0053,-4.0538,-4.0907,-4.0907,-4.0907,-4.0907,-4.0907,-4.0907,-4.0907,-4.0907,-4.0907,-4.0917,-4.0974,-4.0931,-4.0912,-4.0963,-4.0906,-4.0878,-4.0878,-4.0878,-4.0864,-4.0864,-4.0864,-4.0858,-4.0804,-4.0804,-4.0804,-4.0804,-4.0804,-4.0806,-4.0802,-4.0803,-4.0797,-4.0797,-4.0797,-4.0797,-4.0797,-4.0797,-4.0797,-4.0797,0.0,0.0,0.0,0.0,0.0,0.0,0.0,0.0,0.0,0.0,0.0,-2.5689,0.0,0.0,0.0,0.0,0.0,0.0,0.0,0.0,0.0,0.0,0.0,0.0,0.0,-3.0898,-3.0644,0.0,0.0,0.0,0.0,0.0,0.0,-3.0859,0.0,-3.0854,0.0,0.0,0.0,0.0,-3.0764,-3.0755,-3.0751,0.0,0.0,0.0,0.0,0.0,0.0,0.0,0.0,0.0,-3.0665,0.0,-3.0657,-3.0608,-3.0633,-3.0738,-3.1113,-3.1877,-3.2788,-3.3696,-3.5188,-3.6548,-3.7049,-3.7129,-3.7232,-3.7725,-3.7545,-3.7317,-3.7307,-3.7616,-3.7882,-3.7882,-3.8615,-3.9179,-3.9179,-3.9606,-3.9917,-3.9917,-3.9917,-4.0033,-4.0383,-4.0422,-4.0562,-4.0902,-4.0945,-4.0958,-4.0992,-4.0964,-4.0957,-4.099,-4.0967,-4.0948,-4.0948,-4.0948,-4.094,-4.0949,-4.0949,-4.0914,-4.0889,-4.0849,-4.0849,-4.084,-4.0833,-4.0826,-4.0792,-4.0802,-4.079,-4.079,-4.0797,-4.0797,-4.0797,-4.0797,-4.0803,-4.0757,0.0,0.0,-2.0741,-2.0731,0.0,0.0,0.0,0.0,0.0,0.0,0.0,-2.5702,0.0,0.0,0.0,-2.57,0.0,0.0,0.0,0.0,0.0,0.0,0.0,0.0,0.0,0.0,0.0,0.0,0.0,0.0,0.0,0.0,-3.0857,-3.0795,0.0,-3.0801,0.0,0.0,0.0,0.0,-3.0723,-3.0691,-3.0698,-3.07,0.0,0.0,0.0,0.0,0.0,0.0,0.0,0.0,-3.0585,-3.0597,-3.0593,-3.0593,-3.061,-3.0797,-3.1757,-3.2647,-3.3517,-3.446,-3.5955,-3.7199,-3.7222,-3.715,-3.7083,-3.6999,-3.6345,-3.5793,-3.5791,-3.6455,-3.6979,-3.6984,-3.7702,-3.8285,-3.8289,-3.8348,-3.8406,-3.8406,-3.8406,-3.8712,-3.9509,-3.9582,-3.9906,-4.0695,-4.0757,-4.0797,-4.0896,-4.0893,-4.0928,-4.1005,-4.1018,-4.1003,-4.1003,-4.1003,-4.1003,-4.1003,-4.1003,-4.1003,-4.1001,-4.0945,-4.0915,-4.0909,-4.0893,-4.0872,-4.0807,-4.0792,-4.0794,-4.0794,-4.0809,-4.0797,-4.0797,-4.0803,-4.0802,-4.0696,0.0,0.0,-2.2531,-2.2544,0.0,0.0,0.0,0.0,-2.4702,-2.5584,-2.5702,-2.5702,-2.5703,-2.5703,0.0,-2.5703,-2.5703,0.0,0.0,0.0,0.0,0.0,0.0,0.0,0.0,0.0,0.0,0.0,0.0,0.0,0.0,0.0,0.0,-3.0805,0.0,-3.0771,0.0,0.0,0.0,-3.0713,-3.0704,-3.069,-3.0683,-3.0642,-3.0614,0.0,0.0,0.0,0.0,0.0,0.0,0.0,-3.0545,-3.053,-3.0525,-3.0525,-3.0554,-3.0793,-3.1759,-3.2636,-3.3507,-3.4408,-3.5911,-3.7358,-3.7976,-3.7622,-3.6977,-3.6234,-3.5919,-3.5811,-3.5799,-3.5957,-3.6088,-3.6086,-3.6815,-3.7374,-3.7372,-3.7979,-3.8406,-3.8406,-3.8406,-3.8464,-3.8659,-3.8678,-3.8769,-3.8941,-3.8956,-3.928,-4.0028,-4.006,-4.0368,-4.1069,-4.1077,-4.1081,-4.1081,-4.1085,-4.1085,-4.1081,-4.1081,-4.1081,-4.108,-4.1008,-4.097,-4.0988,-4.0921,-4.0883,-4.0872,-4.0818,-4.0794,-4.0794,-4.0808,-4.0808,-4.0814,-4.0859,-4.0881,-4.0761,0.0,0.0,0.0,0.0,0.0,0.0,0.0,0.0,-2.4716,-2.5597,-2.5695,-2.5696,-2.5698,-2.5699,0.0,0.0,-2.5696,-2.5693,0.0,0.0,0.0,0.0,0.0,0.0,0.0,0.0,0.0,0.0,0.0,0.0,0.0,0.0,0.0,-3.0751,0.0,-3.0734,0.0,0.0,-3.0683,-3.0653,-3.0645,-3.0653,-3.0649,-3.0604,-3.0595,-3.0595,-3.0595,0.0,0.0,0.0,0.0,0.0,0.0,0.0,-3.046,-3.0495,-3.0554,-3.0897,-3.2217,-3.2924,-3.3701,-3.5424,-3.6236,-3.6835,-3.7641,-3.718,-3.6442,-3.594,-3.5849,-3.5838,-3.5815,-3.5803,-3.5791,-3.5801,-3.619,-3.6481,-3.6481,-3.6878,-3.7159,-3.7159,-3.7159,-3.7314,-3.7741,-3.7773,-3.7949,-3.838,-3.8423,-3.865,-3.9158,-3.9211,-3.9615,-4.0504,-4.0526,-4.0703,-4.1094,-4.1094,-4.1094,-4.1094,-4.1094,-4.1093,-4.1109,-4.106,-4.1034,-4.1002,-4.096,-4.095,-4.0942,-4.0832,-4.0804,-4.0798,-4.08,-4.0806,-4.0809,-4.0883,-4.0655,-4.0205,0.0,0.0,0.0,0.0,0.0,0.0,0.0,0.0,0.0,-2.5609,-2.5707,-2.5707,-2.5706,-2.5709,-2.5709,0.0,0.0,0.0,-2.5683,0.0,0.0,0.0,0.0,0.0,0.0,0.0,0.0,0.0,0.0,0.0,0.0,0.0,0.0,-3.067,0.0,0.0,0.0,-3.0676,-3.0625,-3.0585,-3.0595,-3.0591,-3.061,-3.0607,-3.0598,-3.0598,-3.0598,-3.0559,-3.0491,-3.049,0.0,0.0,0.0,0.0,-3.0403,-3.0469,-3.0535,-3.0976,-3.273,-3.3472,-3.4297,-3.6621,-3.6596,-3.6207,-3.7002,-3.654,-3.5902,-3.5892,-3.5911,-3.5885,-3.5822,-3.5811,-3.5795,-3.5793,-3.5797,-3.5797,-3.5803,-3.5797,-3.5791,-3.5795,-3.5795,-3.6086,-3.6809,-3.6884,-3.7171,-3.7916,-3.8024,-3.8114,-3.8282,-3.8352,-3.8787,-3.9648,-3.9686,-3.9996,-4.0657,-4.0812,-4.0871,-4.0871,-4.1028,-4.1092,-4.1092,-4.0938,-4.0923,-4.1013,-4.1015,-4.1003,-4.0982,-4.0863,-4.0812,-4.0793,-4.0649,-4.0602,-4.0601,-4.0528,-4.0058,-3.937,0.0,0.0,0.0,0.0,0.0,0.0,0.0,0.0,0.0,0.0,-2.5707,-2.5705,-2.5701,-2.5701,-2.5696,-2.5699,-2.5697,-2.5687,0.0,0.0,0.0,0.0,0.0,0.0,0.0,0.0,0.0,0.0,0.0,0.0,0.0,0.0,0.0,-3.0614,0.0,0.0,0.0,-3.0535,-3.0516,-3.0511,-3.0574,-3.0602,-3.0602,-3.0598,-3.0598,-3.0598,-3.0598,-3.0559,-3.0491,-3.049,-3.0463,0.0,0.0,0.0,-3.0398,-3.0403,-3.05,-3.0984,-3.2727,-3.4349,-3.5813,-3.6921,-3.6557,-3.6145,-3.7004,-3.6526,-3.5892,-3.5908,-3.5906,-3.59,-3.5882,-3.5836,-3.5803,-3.5795,-3.5741,-3.5722,-3.5799,-3.5803,-3.5793,-3.5795,-3.5795,-3.5853,-3.595,-3.597,-3.605,-3.6211,-3.6237,-3.6599,-3.7421,-3.7461,-3.787,-3.8747,-3.8762,-3.8836,-3.8933,-3.963,-3.9978,-3.9978,-4.0732,-4.111,-4.1073,-4.0327,-4.0377,-4.107,-4.1022,-4.1003,-4.0982,-4.0863,-4.0823,-4.0819,-4.0058,-3.9791,-3.9768,-3.9065,-3.8756,-3.8547,0.0,0.0,0.0,0.0,0.0,0.0,0.0,0.0,0.0,0.0,0.0,-2.5696,-2.5705,-2.5662,-2.565,-2.5639,-2.5605,0.0,0.0,0.0,0.0,0.0,0.0,0.0,0.0,0.0,0.0,0.0,0.0,0.0,-2.9836,-3.0311,-3.0539,0.0,0.0,0.0,0.0,-3.051,-3.0496,-3.0515,-3.0569,-3.0598,-3.0656,-3.1101,-3.0984,-3.0656,-3.112,-3.0936,-3.0495,-3.0504,-3.0453,-3.0402,-3.041,0.0,0.0,0.0,-3.0474,-3.0931,-3.2725,-3.4158,-3.5373,-3.6253,-3.6175,-3.5991,-3.6346,-3.6112,-3.5846,-3.5894,-3.5903,-3.5908,-3.59,-3.5888,-3.584,-3.581,-3.578,-3.5742,-3.5742,-3.5732,-3.5751,-3.5793,-3.5797,-3.5801,-3.5795,-3.5827,-3.5872,-3.5907,-3.5935,-3.6138,-3.6543,-3.6562,-3.697,-3.7842,-3.7879,-3.8111,-3.8595,-3.8944,-3.9139,-3.9124,-3.9524,-3.9705,-3.9687,-3.9293,-3.9571,-4.0344,-3.9828,-3.9601,-3.959,-3.9509,-3.9466,-3.9465,-3.9083,-3.8959,-3.8937,-3.8628,-3.82,-3.7778,0.0,0.0,0.0,0.0,0.0,0.0,0.0,0.0,0.0,0.0,0.0,-2.5678,-2.5664,0.0,0.0,0.0,-2.5522,0.0,0.0,0.0,0.0,0.0,0.0,0.0,0.0,0.0,0.0,0.0,0.0,0.0,-2.9521,-3.012,-3.0422,-3.0465,-3.0469,-3.0477,-3.0463,-3.0465,-3.0481,-3.053,-3.0791,-3.0902,-3.0984,-3.1811,-3.1753,-3.1275,-3.1657,-3.1375,-3.0793,-3.0562,-3.0461,-3.0404,-3.0404,-3.0404,0.0,0.0,0.0,-3.1133,-3.2484,-3.3685,-3.4706,-3.536,-3.5684,-3.5845,-3.5795,-3.5772,-3.5783,-3.5869,-3.5891,-3.5903,-3.5903,-3.5903,-3.5879,-3.5821,-3.5794,-3.5757,-3.5713,-3.5703,-3.5728,-3.577,-3.5799,-3.5788,-3.5795,-3.5861,-3.5891,-3.5897,-3.5965,-3.6008,-3.5996,-3.5994,-3.6303,-3.6958,-3.6976,-3.7288,-3.793,-3.8166,-3.8383,-3.8602,-3.8609,-3.8593,-3.8594,-3.8377,-3.8605,-3.9143,-3.8692,-3.8508,-3.8486,-3.8436,-3.8412,-3.8408,-3.8183,-3.8097,-3.8071,-3.7914,-3.748,-3.6971,0.0,0.0,0.0,0.0,0.0,0.0,0.0,0.0,0.0,0.0,0.0,-2.5615,-2.5615,-2.5595,-2.5568,-2.5506,-2.5498,0.0,0.0,0.0,0.0,0.0,0.0,0.0,0.0,0.0,0.0,0.0,0.0,0.0,-3.034,-3.0383,-3.041,-3.041,-3.041,-3.041,-3.041,-3.0406,-3.0439,-3.0567,-3.1409,-3.1738,-3.1831,-3.2701,-3.301,-3.2875,-3.2082,-3.1762,-3.1604,-3.0774,-3.0461,-3.0404,-3.0404,-3.0404,-3.0404,0.0,0.0,0.0,-3.1855,-3.3108,-3.441,-3.4477,-3.5103,-3.5708,-3.5708,-3.5713,-3.5717,-3.5788,-3.5866,-3.5908,-3.5908,-3.5908,-3.5885,-3.5817,-3.5742,-3.5699,-3.5693,-3.5707,-3.5698,-3.5704,-3.5766,-3.5788,-3.5795,-3.5852,-3.5892,-3.5898,-3.5962,-3.5995,-3.5992,-3.6008,-3.6022,-3.6072,-3.607,-3.6094,-3.6121,-3.6944,-3.7786,-3.8607,-3.859,-3.8592,-3.8572,-3.7734,-3.7381,-3.7478,-3.8188,-3.8495,-3.8493,-3.8429,-3.8436,-3.841,-3.7592,-3.7269,-3.7168,-3.6407,-3.6091,-3.6073,0.0,0.0,0.0,0.0,0.0,0.0,0.0,0.0,0.0,0.0,0.0,0.0,0.0,-2.5502,-2.5467,-2.5441,-2.54,0.0,0.0,0.0,0.0,0.0,0.0,0.0,0.0,0.0,0.0,0.0,0.0,-2.9561,-2.958,-3.014,-3.0404,-3.0404,-3.0404,-3.0404,-3.0404,-3.0442,-3.0474,-3.0586,-3.1458,-3.1806,-3.1966,-3.3383,-3.3596,-3.3126,-3.3383,-3.3111,-3.2499,-3.1628,-3.1287,-3.1145,-3.0583,-3.0404,-3.0404,-3.0404,-3.065,-3.1023,-3.1644,-3.2255,-3.2996,-3.4124,-3.4592,-3.4949,-3.5518,-3.5639,-3.5654,-3.5717,-3.5791,-3.583,-3.583,-3.5875,-3.5885,-3.5814,-3.5784,-3.5742,-3.5718,-3.5698,-3.5698,-3.5704,-3.5713,-3.5756,-3.5791,-3.5866,-3.5902,-3.59,-3.5966,-3.5996,-3.5992,-3.6007,-3.6001,-3.5992,-3.5998,-3.6003,-3.6009,-3.6305,-3.6618,-3.6931,-3.6933,-3.6933,-3.6914,-3.6601,-3.6465,-3.6484,-3.6771,-3.6898,-3.6889,-3.6824,-3.684,-3.6868,-3.6491,-3.6387,-3.6388,-3.6104,-3.5994,-3.5996,0.0,0.0,0.0,-2.6898,0.0,-2.5801,-2.5515,-2.5464,-2.5466,0.0,0.0,0.0,0.0,0.0,-2.5393,-2.5369,-2.5327,0.0,0.0,0.0,0.0,0.0,0.0,0.0,0.0,0.0,0.0,0.0,0.0,0.0,0.0,-2.9981,-3.0231,-2.9987,-3.0269,-3.0404,-3.0404,-3.0447,-3.0474,-3.0606,-3.1767,-3.2232,-3.243,-3.4176,-3.4485,-3.4016,-3.4297,-3.4011,-3.3321,-3.2174,-3.1755,-3.1548,-3.0666,-3.0404,-3.0404,-3.0404,-3.0402,-3.054,-3.116,-3.1549,-3.2034,-3.3189,-3.3873,-3.4426,-3.4996,-3.538,-3.5615,-3.5649,-3.5723,-3.5761,-3.577,-3.5826,-3.5834,-3.5782,-3.5788,-3.5775,-3.5708,-3.5703,-3.5698,-3.5704,-3.5713,-3.5741,-3.5795,-3.5869,-3.5919,-3.5929,-3.5971,-3.5996,-3.5991,-3.6007,-3.6002,-3.5996,-3.6003,-3.6009,-3.5992,-3.5995,-3.5995,-3.5995,-3.5996,-3.5996,-3.5996,-3.5996,-3.5996,-3.5996,-3.5996,-3.5994,-3.6008,-3.596,-3.5957,-3.6,-3.5956,-3.5962,-3.6009,-3.5992,-3.5995,-3.5996,-2.922,-2.9206,-2.8685,-2.7046,-2.6737,-2.6418,-2.5567,-2.5417,-2.5425,-2.5484,0.0,0.0,0.0,0.0,0.0,0.0,0.0,0.0,0.0,0.0,0.0,0.0,0.0,0.0,0.0,0.0,0.0,0.0,0.0,0.0,0.0,0.0,-2.991,-2.9107,-2.9962,-3.0365,-3.0365,-3.0381,-3.0433,-3.0639,-3.2408,-3.3111,-3.33,-3.5046,-3.5704,-3.5588,-3.4742,-3.4392,-3.4094,-3.2425,-3.1813,-3.1586,-3.0685,-3.0404,-3.0404,-3.0404,-3.0404,-3.0404,0.0,0.0,0.0,-3.1698,-3.291,-3.4135,-3.4167,-3.4898,-3.5558,-3.5557,-3.5648,-3.5693,-3.5699,-3.5742,-3.577,-3.5747,-3.5766,-3.5775,-3.5713,-3.5708,-3.5698,-3.5704,-3.5766,-3.5791,-3.5797,-3.586,-3.5921,-3.5984,-3.5995,-3.5995,-3.5991,-3.6007,-3.6004,-3.6005,-3.6009,-3.5992,-3.5995,-3.5996,-3.5996,-3.5996,-3.5996,-3.5996,-3.5996,-3.5996,-3.5996,-3.5996,-3.5996,-3.5996,-3.5995,-3.5992,-3.5991,-3.5991,-3.5991,-3.5993,-3.5995,-3.5995,-3.5996,-3.5995,-2.9952,-2.9572,-2.8975,-2.8513,-2.7435,-2.6549,-2.6304,-2.5764,-2.5416,0.0,0.0,0.0,-2.5397,-2.5928,0.0,0.0,0.0,0.0,0.0,0.0,0.0,0.0,0.0,0.0,0.0,0.0,0.0,0.0,0.0,0.0,0.0,0.0,0.0,-2.828,-2.9083,-2.9467,-2.9492,-3.0177,-3.0474,-3.0644,-3.2405,-3.3102,-3.33,-3.5046,-3.5704,-3.5665,-3.5438,-3.5336,-3.5151,-3.3978,-3.3178,-3.2372,-3.0864,-3.0404,-3.0404,-3.0404,-3.0404,-3.0404,-3.0404,0.0,0.0,0.0,0.0,0.0,-3.3185,-3.4011,-3.4664,-3.466,-3.5215,-3.5701,-3.5706,-3.5713,-3.5941,-3.655,-3.6173,-3.5782,-3.5778,-3.5722,-3.5723,-3.577,-3.5799,-3.5818,-3.5872,-3.5892,-3.5929,-3.5988,-3.5996,-3.5995,-3.5994,-3.5991,-3.5991,-3.5993,-3.5994,-3.5995,-3.5996,-3.5996,-3.5996,-3.5996,-3.5996,-3.5996,-3.5996,-3.5996,-3.5996,-3.5996,-3.5996,-3.5996,-3.5996,-3.5996,-3.5996,-3.5996,-3.5996,-3.5996,-3.5996,-3.5996,-3.5996,-3.5996,-3.0231,-2.9981,-2.9525,-2.9165,-2.8299,-2.7409,-2.6717,-2.6501,-2.6304,0.0,0.0,0.0,-2.6439,-2.6862,0.0,0.0,0.0,0.0,0.0,0.0,0.0,-2.5308,-2.6621,-2.7525,0.0,0.0,0.0,0.0,0.0,0.0,0.0,0.0,0.0,-2.7934,-2.8742,-2.9107,-2.9171,-3.0097,-3.0504,-3.0644,-3.239,-3.3107,-3.33,-3.5046,-3.5704,-3.5704,-3.5704,-3.5704,-3.5568,-3.4632,-3.3473,-3.2289,-3.1249,-3.0692,-3.0404,-3.0404,-3.0404,-3.0404,-3.0404,-3.0404,-3.0519,-3.1019,0.0,0.0,-3.2338,-3.312,-3.3766,-3.3765,-3.4469,-3.5115,-3.5126,-3.54,-3.5827,-3.6361,-3.6062,-3.5881,-3.625,-3.5946,-3.5723,-3.5799,-3.5801,-3.5827,-3.59,-3.5931,-3.5961,-3.5992,-3.5996,-3.5995,-3.5995,-3.5993,-3.5992,-3.5995,-3.5995,-3.5995,-3.5996,-3.5996,-3.5996,-3.5996,-3.5996,-3.5996,-3.5996,-3.5996,-3.5996,-3.5996,-3.5996,-3.5996,-3.5996,-3.5996,-3.5996,-3.5996,-3.5996,-3.5996,-3.5996,-3.5996,-3.5996,-3.5996,0.0,-3.0404,-3.0154,-2.9371,-2.9165,-2.8607,-2.7101,-2.7467,-2.7621,0.0,0.0,0.0,-2.7895,-2.7972,0.0,0.0,0.0,0.0,0.0,0.0,0.0,-2.5308,-2.6135,-2.7005,0.0,0.0,0.0,0.0,0.0,0.0,0.0,0.0,0.0,0.0,-2.8607,-2.8973,-2.9036,-3.0053,-3.0504,-3.0644,-3.239,-3.3107,-3.33,-3.5046,-3.5704,-3.5704,-3.5704,-3.5704,-3.5568,-3.4627,-3.3269,-3.1977,-3.1864,-3.1288,-3.0673,-3.0673,-3.0615,-3.0558,-3.0654,-3.0538,-3.0423,-3.0519,-3.1058,0.0,-3.1564,-3.2223,-3.2869,-3.2869,-3.3548,-3.4195,-3.4287,-3.4928,-3.5535,-3.5794,-3.5761,-3.6009,-3.6886,-3.6323,-3.5907,-3.6071,-3.6005,-3.5963,-3.6043,-3.6028,-3.6009,-3.5995,-3.5996,-3.5996,-3.5995,-3.5993,-3.5993,-3.5995,-3.5995,-3.5995,-3.5996,-3.5996,-3.5996,-3.5996,-3.5996,-3.5996,-3.5996,-3.5996,-3.5996,-3.5996,-3.5996,-3.5996,-3.5996,-3.5996,-3.5996,-3.5996,-3.5996,-3.5996,-3.5996,-3.5996,-3.5996,-3.5996,-3.0231,-3.0404,-3.0346,-3.0173,-2.9563,-2.8992,-2.8665,-2.8203,-2.7838,-2.7659,-2.7799,-2.7895,-2.7895,-2.8472,-2.8607,0.0,0.0,0.0,0.0,0.0,-2.6038,-2.5327,-2.6135,-2.7005,-2.7876,-2.8684,0.0,0.0,0.0,0.0,0.0,0.0,0.0,0.0,-2.7755,-2.8126,-2.8242,-2.9827,-3.0504,-3.0644,-3.239,-3.3107,-3.33,-3.5046,-3.5704,-3.5704,-3.5704,-3.5704,-3.5563,-3.4623,-3.4073,-3.367,-3.2891,-3.2545,-3.241,-3.241,-3.1948,-3.1583,-3.2237,-3.1423,-3.0577,-3.1269,-3.1058,0.0,-3.0654,-3.1338,-3.1958,-3.1958,-3.2642,-3.3462,-3.4171,-3.4433,-3.5024,-3.6444,-3.6121,-3.6007,-3.6881,-3.6847,-3.7022,-3.7791,-3.7269,-3.6878,-3.6943,-3.6364,-3.6009,-3.5996,-3.5996,-3.5996,-3.5996,-3.5996,-3.5996,-3.5996,-3.5996,-3.5996,-3.5996,-3.5996,-3.5996,-3.5996,-3.5996,-3.5996,-3.5996,-3.5996,-3.5996,-3.5996,-3.5996,-3.5996,-3.5996,-3.5996,-3.5996,-3.5996,-3.5996,-3.5996,-3.5996,-3.5996,-3.5996,-3.5996,-3.0308,-3.0404,-3.0404,-3.0404,-3.0038,-2.9602,-2.9165,-2.9121,-2.8986,-2.8569,-2.8871,-2.9159,-2.9159,-2.9506,-2.9583,-2.9179,-2.9121,0.0,-2.789,-2.7063,-2.6409,-2.5962,-2.5942,-2.6365,-2.7236,-2.8068,0.0,0.0,0.0,0.0,0.0,0.0,0.0,0.0,-2.8299,-2.8492,-2.8588,-2.9883,-3.0469,-3.0606,-3.1927,-3.2449,-3.2643,-3.4389,-3.5051,-3.511,-3.553,-3.5704,-3.5621,-3.5114,-3.4652,-3.4216,-3.3705,-3.3256,-3.2891,-3.2891,-3.2602,-3.2391,-3.2795,-3.2295,-3.1756,-3.2199,-3.1968,0.0,0.0,-3.1672,-3.1703,-3.1703,-3.2042,-3.249,-3.2929,-3.3352,-3.4088,-3.5392,-3.5292,-3.5502,-3.6767,-3.6982,-3.7342,-3.8248,-3.7996,-3.777,-3.7849,-3.7112,-3.646,-3.6035,-3.5996,-3.5996,-3.5996,-3.5996,-3.5996,-3.5996,-3.5996,-3.5996,-3.5996,-3.5996,-3.5996,-3.5996,-3.5996,-3.5996,-3.5996,-3.5996,-3.5996,-3.5996,-3.5996,-3.5996,-3.5996,-3.5996,-3.5996,-3.5996,-3.5996,-3.5996,-3.5996,-3.5996,-3.5996,-3.5996,-3.0373,-3.0398,-3.0404,-3.0404,-3.0404,-3.0154,-2.9467,-2.9948,-3.0154,-2.9429,-2.9967,-3.0404,-3.0404,-3.0404,-3.0404,-3.0404,-2.9756,-2.928,-2.9107,-2.7832,-2.7005,-2.6851,-2.6168,-2.6182,-2.7052,-2.7758,0.0,0.0,0.0,0.0,0.0,0.0,-2.9107,-2.9107,-2.9102,-2.9096,-2.9154,-3.0023,-3.0417,-3.0521,-3.1249,-3.1647,-3.1985,-3.3736,-3.4394,-3.451,-3.54,-3.5704,-3.5698,-3.5616,-3.5134,-3.4544,-3.4475,-3.3968,-3.341,-3.341,-3.3276,-3.3179,-3.3353,-3.316,-3.2949,-3.3103,-3.3026,-3.2891,0.0,0.0,0.0,-3.1929,-3.1814,-3.1743,-3.1914,-3.2391,-3.3062,-3.3939,-3.4257,-3.4935,-3.6458,-3.6859,-3.7327,-3.82,-3.8377,-3.8447,-3.8497,-3.776,-3.6931,-3.6074,-3.5996,-3.5996,-3.5996,-3.5996,-3.5996,-3.5996,-3.5996,-3.5996,-3.5996,-3.5996,-3.5996,-3.5996,-3.5996,-3.5996,-3.5996,-3.5996,-3.5996,-3.5996,-3.5996,-3.5996,-3.5996,-3.5995,-3.5995,-3.5994,-3.5995,-3.5996,-3.5996,-3.5996,-3.5996,-3.5996,-3.0304,-3.0367,-3.0404,-3.0404,-3.0404,-3.0365,-3.0269,-3.0346,-3.0365,-3.0269,-3.0346,-3.0404,-3.0404,-3.0404,-3.0404,-3.0404,-3.0308,-2.9929,-2.9146,-2.8915,-2.8511,-2.778,-2.7594,-2.7923,-2.8793,-2.8853,0.0,0.0,0.0,0.0,0.0,0.0,-2.9107,-2.9107,-2.9093,-2.91,-2.9158,-2.9971,-3.0322,-3.0348,-3.0502,-3.1055,-3.1985,-3.3736,-3.4394,-3.451,-3.54,-3.5704,-3.5698,-3.5616,-3.554,-3.545,-3.5373,-3.5288,-3.5192,-3.5192,-3.4661,-3.4218,-3.4981,-3.4083,-3.3083,-3.3859,-3.3468,-3.2891,-3.2891,0.0,-3.2756,-3.2756,0.0,-3.1941,-3.2709,0.0,0.0,-3.3089,-3.3895,-3.4742,-3.5704,-3.651,-3.7312,-3.8199,-3.8415,-3.8483,-3.8509,-3.7769,-3.6933,-3.6074,-3.5996,-3.5996,-3.5996,-3.5996,-3.5996,-3.5996,-3.5996,-3.5996,-3.5996,-3.5996,-3.5996,-3.5996,-3.5996,-3.5996,-3.5996,-3.5996,-3.5996,-3.5996,-3.5996,-3.5996,-3.5995,-3.5995,-3.5994,-3.5992,-3.5992,-3.5993,-3.5995,-3.5995,-3.5996,-3.5996,-3.0292,-3.0316,-3.0348,-3.0379,-3.0404,-3.0404,-3.0404,-3.0404,-3.0404,-3.0404,-3.0846,-3.1154,-3.1154,-3.1558,-3.1852,-3.1852,-3.1853,-3.1475,-3.0617,-3.008,-2.9422,-2.8579,-2.8024,-2.7904,-2.8211,-2.8696,-2.913,0.0,-3.0011,0.0,0.0,0.0,-2.9799,-2.9793,-2.9756,-2.973,-2.9755,-3.01,-3.0215,-3.0183,-3.0311,-3.0877,-3.178,-3.2573,-3.3513,-3.451,-3.54,-3.5704,-3.5698,-3.5616,-3.5598,-3.5585,-3.5527,-3.55,-3.55,-3.55,-3.5231,-3.5026,-3.5404,-3.4962,-3.45,-3.4853,-3.468,-3.4404,-3.4404,-3.4026,-3.3641,-3.3641,0.0,0.0,0.0,0.0,0.0,0.0,-3.265,-3.3204,-3.4075,-3.4531,-3.5674,-3.801,-3.8373,-3.8272,-3.7845,-3.7495,-3.6933,-3.6074,-3.5996,-3.5996,-3.5996,-3.5996,-3.5996,-3.5996,-3.5996,-3.5996,-3.5996,-3.5996,-3.5996,-3.5996,-3.5996,-3.5996,-3.5996,-3.5996,-3.5996,-3.5996,-3.5996,-3.5996,-3.5995,-3.5993,-3.5991,-3.6007,-3.6003,-3.6007,-3.5993,-3.5994,-3.5995,-3.5996,-3.0228,-3.026,-3.0316,-3.0398,-3.0404,-3.0404,-3.0404,-3.0596,-3.075,-3.075,-3.1506,-3.2019,-3.2032,-3.2551,-3.2891,-3.2846,-3.2845,-3.2568,-3.1922,-3.1275,-3.0532,-2.9676,-2.8992,-2.8507,-2.8244,-2.886,-2.9205,0.0,0.0,0.0,0.0,0.0,-3.0273,-3.026,-3.0194,-3.0278,-3.0456,-3.0449,-3.0548,-3.0693,-3.082,-3.1288,-3.1975,-3.2342,-3.3425,-3.4839,-3.5477,-3.5704,-3.5698,-3.5628,-3.5604,-3.5585,-3.5521,-3.5481,-3.5467,-3.5467,-3.5467,-3.5467,-3.5467,-3.5493,-3.55,-3.55,-3.55,-3.55,-3.55,-3.5007,-3.4564,-3.4564,-3.3853,0.0,0.0,0.0,-3.1719,-3.1761,0.0,-3.2028,-3.2658,-3.2982,-3.4104,-3.6636,-3.7416,-3.7637,-3.7337,-3.7298,-3.6932,-3.6073,-3.6211,-3.625,-3.6016,-3.623,-3.625,-3.6016,-3.5996,-3.5996,-3.5996,-3.5996,-3.5996,-3.5996,-3.5996,-3.5996,-3.5996,-3.5996,-3.5996,-3.5996,-3.5996,-3.5996,-3.5994,-3.5992,-3.6008,-3.6001,-3.5995,-3.5999,-3.6008,-3.5993,-3.5994,-3.5995,-3.0087,-3.0215,-3.0316,-3.0398,-3.0404,-3.0404,-3.0404,-3.1115,-3.166,-3.166,-3.2352,-3.2859,-3.2865,-3.2878,-3.2851,-3.2716,-3.2701,-3.2672,-3.2569,-3.2542,-3.2137,-3.1259,-3.1084,-3.0625,-2.9848,-2.9853,-2.9897,-2.9977,-3.0053,0.0,0.0,0.0,0.0,0.0,-3.014,-3.0459,-3.1073,-3.1076,-3.1477,-3.2128,-3.2284,-3.25,-3.2878,-3.3855,-3.4812,-3.5665,-3.5684,-3.5704,-3.5684,-3.5612,-3.5602,-3.5591,-3.5515,-3.5456,-3.5405,-3.5405,-3.5405,-3.5405,-3.5405,-3.5453,-3.55,-3.55,-3.55,-3.55,-3.55,-3.5481,-3.5462,-3.5462,-3.4776,-3.4148,-3.4129,-3.2787,-3.1707,-3.1688,-3.1763,0.0,0.0,-3.258,-3.3184,-3.3428,-3.5005,-3.6394,-3.7223,-3.7298,-3.6932,-3.6073,-3.6777,-3.6894,-3.6055,-3.6797,-3.6875,-3.6035,-3.5996,-3.5996,-3.5996,-3.5996,-3.5996,-3.5996,-3.5996,-3.5996,-3.5996,-3.5996,-3.5996,-3.5996,-3.5996,-3.5995,-3.5991,-3.5991,-3.6005,-3.5992,-3.5992,-3.5992,-3.5995,-3.6008,-3.5993,-3.5995,-2.9886,-3.0015,-3.0147,-3.0317,-3.0373,-3.0596,-3.1173,-3.1968,-3.2487,-3.2487,-3.3199,-3.3895,-3.4422,-3.4925,-3.5406,-3.5912,-3.5826,-3.5286,-3.4186,-3.3989,-3.3308,-3.1902,-3.1732,-3.1551,-3.122,-3.0753,-3.0528,-3.06,-3.0164,0.0,0.0,0.0,0.0,0.0,-2.9951,-3.0294,-3.0959,-3.1007,-3.1459,-3.2211,-3.3003,-3.3451,-3.3714,-3.4147,-3.4508,-3.485,-3.5486,-3.5704,-3.5684,-3.5612,-3.5602,-3.5585,-3.5521,-3.5415,-3.5323,-3.5339,-3.5289,-3.5273,-3.5324,-3.5358,-3.5373,-3.5364,-3.5405,-3.5427,-3.5427,-3.546,-3.55,-3.55,-3.5269,-3.4872,-3.4321,-3.3731,-3.3185,-3.2651,-3.2097,-3.1744,0.0,-3.1626,-3.1744,-3.2377,-3.3994,-3.5209,-3.5555,-3.6103,-3.6324,-3.6012,-3.6816,-3.6914,-3.6055,-3.6836,-3.6894,-3.6035,-3.5996,-3.5996,-3.5996,-3.5996,-3.5996,-3.5996,-3.5996,-3.5996,-3.5996,-3.5996,-3.5996,-3.5995,-3.5995,-3.5993,-3.6007,-3.6007,-3.6002,-3.5992,-3.5992,-3.5996,-3.6002,-3.6009,-3.5992,-3.5993,-2.9698,-3.0084,-3.0361,-3.0286,-3.0573,-3.1129,-3.1987,-3.2833,-3.3353,-3.334,-3.4299,-3.5162,-3.564,-3.6332,-3.6948,-3.7423,-3.7299,-3.6721,-3.5652,-3.5165,-3.4308,-3.2913,-3.2504,-3.2169,-3.1846,-3.1368,-3.1013,-3.0788,-3.0415,-3.0115,0.0,0.0,0.0,0.0,-2.9816,-3.0349,-3.1336,-3.1374,-3.2002,-3.3033,-3.3884,-3.4339,-3.4541,-3.4674,-3.4737,-3.4834,-3.545,-3.5679,-3.5684,-3.5612,-3.5577,-3.5547,-3.5455,-3.5342,-3.5211,-3.5193,-3.516,-3.5143,-3.5168,-3.5193,-3.519,-3.5211,-3.5278,-3.5335,-3.5357,-3.5412,-3.5467,-3.55,-3.55,-3.5327,-3.4776,-3.4417,-3.4039,-3.35,-3.2722,-3.2089,0.0,-3.1138,-3.0889,-3.1476,-3.3106,-3.4318,-3.4662,-3.5498,-3.5992,-3.5992,-3.6816,-3.6914,-3.6055,-3.6836,-3.6894,-3.6035,-3.5996,-3.5996,-3.5996,-3.5996,-3.5996,-3.5996,-3.5996,-3.5996,-3.5996,-3.5996,-3.5995,-3.5994,-3.5994,-3.5991,-3.6004,-3.6004,-3.6,-3.5992,-3.5992,-3.5998,-3.6005,-3.6009,-3.5992,-3.5994,-2.9625,-3.0471,-3.0995,-3.0515,-3.1129,-3.2007,-3.2821,-3.3692,-3.4224,-3.4164,-3.5572,-3.6548,-3.6458,-3.7043,-3.7417,-3.7321,-3.7178,-3.703,-3.6858,-3.6069,-3.5225,-3.4346,-3.3518,-3.2686,-3.1885,-3.1841,-3.1455,-3.0703,-3.0757,-3.0453,0.0,0.0,0.0,0.0,-2.9719,-3.0592,-3.209,-3.2103,-3.3041,-3.4561,-3.4879,-3.5126,-3.5308,-3.5458,-3.5547,-3.5601,-3.5601,-3.5637,-3.5679,-3.5631,-3.5559,-3.5463,-3.5345,-3.5195,-3.507,-3.502,-3.4992,-3.4983,-3.4983,-3.4982,-3.5008,-3.5079,-3.5141,-3.5198,-3.5285,-3.5357,-3.542,-3.5493,-3.55,-3.55,-3.55,-3.4814,-3.4263,-3.4263,-3.3596,-3.2758,-3.1917,-3.114,-3.069,-3.0759,-3.2283,-3.3655,-3.45,-3.5406,-3.5936,-3.5936,-3.6777,-3.6914,-3.6055,-3.6836,-3.6894,-3.6035,-3.5996,-3.5996,-3.5996,-3.5996,-3.5996,-3.5996,-3.5996,-3.5996,-3.5995,-3.5995,-3.5993,-3.5991,-3.5991,-3.6008,-3.6004,-3.6004,-3.6,-3.5992,-3.5992,-3.5998,-3.6005,-3.6009,-3.5994,-3.5996,-3.0421,-3.124,-3.2345,-3.3439,-3.3492,-3.3458,-3.3676,-3.445,-3.5005,-3.4998,-3.5802,-3.6557,-3.709,-3.7708,-3.8261,-3.8709,-3.859,-3.8214,-3.758,-3.723,-3.6699,-3.5859,-3.5584,-3.5032,-3.4173,-3.3618,-3.2982,-3.2236,-3.1132,-3.0543,-3.0439,0.0,0.0,0.0,-2.955,-3.0478,-3.2173,-3.2164,-3.3261,-3.4955,-3.5081,-3.5198,-3.53,-3.5398,-3.5475,-3.554,-3.5578,-3.5616,-3.5616,-3.5547,-3.545,-3.5345,-3.5246,-3.5062,-3.4879,-3.4859,-3.478,-3.471,-3.4769,-3.479,-3.4801,-3.487,-3.4963,-3.5069,-3.5198,-3.532,-3.542,-3.5493,-3.55,-3.55,-3.55,-3.5327,-3.5173,-3.5173,-3.4449,-3.3401,-3.2002,-3.1669,-3.1587,-3.167,-3.2126,-3.2518,-3.2741,-3.4137,-3.5038,-3.5038,-3.6445,-3.6914,-3.6055,-3.6836,-3.6894,-3.6035,-3.5996,-3.5996,-3.5996,-3.5996,-3.5996,-3.5996,-3.5996,-3.5996,-3.5995,-3.5995,-3.5992,-3.6006,-3.6006,-3.6002,-3.5996,-3.5996,-3.5994,-3.5992,-3.5992,-3.6,-3.6009,-3.5993,-3.5995,-3.5996,-3.1151,-3.223,-3.3769,-3.5459,-3.5531,-3.538,-3.5505,-3.595,-3.6238,-3.6175,-3.6787,-3.7358,-3.7709,-3.8277,-3.8792,-3.9146,-3.9021,-3.8722,-3.8278,-3.7794,-3.7349,-3.6908,-3.6515,-3.6064,-3.5573,-3.4775,-3.4021,-3.3276,-3.1744,-3.0847,-3.0599,0.0,0.0,0.0,-2.9472,-3.0487,-3.2288,-3.3119,-3.4137,-3.5187,-3.5234,-3.5278,0.0,-3.5412,-3.5481,-3.5502,-3.5502,-3.5528,-3.5547,-3.5456,-3.5345,-3.5231,-3.5044,-3.4879,-3.474,-3.4636,-3.4561,-3.4517,-3.455,-3.4602,-3.4645,-3.474,-3.486,-3.5009,-3.5201,-3.5312,-3.5427,-3.5521,-3.5534,-3.5528,-3.5515,-3.5489,-3.5501,-3.55,-3.4764,-3.3897,-3.3018,-3.2653,-3.2481,-3.2561,-3.2591,-3.264,-3.2674,-3.3899,-3.4705,-3.4706,-3.5956,-3.6523,-3.6035,-3.6465,-3.6504,-3.6016,-3.5996,-3.5996,-3.5996,-3.5996,-3.5996,-3.5996,-3.5996,-3.5996,-3.5995,-3.5994,-3.5991,-3.6004,-3.6001,-3.5996,-3.5992,-3.5996,-3.5998,-3.5999,-3.6003,-3.6009,-3.5993,-3.5995,-3.5996,-3.5996,-3.2327,-3.3625,-3.5226,-3.6844,-3.7183,-3.7344,-3.7675,-3.7555,-3.7383,-3.728,-3.7909,-3.8298,-3.8166,-3.8699,-3.9064,-3.8979,-3.8866,-3.8792,-3.8792,-3.8073,-3.7658,-3.7658,-3.6997,-3.656,-3.645,-3.561,-3.4812,-3.4039,-3.2404,-3.1246,-3.0613,0.0,0.0,0.0,-2.9565,-3.0705,-3.2609,-3.4369,-3.519,-3.5308,-3.5327,-3.5364,-3.542,-3.5486,-3.55,-3.5493,-3.542,-3.5429,-3.545,-3.533,-3.5231,-3.5107,-3.4793,-3.468,-3.4623,-3.445,-3.4393,-3.4393,-3.4393,-3.4439,-3.4517,-3.4655,-3.4791,-3.4973,-3.5237,-3.5354,-3.5448,-3.5579,-3.5598,-3.5591,-3.5522,-3.5515,-3.5502,-3.5501,-3.4873,-3.4365,-3.4312,-3.3755,-3.338,-3.3448,-3.3354,0.0,-3.3557,-3.4262,-3.4702,-3.4705,-3.5506,-3.5995,-3.5996,-3.5996,-3.5996,-3.5996,-3.5996,-3.5996,-3.5996,-3.5996,-3.5996,-3.5996,-3.5996,-3.5996,-3.5995,-3.5993,-3.6009,-3.6005,-3.5999,-3.5995,-3.5996,-3.6003,-3.6005,-3.6006,-3.5993,-3.5995,-3.5995,-3.5996,-3.5996,-3.5996,-3.5729,-3.6099,-3.6702,-3.7653,-3.7885,-3.8159,-3.8814,-3.7882,-3.7081,-3.7058,-3.7654,-3.8044,-3.7952,-3.854,-3.8906,-3.8851,-3.8765,-3.8723,-3.8723,-3.856,-3.8487,-3.8487,-3.8358,-3.7973,-3.7309,-3.6486,-3.5661,-3.4816,-3.2548,-3.1403,-3.1304,0.0,0.0,-2.9351,-3.0087,-3.154,-3.3539,-3.4759,-3.5308,-3.5391,-3.5446,-3.5467,-3.5474,-3.55,-3.55,-3.5493,-3.542,-3.5379,-3.5304,-3.5179,-3.5053,-3.4908,-3.4751,-3.4583,-3.442,-3.434,-3.4316,-3.4316,-3.4316,-3.4381,-3.445,-3.4572,-3.4761,-3.4964,-3.5176,-3.5354,-3.5494,-3.5579,-3.5598,-3.5598,-3.5572,-3.5591,-3.5585,-3.5579,-3.545,-3.5115,-3.4392,-3.4239,-3.4206,-3.4284,-3.3703,-3.3612,-3.4406,-3.4601,-3.4693,-3.4702,-3.5504,-3.5994,-3.5996,-3.5996,-3.5996,-3.5996,-3.5996,-3.5996,-3.5996,-3.5996,-3.5996,-3.5996,-3.5996,-3.5996,-3.5995,-3.5994,-3.5993,-3.6009,-3.6009,-3.6009,-3.6009,-3.6009,-3.6009,-3.5991,-3.5994,-3.5995,-3.5995,-3.5996,-3.5996,-3.5996,-3.719,-3.7291,-3.7578,-3.8417,-3.8566,-3.8701,-3.9031,-3.8432,-3.7952,-3.8018,-3.8284,-3.8433,-3.8362,-3.863,-3.8795,-3.875,-3.8723,-3.8707,-3.8707,-3.8707,-3.8707,-3.8707,-3.8707,-3.8524,-3.812,-3.7327,-3.6505,-3.5665,-3.3642,-3.2236,-3.1434,-3.0203,-2.9494,-2.9304,-3.0813,-3.2364,-3.3914,-3.4933,-3.5379,-3.5453,-3.5493,-3.55,-3.55,-3.55,-3.55,-3.5493,-3.5379,-3.5285,-3.5179,-3.5089,-3.4954,-3.4812,-3.4615,-3.4484,-3.4374,-3.4281,-3.4269,-3.4293,-3.4293,-3.4363,-3.4484,-3.4623,-3.4801,-3.5001,-3.5207,-3.5379,-3.5406,-3.5048,-3.4988,-3.4847,-3.438,-3.4633,-3.4936,-3.4936,-3.532,-3.5454,-3.5021,-3.5023,-3.5103,-3.5172,-3.4457,-3.4333,-3.5225,-3.4934,-3.4703,-3.4701,-3.5503,-3.5993,-3.5996,-3.6426,-3.6465,-3.6016,-3.6445,-3.6465,-3.5996,-3.5996,-3.5996,-3.5996,-3.5996,-3.5996,-3.5996,-3.5995,-3.5994,-3.5993,-3.5992,-3.5991,-3.5991,-3.5993,-3.5994,-3.5995,-3.5995,-3.5996,-3.5996,-3.5996,-3.5996,-3.5996,-3.7988,-3.8076,-3.8252,-3.8934,-3.9021,-3.8964,-3.895,-3.8881,-3.8837,-3.8935,-3.8896,-3.8837,-3.8777,-3.8735,-3.8707,-3.8707,-3.8707,-3.8707,-3.8707,-3.8707,-3.8707,-3.8707,-3.8707,-3.8707,-3.8707,-3.7915,-3.7199,-3.6556,-3.4688,-3.3146,-3.1892,-3.0931,-3.0328,-3.0131,-3.2005,-3.3472,-3.456,-3.5327,-3.5689,-3.5731,-3.5577,-3.55,-3.55,-3.55,-3.55,-3.5474,-3.5357,-3.5211,-3.5088,-3.5001,-3.4889,-3.4722,-3.4476,-3.4386,-3.4351,-3.4233,-3.4257,-3.4316,-3.4316,-3.4427,-3.4539,-3.4666,-3.4849,-3.5028,-3.5239,-3.5381,-3.5265,-3.4536,-3.4234,-3.3919,-3.323,-3.3614,-3.4041,-3.4041,-3.4623,-3.5071,-3.5071,-3.5296,-3.5466,-3.5527,-3.4975,-3.4931,-3.5819,-3.5162,-3.4779,-3.4956,-3.5601,-3.5993,-3.5996,-3.6836,-3.6894,-3.6035,-3.6855,-3.6875,-3.6015,-3.5996,-3.5996,-3.5996,-3.5996,-3.5996,-3.5996,-3.5996,-3.5995,-3.5995,-3.5994,-3.5993,-3.5993,-3.5995,-3.5996,-3.5996,-3.5996,-3.5996,-3.5996,-3.5996,-3.5996,-3.5996,-3.8795,-3.8795,-3.8814,-3.8888,-3.8906,-3.8896,-3.8837,-3.8807,-3.8807,-3.8822,-3.8765,-3.8723,-3.8723,-3.8707,-3.8707,-3.8707,-3.8707,-3.8707,-3.8707,-3.8707,-3.8707,-3.8707,-3.8707,-3.8707,-3.8707,-3.7915,-3.7456,-3.7382,-3.4995,-3.3715,-3.3532,-3.2065,-3.1902,-3.2873,-3.4108,-3.522,-3.6179,-3.6407,-3.6538,-3.6519,-3.5788,-3.55,-3.55,-3.55,-3.55,-3.5474,-3.5357,-3.5211,-3.5079,-3.4945,-3.4781,-3.4594,-3.445,-3.4351,-3.4293,-3.4221,-3.4293,-3.4386,-3.4386,-3.4495,-3.4612,-3.4676,-3.482,-3.4964,-3.5157,-3.5312,-3.5192,-3.4463,-3.3729,-3.3204,-3.3121,-3.3155,-3.3213,-3.3213,-3.3276,-3.3334,-3.3334,-3.4066,-3.4617,-3.462,-3.4607,-3.4937,-3.5823,-3.5168,-3.503,-3.5819,-3.5953,-3.5993,-3.5996,-3.6835,-3.6893,-3.6034,-3.6852,-3.6871,-3.6014,-3.5995,-3.5995,-3.5996,-3.5996,-3.5996,-3.5996,-3.5996,-3.5996,-3.5996,-3.5996,-3.5996,-3.5996,-3.5996,-3.5996,-3.5996,-3.5996,-3.5996,-3.5996,-3.5996,-3.5996,-3.5996,-3.8877,-3.8881,-3.8848,-3.8877,-3.8881,-3.8837,-3.8807,-3.878,-3.8735,-3.8735,-3.8723,-3.8707,-3.8707,-3.8707,-3.8707,-3.8707,-3.8707,-3.8707,-3.8707,-3.8707,-3.8707,-3.8707,-3.8707,-3.8707,-3.8707,-3.8377,-3.7988,-3.7492,-3.6519,-3.5514,-3.4509,-3.396,-3.4093,-3.4786,-3.5416,-3.6264,-3.7241,-3.7348,-3.7417,-3.745,-3.7142,-3.7007,-3.7007,-3.7007,-3.7007,-3.7,-3.6884,-3.6771,-3.6637,-3.6502,-3.5632,-3.4591,-3.445,-3.4351,-3.4281,-3.4221,-3.4269,-3.434,-3.434,-3.4416,-3.4506,-3.4623,-3.4701,-3.4832,-3.5025,-3.5187,-3.4935,-3.3717,-3.2466,-3.1599,-3.1599,-3.1985,-3.2314,-3.2314,-3.2759,-3.3093,-3.3108,-3.347,-3.3727,-3.3775,-3.3384,-3.3648,-3.5038,-3.4417,-3.4507,-3.5897,-3.5994,-3.5995,-3.5996,-3.6835,-3.6893,-3.6034,-3.6852,-3.6871,-3.6014,-3.5995,-3.5995,-3.5996,-3.5996,-3.5996,-3.5996,-3.5996,-3.5996,-3.5996,-3.5996,-3.5996,-3.5996,-3.5996,-3.5996,-3.5996,-3.5996,-3.5996,-3.5996,-3.5996,-3.5996,-3.5996,-3.8837,-3.8792,-3.8777,-3.8837,-3.8792,-3.8762,-3.8762,-3.8719,-3.8707,-3.8707,-3.8707,-3.8707,-3.8707,-3.8707,-3.8707,-3.8707,-3.8707,-3.8707,-3.8707,-3.8707,-3.8707,-3.8707,-3.8707,-3.8707,-3.8707,-3.8707,-3.8414,-3.786,-3.7621,-3.689,-3.5734,-3.5666,-3.5832,-3.6208,-3.6704,-3.7405,-3.8191,-3.8227,-3.8308,-3.8354,-3.8104,-3.8007,-3.8007,-3.8007,-3.8007,-3.7981,-3.7924,-3.7819,-3.7702,-3.7604,-3.6573,-3.5292,-3.491,-3.4556,-3.4281,-3.4221,-3.4245,-3.4293,-3.4293,-3.434,-3.4409,-3.4517,-3.4586,-3.4693,-3.487,-3.5043,-3.4714,-3.3205,-3.1849,-3.0844,-3.0603,-3.1028,-3.1415,-3.1444,-3.1966,-3.2459,-3.2716,-3.3018,-3.332,-3.364,-3.3195,-3.3452,-3.4938,-3.4289,-3.4393,-3.5898,-3.5995,-3.5996,-3.5996,-3.6835,-3.6893,-3.6034,-3.6852,-3.6871,-3.6014,-3.5995,-3.5995,-3.5996,-3.5996,-3.5996,-3.5996,-3.5996,-3.5996,-3.5996,-3.5996,-3.5996,-3.5996,-3.5996,-3.5996,-3.5996,-3.5996,-3.5996,-3.5996,-3.5996,-3.5996,-3.5996,-3.8707,-3.8707,-3.8707,-3.8707,-3.8707,-3.8707,-3.8707,-3.8707,-3.8707,-3.8707,-3.8707,-3.8707,-3.8707,-3.8707,-3.8707,-3.8707,-3.8707,-3.8707,-3.8707,-3.8707,-3.8707,-3.8707,-3.8707,-3.8707,-3.8707,-3.8707,-3.8707,-3.8689,-3.7896,-3.7492,-3.7456,-3.6924,-3.6827,-3.7134,-3.8199,-3.8822,-3.908,-3.9095,-3.9169,-3.9207,-3.8354,-3.8007,-3.8007,-3.8007,-3.8007,-3.7981,-3.7924,-3.7862,-3.7781,-3.7724,-3.7461,-3.6982,-3.6012,-3.506,-3.4281,-3.4221,-3.4245,-3.4293,-3.4293,-3.434,-3.4386,-3.4397,-3.4461,-3.455,-3.4682,-3.486,-3.4596,-3.3185,-3.2241,-3.1444,-3.0645,-3.0515,-3.0545,-3.0593,-3.0617,-3.0936,-3.1791,-3.2658,-3.3538,-3.4464,-3.4629,-3.5013,-3.5892,-3.5194,-3.5059,-3.5937,-3.5996,-3.5996,-3.5996,-3.6835,-3.6893,-3.6034,-3.6851,-3.6871,-3.6014,-3.5995,-3.5995,-3.5996,-3.5996,-3.5996,-3.5996,-3.5996,-3.5996,-3.5996,-3.5996,-3.5996,-3.5996,-3.5996,-3.5996,-3.5996,-3.5996,-3.5996,-3.5996,-3.5996,-3.5996,-3.5996,-3.8707,-3.8707,-3.8707,-3.8707,-3.8707,-3.8707,-3.8707,-3.8707,-3.8909,-3.9441,-3.9515,-3.9515,-3.9515,-3.9038,-3.8707,-3.8707,-3.8707,-3.8707,-3.8707,-3.8707,-3.8707,-3.8707,-3.8707,-3.8707,-3.8707,-3.8707,-3.8707,-3.8707,-3.8432,-3.8364,-3.8464,-3.8368,-3.8526,-3.889,-3.937,-3.9747,-3.9996,-4.0038,-4.0076,-4.0092,-3.9823,-3.9708,-3.9708,-3.9708,-3.9708,-3.97,-3.9673,-3.9653,-3.9627,-3.9513,-3.8947,-3.8209,-3.7758,-3.6878,-3.6006,-3.5982,-3.5957,-3.5814,-3.5275,-3.512,-3.5026,-3.4465,-3.434,-3.4409,-3.4586,-3.4425,-3.4154,-3.3791,-3.3108,-3.2513,-3.2254,-3.2202,-3.2232,-3.2278,-3.2303,-3.2425,-3.2739,-3.3056,-3.3375,-3.3673,-3.3773,-3.4167,-3.5036,-3.4863,-3.5059,-3.5937,-3.5996,-3.5996,-3.5996,-3.6269,-3.6288,-3.6014,-3.6266,-3.6285,-3.5995,-3.5995,-3.5995,-3.5996,-3.5996,-3.5996,-3.5996,-3.5996,-3.5996,-3.5996,-3.5996,-3.5996,-3.5996,-3.5996,-3.5996,-3.5996,-3.5996,-3.5996,-3.5996,-3.5996,-3.5996,-3.5996,-3.8707,-3.8707,-3.8707,-3.8707,-3.8946,-3.9148,-3.9148,-3.9423,-3.979,-4.0286,-4.0359,-4.0359,-4.0359,-3.99,-3.9368,-3.8762,-3.8707,-3.8707,-3.8707,-3.8707,-3.8707,-3.8707,-3.8707,-3.8707,-3.8707,-3.8707,-3.8707,-3.8707,-3.8707,-3.8765,-3.8892,-3.9031,-3.9298,-3.967,-3.987,-4.0109,-4.037,-4.0432,-4.0471,-4.0496,-4.0496,-4.0496,-4.0496,-4.0496,-4.0496,-4.0496,-4.0496,-4.05,-4.0499,-4.0405,-3.9907,-3.9299,-3.9147,-3.8523,-3.7711,-3.7,-3.6751,-3.6588,-3.6086,-3.5733,-3.5392,-3.489,-3.4499,-3.4328,-3.4575,-3.4472,-3.4268,-3.4127,-3.375,-3.3357,-3.306,-3.3003,-3.3014,-3.3092,-3.3103,-3.3251,-3.3625,-3.3713,-3.3878,-3.4235,-3.4348,-3.4582,-3.5136,-3.5195,-3.541,-3.5957,-3.5996,-3.5996,-3.5996,-3.5996,-3.5995,-3.5995,-3.5995,-3.5995,-3.5995,-3.5995,-3.5996,-3.5996,-3.5996,-3.5996,-3.5996,-3.5996,-3.5996,-3.5996,-3.5996,-3.5996,-3.5996,-3.5996,-3.5996,-3.5996,-3.5996,-3.5996,-3.5996,-3.5996,-3.5996,-3.5996,-3.8872,-3.8817,-3.8799,-3.8872,-3.9496,-3.9974,-3.9974,-4.0616,-4.1113,-4.1168,-4.1168,-4.1168,-4.1168,-4.1168,-4.0545,-3.9001,-3.8872,-3.8872,-3.8872,-3.8872,-3.8836,-3.8799,-3.8781,-3.8762,-3.8707,-3.8707,-3.8707,-3.8707,-3.8707,-3.8765,-3.891,-3.905,-3.9272,-3.9599,-3.9823,-4.0039,-4.0307,-4.037,-4.0447,-4.0496,-4.0496,-4.0496,-4.0496,-4.0496,-4.0496,-4.0496,-4.0496,-4.0496,-4.0508,-4.0507,-4.0368,-4.0196,-4.0118,-3.9889,-3.9281,-3.7505,-3.6918,-3.6866,-3.6811,-3.6253,-3.564,-3.5529,-3.4841,-3.4298,-3.4641,-3.4851,-3.484,-3.4308,-3.4248,-3.4058,-3.3319,-3.3171,-3.3195,-3.3266,-3.3272,-3.358,-3.4458,-3.4591,-3.4915,-3.5804,-3.5953,-3.6009,-3.5996,-3.5996,-3.5996,-3.5996,-3.5996,-3.5996,-3.5996,-3.5996,-3.5996,-3.5996,-3.5996,-3.5996,-3.5996,-3.5996,-3.5996,-3.5996,-3.5996,-3.5996,-3.5996,-3.5996,-3.5996,-3.5996,-3.5996,-3.5996,-3.5996,-3.5996,-3.5996,-3.5996,-3.5996,-3.5996,-3.5996,-3.5996,-3.5996,-3.5996,-4.0398,-4.0047,-3.9808,-4.0416,-4.0691,-4.0836,-4.0836,-4.0967,-4.1315,-4.1937,-4.2029,-4.2029,-4.2029,-4.2029,-4.1625,-4.0618,-4.0526,-4.0526,-4.0526,-4.0526,-4.0267,-3.9643,-3.9625,-3.9331,-3.8707,-3.8707,-3.8707,-3.8707,-3.8707,-3.8735,-3.8837,-3.9003,-3.9245,-3.952,-3.9781,-4.0039,-4.0307,-4.037,-4.0447,-4.0496,-4.0496,-4.0496,-4.0496,-4.0496,-4.0496,-4.0496,-4.0496,-4.0496,-4.0496,-4.05,-4.0436,-4.0314,-4.0148,-3.9937,-3.9637,-3.8958,-3.8699,-3.8463,-3.7795,-3.7466,-3.7052,-3.5807,-3.4933,-3.442,-3.4662,-3.4851,-3.5011,-3.5009,-3.5105,-3.5122,-3.4937,-3.4905,-3.4924,-3.4999,-3.501,-3.5093,-3.5389,-3.546,-3.5597,-3.586,-3.5953,-3.6009,-3.5996,-3.5996,-3.5996,-3.5996,-3.5996,-3.5996,-3.5996,-3.5996,-3.5996,-3.5996,-3.5996,-3.5996,-3.5996,-3.5996,-3.5996,-3.5996,-3.5996,-3.5996,-3.5996,-3.5996,-3.5996,-3.5996,-3.5996,-3.5996,-3.5996,-3.5996,-3.5996,-3.5996,-3.5996,-3.5996,-3.5996,-3.5996,-3.5996,-3.5996,-4.1003,-4.0763,-4.0598,-4.1022,-4.1389,-4.1662,-4.1662,-4.1974,-4.2359,-4.2782,-4.2837,-4.2837,-4.2837,-4.2837,-4.2671,-4.2249,-4.1517,-4.1095,-4.1095,-4.1095,-4.0912,-4.0469,-4.0451,-4.0249,-3.9808,-3.9808,-3.9641,-3.9286,-3.8906,-3.875,-3.8851,-3.8993,-3.921,-3.9464,-3.9735,-4.0008,-4.0252,-4.0362,-4.0447,-4.0496,-4.0496,-4.0496,-4.0496,-4.0496,-4.0496,-4.0496,-4.0496,-4.0496,-4.0496,-4.0496,-4.0468,-4.0413,-4.0252,-4.008,-3.987,-3.9611,-3.9376,-3.909,-3.8576,-3.8199,-3.7556,-3.5994,-3.532,-3.4989,-3.4778,-3.4908,-3.5086,-3.5258,-3.5407,-3.5495,-3.5495,-3.5528,-3.556,-3.5596,-3.5595,-3.5615,-3.5694,-3.5763,-3.5813,-3.5892,-3.5965,-3.6006,-3.5995,-3.5996,-3.5996,-3.5996,-3.5996,-3.5996,-3.5996,-3.5996,-3.5996,-3.5996,-3.5996,-3.5996,-3.5996,-3.5996,-3.5996,-3.5996,-3.5996,-3.5996,-3.5996,-3.5996,-3.5996,-3.5996,-3.5996,-3.5996,-3.5996,-3.5996,-3.5996,-3.5996,-3.5996,-3.5996,-3.5996,-3.5996,-3.5996,-3.5996,-4.1425,-4.1352,-4.1315,-4.1425,-4.2029,-4.2488,-4.2488,-4.3057,-4.3515,-4.3515,-4.3515,-4.3515,-4.3515,-4.3515,-4.3515,-4.3515,-4.2249,-4.1462,-4.1462,-4.1462,-4.1407,-4.1279,-4.1279,-4.1224,-4.1095,-4.1111,-4.0827,-4.0222,-3.935,-3.9009,-3.9139,-3.9063,-3.9183,-3.9427,-3.9712,-3.9977,-4.0215,-4.0353,-4.0455,-4.0496,-4.0496,-4.0496,-4.0496,-4.0496,-4.0496,-4.0496,-4.0496,-4.0496,-4.0496,-4.0496,-4.0511,-4.0482,-4.0351,-4.0215,-4.0058,-3.9815,-3.9514,-3.9264,-3.917,-3.8588,-3.7716,-3.6427,-3.5972,-3.5681,-3.5152,-3.5067,-3.5155,-3.53,-3.5423,-3.5515,-3.5515,-3.5566,-3.5596,-3.5601,-3.5606,-3.564,-3.5689,-3.576,-3.5827,-3.5872,-3.5933,-3.5998,-3.5993,-3.5995,-3.5996,-3.5996,-3.5996,-3.5996,-3.5996,-3.5996,-3.5996,-3.5996,-3.5996,-3.5996,-3.5996,-3.5996,-3.5996,-3.5996,-3.5996,-3.5996,-3.5996,-3.5996,-3.5996,-3.5996,-3.5996,-3.5996,-3.5996,-3.5996,-3.5996,-3.5996,-3.5996,-3.5996,-3.5996,-3.5996,-3.5996,-3.5996,-4.2983,-4.258,-4.2323,-4.3002,-4.3222,-4.3296,-4.3296,-4.3423,-4.3515,-4.3515,-4.3515,-4.3515,-4.3515,-4.3515,-4.3515,-4.3515,-4.3276,-4.313,-4.313,-4.313,-4.2818,-4.2139,-4.2121,-4.1809,-4.1113,-4.1158,-4.1212,-4.127,-4.0389,-4.003,-4.015,-3.9546,-3.9337,-3.9502,-3.9826,-4.0049,-4.0215,-4.0396,-4.0487,-4.0496,-4.0496,-4.0496,-4.0496,-4.0496,-4.0496,-4.0496,-4.0496,-4.0496,-4.0496,-4.0496,-4.0489,-4.0492,-4.0402,-4.0288,-4.0139,-3.9927,-3.9751,-3.9575,-3.9406,-3.8763,-3.8147,-3.8016,-3.6968,-3.6,-3.6037,-3.5609,-3.5243,-3.542,-3.5534,-3.5572,-3.5572,-3.5596,-3.5601,-3.5601,-3.5643,-3.5695,-3.5707,-3.5757,-3.5799,-3.5807,-3.5866,-3.5944,-3.5986,-3.5993,-3.5995,-3.5996,-3.5996,-3.5996,-3.5996,-3.5996,-3.5996,-3.5996,-3.5996,-3.5996,-3.5996,-3.5996,-3.5996,-3.5996,-3.5996,-3.5996,-3.5996,-3.5996,-3.5996,-3.5996,-3.5996,-3.5996,-3.5996,-3.5996,-3.5996,-3.5996,-3.5996,-3.5996,-3.5996,-3.5996,-3.5996,-3.5996,-4.3441,-4.3185,-4.3057,-4.3441,-4.3515,-4.3515,-4.3515,-4.3515,-4.3515,-4.3515,-4.3515,-4.3515,-4.3515,-4.3515,-4.3515,-4.3515,-4.3515,-4.3515,-4.3515,-4.3515,-4.3331,-4.2947,-4.2947,-4.278,-4.2446,-4.2085,-4.202,-4.2251,-4.1415,-4.1082,-4.1189,-4.0422,-4.014,-4.0256,-4.0089,-4.008,-4.0261,-4.0432,-4.0495,-4.0496,-4.0496,-4.0496,-4.0496,-4.0496,-4.0496,-4.0496,-4.0496,-4.0496,-4.0496,-4.0496,-4.0496,-4.0481,-4.0455,-4.0396,-4.0279,-4.011,-3.9854,-3.9623,-3.9588,-3.9336,-3.9026,-3.8661,-3.8064,-3.7367,-3.659,-3.6165,-3.5863,-3.5559,-3.5554,-3.5602,-3.5602,-3.5626,-3.5648,-3.5648,-3.5679,-3.5695,-3.5702,-3.5728,-3.5756,-3.5799,-3.5852,-3.5936,-3.5991,-3.6007,-3.5994,-3.5996,-3.5996,-3.5996,-3.5996,-3.5996,-3.5996,-3.5996,-3.5996,-3.5996,-3.5996,-3.5996,-3.5996,-3.5996,-3.5996,-3.5996,-3.5996,-3.5996,-3.5996,-3.5996,-3.5996,-3.5996,-3.5996,-3.5996,-3.5996,-3.5996,-3.5996,-3.5996,-3.5996,-3.5996,-3.5995,-3.5995,-4.3515,-4.3515,-4.3515,-4.3515,-4.3515,-4.3515,-4.3515,-4.3515,-4.3515,-4.3515,-4.3515,-4.3515,-4.3515,-4.3515,-4.3515,-4.3515,-4.3515,-4.3515,-4.3515,-4.3515,-4.3515,-4.3515,-4.3515,-4.3548,-4.3666,-4.3137,-4.2993,-4.3295,-4.2497,-4.2187,-4.2314,-4.1474,-4.118,-4.1283,-4.0832,-4.074,-4.0908,-4.1061,-4.0984,-4.0804,-4.0804,-4.0689,-4.0496,-4.0496,-4.0496,-4.0496,-4.0496,-4.0496,-4.0496,-4.0496,-4.0496,-4.0508,-4.0495,-4.0455,-4.0405,-4.0279,-4.003,-3.9773,-3.9796,-3.9873,-3.9806,-3.9212,-3.9004,-3.8582,-3.7174,-3.6734,-3.6435,-3.5669,-3.5577,-3.5612,-3.5612,-3.5673,-3.5704,-3.5704,-3.5704,-3.5695,-3.5697,-3.5702,-3.5718,-3.5775,-3.5849,-3.59,-3.5966,-3.5996,-3.5991,-3.5995,-3.5996,-3.5996,-3.5996,-3.5996,-3.5996,-3.5996,-3.5996,-3.5996,-3.5996,-3.5996,-3.5996,-3.5996,-3.5996,-3.5996,-3.5996,-3.5996,-3.5996,-3.5996,-3.5996,-3.5996,-3.5996,-3.5996,-3.5996,-3.5996,-3.5996,-3.5996,-3.5995,-3.5994,-3.5993,-3.5991,-4.3515,-4.3515,-4.3515,-4.3515,-4.3515,-4.3515,-4.3515,-4.3515,-4.3515,-4.3515,-4.3515,-4.3515,-4.3515,-4.3515,-4.3515,-4.3515,-4.3515,-4.3515,-4.3515,-4.3515,-4.3515,-4.3515,-4.3515,-4.3634,-4.3865,-4.3886,-4.408,-4.4471,-4.3723,-4.3441,-4.3557,-4.2685,-4.2356,-4.2487,-4.2496,-4.2585,-4.2725,-4.2851,-4.2442,-4.1692,-4.1692,-4.1219,-4.0496,-4.0496,-4.0496,-4.0496,-4.0496,-4.0496,-4.0496,-4.0496,-4.0496,-4.0496,-4.0489,-4.0495,-4.0474,-4.0405,-4.0325,-4.0224,-4.0091,-4.0081,-4.011,-4.0166,-3.9628,-3.8887,-3.8066,-3.731,-3.6568,-3.5757,-3.5643,-3.5684,-3.5684,-3.5704,-3.5704,-3.5704,-3.5704,-3.5709,-3.5709,-3.5692,-3.5693,-3.5718,-3.5767,-3.5824,-3.5908,-3.5955,-3.6002,-3.5994,-3.5996,-3.5996,-3.5996,-3.5996,-3.5996,-3.5996,-3.5996,-3.5996,-3.5996,-3.5996,-3.5996,-3.5996,-3.5996,-3.5996,-3.5996,-3.5996,-3.5996,-3.5996,-3.5996,-3.5996,-3.5996,-3.5996,-3.5996,-3.5996,-3.5995,-3.5995,-3.5995,-3.5992,-3.5991,-3.5991,-4.3515,-4.3515,-4.3515,-4.3515,-4.3515,-4.3515,-4.3515,-4.3515,-4.3515,-4.3515,-4.3515,-4.3515,-4.3515,-4.3515,-4.3515,-4.3515,-4.3515,-4.3515,-4.3515,-4.3515,-4.3515,-4.3515,-4.3531,-4.3684,-4.3915,-4.4048,-4.4302,-4.4659,-4.4468,-4.444,-4.4551,-4.3715,-4.3382,-4.345,-4.2967,-4.2833,-4.297,-4.306,-4.2912,-4.2604,-4.2604,-4.2412,-4.2047,-4.1508,-4.1316,-4.1239,-4.0689,-4.0496,-4.0496,-4.0496,-4.0496,-4.0496,-4.0496,-4.05,-4.0484,-4.0468,-4.0433,-4.0417,-4.0356,-4.0349,-4.037,-4.0405,-4.0189,-3.9623,-3.8339,-3.7828,-3.7244,-3.5927,-3.5679,-3.5704,-3.5704,-3.5704,-3.5704,-3.5704,-3.5704,-3.5704,-3.5704,-3.5695,-3.5697,-3.5708,-3.5754,-3.5822,-3.5883,-3.5953,-3.6,-3.5992,-3.5995,-3.5996,-3.5996,-3.5996,-3.5996,-3.5996,-3.5996,-3.5996,-3.5996,-3.5996,-3.5996,-3.5996,-3.5996,-3.5996,-3.5996,-3.5996,-3.5996,-3.5996,-3.5996,-3.5996,-3.5996,-3.5996,-3.5996,-3.5995,-3.5995,-3.5993,-3.6009,-3.6008,-3.6004,-3.6001,-4.3515,-4.3515,-4.3515,-4.3515,-4.3515,-4.3515,-4.3515,-4.3515,-4.3515,-4.3515,-4.3515,-4.3515,-4.3515,-4.3515,-4.3515,-4.3515,-4.3515,-4.3515,-4.3515,-4.3515,-4.3515,-4.3515,-4.3565,-4.3699,-4.3929,-4.4151,-4.4453,-4.4783,-4.4919,-4.5049,-4.5173,-4.4598,-4.4374,-4.4419,-4.3867,-4.3675,-4.3794,-4.3857,-4.372,-4.347,-4.347,-4.3335,-4.3028,-4.245,-4.2038,-4.1712,-4.1123,-4.0727,-4.0496,-4.0496,-4.0496,-4.0496,-4.0496,-4.0496,-4.0496,-4.0496,-4.0496,-4.0496,-4.0496,-4.0492,-4.0507,-4.0507,-4.0492,-4.0146,-3.8805,-3.8305,-3.7726,-3.6369,-3.5878,-3.5704,-3.5704,-3.5704,-3.5704,-3.5704,-3.5704,-3.5704,-3.5704,-3.5695,-3.5692,-3.5689,-3.5754,-3.5838,-3.5883,-3.5953,-3.6,-3.5992,-3.5995,-3.5996,-3.5996,-3.5996,-3.5996,-3.5996,-3.5996,-3.5996,-3.5996,-3.5996,-3.5996,-3.5996,-3.5996,-3.5996,-3.5996,-3.5996,-3.5996,-3.5996,-3.5996,-3.5996,-3.5996,-3.5996,-3.5996,-3.5995,-3.5993,-3.6009,-3.6004,-3.6002,-3.5998,-3.5994,-4.3515,-4.3515,-4.3515,-4.3515,-4.3515,-4.3515,-4.3515,-4.3515,-4.3515,-4.3515,-4.3515,-4.3515,-4.3515,-4.3515,-4.3515,-4.3515,-4.3515,-4.3515,-4.3515,-4.3515,-4.3515,-4.3515,-4.3583,-4.3732,-4.3989,-4.4246,-4.461,-4.4991,-4.5136,-4.5275,-4.5408,-4.5328,-4.5328,-4.5408,-4.54,-4.5438,-4.5504,-4.5568,-4.5094,-4.4316,-4.4316,-4.3835,-4.3124,-4.3104,-4.2566,-4.1808,-4.1788,-4.1239,-4.0516,-4.0496,-4.0496,-4.0496,-4.0496,-4.0496,-4.0496,-4.0496,-4.0496,-4.0496,-4.0496,-4.0496,-4.0496,-4.0496,-4.0496,-4.03,-3.9576,-3.8729,-3.7881,-3.706,-3.6265,-3.5704,-3.5704,-3.5704,-3.5704,-3.5704,-3.5704,-3.5704,-3.5704,-3.5692,-3.5707,-3.5707,-3.5763,-3.5836,-3.5886,-3.5953,-3.6001,-3.5994,-3.5996,-3.5996,-3.5996,-3.5996,-3.5996,-3.5996,-3.5996,-3.5996,-3.5996,-3.5996,-3.5996,-3.5996,-3.5996,-3.5996,-3.5996,-3.5996,-3.5996,-3.5996,-3.5996,-3.5996,-3.5996,-3.5995,-3.5995,-3.5994,-3.6008,-3.6004,-3.6003,-3.5995,-3.5992,-3.5992,-4.3515,-4.3515,-4.3515,-4.3515,-4.3515,-4.3515,-4.3515,-4.3515,-4.3515,-4.3515,-4.3515,-4.3515,-4.3515,-4.3515,-4.3515,-4.3515,-4.3515,-4.3515,-4.3515,-4.3515,-4.3515,-4.3515,-4.3651,-4.3816,-4.4005,-4.436,-4.468,-4.4919,-4.5114,-4.5235,-4.5328,-4.5307,-4.5328,-4.5408,-4.54,-4.5438,-4.5504,-4.5568,-4.546,-4.521,-4.521,-4.5075,-4.4786,-4.4162,-4.3778,-4.3393,-4.222,-4.1643,-4.1316,-4.0708,-4.0496,-4.0496,-4.0496,-4.0496,-4.0496,-4.0496,-4.0496,-4.0496,-4.0496,-4.0496,-4.0496,-4.0496,-4.0496,-4.0292,-3.9509,-3.9171,-3.8607,-3.7191,-3.6712,-3.6361,-3.58,-3.5704,-3.5704,-3.5704,-3.5704,-3.5704,-3.5704,-3.5692,-3.5723,-3.5757,-3.5823,-3.5872,-3.5892,-3.5953,-3.6009,-3.5995,-3.5996,-3.5996,-3.5996,-3.5996,-3.5996,-3.5996,-3.5996,-3.5996,-3.5996,-3.5996,-3.5996,-3.5996,-3.5996,-3.5996,-3.5996,-3.5996,-3.5996,-3.5996,-3.5996,-3.5995,-3.5995,-3.5993,-3.5991,-3.6008,-3.6005,-3.6001,-3.5996,-3.5994,-3.5992,-3.5992,-4.3515,-4.3515,-4.3515,-4.3515,-4.3515,-4.3515,-4.3515,-4.3515,-4.3515,-4.3515,-4.3515,-4.3515,-4.3515,-4.3515,-4.3515,-4.3515,-4.3515,-4.3515,-4.3515,-4.3515,-4.3515,-4.3515,-4.3634,-4.38,-4.4005,-4.4393,-4.4725,-4.4931,-4.5114,-4.5254,-4.5338,-4.5317,-4.5317,-4.5359,-4.539,-4.5419,-4.5476,-4.5568,-4.5594,-4.5594,-4.5594,-4.5594,-4.5537,-4.5017,-4.4605,-4.4162,-4.3143,-4.2585,-4.2239,-4.17,-4.1296,-4.1008,-4.1008,-4.0785,-4.0496,-4.0496,-4.0496,-4.0496,-4.0496,-4.0496,-4.0496,-4.0496,-4.0496,-4.0389,-3.9926,-3.9608,-3.9102,-3.8106,-3.7363,-3.6748,-3.6265,-3.5916,-3.5704,-3.5704,-3.5704,-3.5704,-3.5704,-3.5702,-3.5723,-3.5788,-3.5859,-3.5902,-3.5935,-3.5984,-3.5994,-3.5995,-3.5996,-3.5996,-3.5996,-3.5996,-3.5996,-3.5996,-3.5996,-3.5996,-3.5996,-3.5996,-3.5996,-3.5996,-3.5996,-3.5996,-3.5996,-3.5996,-3.5996,-3.5996,-3.5995,-3.5993,-3.5993,-3.5991,-3.6007,-3.6004,-3.6001,-3.5998,-3.5992,-3.5992,-3.5992,-3.5992,-4.3515,-4.3515,-4.3515,-4.3515,-4.3515,-4.3515,-4.3515,-4.3515,-4.3515,-4.3515,-4.3515,-4.3515,-4.3515,-4.3515,-4.3515,-4.3515,-4.3515,-4.3515,-4.3515,-4.3515,-4.3515,-4.3515,-4.3565,-4.3732,-4.3989,-4.4378,-4.4719,-4.4979,-4.5136,-4.5275,-4.5398,-4.5328,-4.5307,-4.5307,-4.538,-4.54,-4.541,-4.5531,-4.5594,-4.5594,-4.5594,-4.5594,-4.5594,-4.5594,-4.5114,-4.4412,-4.4335,-4.3835,-4.3201,-4.3124,-4.2566,-4.1904,-4.1808,-4.1258,-4.0593,-4.0516,-4.0496,-4.0496,-4.0496,-4.0496,-4.0496,-4.0496,-4.0496,-4.0523,-4.0573,-4.0032,-3.9488,-3.9412,-3.8188,-3.7091,-3.7038,-3.6342,-3.58,-3.58,-3.5742,-3.5709,-3.5709,-3.5718,-3.5727,-3.5795,-3.5869,-3.5925,-3.5991,-3.6009,-3.5995,-3.5996,-3.5996,-3.5996,-3.5996,-3.5996,-3.5996,-3.5996,-3.5996,-3.5996,-3.5996,-3.5996,-3.5996,-3.5996,-3.5996,-3.5996,-3.5996,-3.5995,-3.5995,-3.5994,-3.5992,-3.5991,-3.5991,-3.6005,-3.6003,-3.6003,-3.5995,-3.5992,-3.5992,-3.5992,-3.5992,-3.5992,-4.3515,-4.3515,-4.3515,-4.3515,-4.3515,-4.3515,-4.3515,-4.3515,-4.3515,-4.3515,-4.3515,-4.3515,-4.3515,-4.3515,-4.3515,-4.3515,-4.3515,-4.3515,-4.3515,-4.3515,-4.3515,-4.3515,-4.3565,-4.3699,-4.3913,-4.425,-4.4602,-4.4919,-4.5114,-4.5235,-4.5317,-4.5307,-4.5307,-4.5307,-4.538,-4.54,-4.541,-4.5531,-4.5594,-4.5594,-4.5594,-4.5594,-4.5594,-4.5594,-4.5479,-4.5229,-4.4547,-4.4182,-4.3932,-4.3316,-4.297,-4.2701,-4.2019,-4.1681,-4.1373,-4.0708,-4.0496,-4.0496,-4.0496,-4.0496,-4.0496,-4.0496,-4.0496,-4.0496,-4.0523,-4.0438,-4.0167,-3.9527,-3.9116,-3.8671,-3.8038,-3.7232,-3.6632,-3.6632,-3.611,-3.5695,-3.5697,-3.5742,-3.5782,-3.5802,-3.586,-3.5924,-3.5982,-3.5993,-3.5996,-3.5996,-3.5996,-3.5996,-3.5996,-3.5996,-3.5996,-3.5996,-3.5996,-3.5996,-3.5995,-3.5995,-3.5996,-3.5996,-3.5996,-3.5995,-3.5995,-3.5993,-3.5992,-3.5992,-3.6008,-3.6006,-3.6005,-3.5999,-3.5995,-3.5995,-3.5992,-3.5992,-3.5992,-3.5992,-3.5992,-3.5992,-4.3515,-4.3515,-4.3515,-4.3515,-4.3515,-4.3515,-4.3515,-4.3515,-4.3515,-4.3515,-4.3515,-4.3515,-4.3515,-4.3515,-4.3515,-4.3515,-4.3515,-4.3515,-4.3515,-4.3515,-4.3515,-4.3515,-4.3531,-4.3667,-4.3897,-4.4136,-4.4448,-4.4846,-4.5049,-4.5203,-4.5307,-4.5307,-4.5307,-4.5307,-4.537,-4.54,-4.541,-4.5504,-4.5568,-4.5594,-4.5594,-4.5594,-4.5594,-4.5594,-4.5594,-4.5537,-4.5075,-4.4921,-4.4855,-4.4432,-4.4008,-4.3585,-4.3143,-4.2739,-4.2258,-4.1373,-4.1123,-4.1027,-4.0612,-4.0496,-4.0496,-4.0496,-4.0496,-4.0496,-4.0496,-4.0546,-4.048,-4.006,-3.9669,-3.9277,-3.8889,-3.8102,-3.7386,-3.698,-3.6555,-3.614,-3.5741,-3.5752,-3.5818,-3.584,-3.5877,-3.5934,-3.5992,-3.5995,-3.5996,-3.5996,-3.5996,-3.5996,-3.5996,-3.5996,-3.5996,-3.5996,-3.5996,-3.5995,-3.5993,-3.5993,-3.5994,-3.5995,-3.5994,-3.5993,-3.5993,-3.6009,-3.6008,-3.6008,-3.6002,-3.5999,-3.5999,-3.5994,-3.5992,-3.5992,-3.5992,-3.5992,-3.5992,-3.5992,-3.5992,-3.5992,-4.3549,-4.3566,-4.3583,-4.3583,-4.3565,-4.3582,-4.3583,-4.3566,-4.3549,-4.3513,-4.3515,-4.3515,-4.3515,-4.3515,-4.3515,-4.3515,-4.3515,-4.3515,-4.3515,-4.3515,-4.3515,-4.3515,-4.3515,-4.3617,-4.3883,-4.4036,-4.4312,-4.477,-4.4979,-4.5159,-4.5286,-4.5297,-4.5307,-4.5307,-4.5359,-4.54,-4.541,-4.5476,-4.555,-4.5594,-4.5594,-4.5594,-4.5594,-4.5594,-4.5594,-4.5594,-4.5594,-4.5594,-4.5594,-4.5594,-4.5133,-4.4489,-4.4355,-4.3835,-4.3143,-4.2277,-4.1923,-4.1643,-4.0912,-4.0612,-4.0496,-4.0496,-4.0496,-4.0496,-4.0496,-4.0539,-4.0595,-4.06,-4.0075,-3.9625,-3.9707,-3.9011,-3.8199,-3.7469,-3.7102,-3.6693,-3.6033,-3.5867,-3.5819,-3.5889,-3.5912,-3.5942,-3.5996,-3.5996,-3.5996,-3.5996,-3.5996,-3.5996,-3.5996,-3.5996,-3.5996,-3.5995,-3.5995,-3.5993,-3.599,-3.6009,-3.6009,-3.6009,-3.6009,-3.6009,-3.6009,-3.6005,-3.6002,-3.6002,-3.5995,-3.5992,-3.5992,-3.5992,-3.5992,-3.5992,-3.5992,-3.5992,-3.5992,-3.5992,-3.5992,-3.5992,-4.3754,-4.3802,-4.3849,-4.3849,-4.3878,-4.391,-4.3849,-4.3802,-4.3719,-4.3599,-4.3549,-4.3515,-4.3515,-4.3515,-4.3515,-4.3515,-4.3515,-4.3515,-4.3515,-4.3515,-4.3515,-4.3515,-4.3515,-4.36,-4.3804,-4.4005,-4.4302,-4.4725,-4.4907,-4.5091,-4.5213,-4.5275,-4.5307,-4.5307,-4.5359,-4.54,-4.541,-4.5476,-4.555,-4.5594,-4.5594,-4.5594,-4.5594,-4.5594,-4.5594,-4.5594,-4.5594,-4.5594,-4.5594,-4.5594,-4.5518,-4.5287,-4.4528,-4.422,-4.397,-4.3162,-4.2393,-4.1769,-4.1662,-4.1066,-4.0496,-4.0496,-4.0496,-4.0496,-4.0496,-4.0516,-4.0527,-4.06,-4.0518,-4.0487,-4.0591,-3.9907,-3.9294,-3.9162,-3.7929,-3.6968,-3.6923,-3.627,-3.5817,-3.5897,-3.594,-3.5994,-3.5996,-3.5996,-3.5996,-3.5996,-3.5996,-3.5996,-3.5996,-3.5996,-3.5995,-3.5995,-3.5993,-3.6009,-3.6005,-3.6005,-3.6002,-3.5995,-3.5995,-3.5999,-3.6005,-3.5998,-3.5994,-3.5994,-3.5992,-3.5992,-3.5992,-3.5992,-3.5992,-3.5992,-3.5992,-3.5992,-3.5992,-3.5992,-3.5992,-3.5992,-4.3958,-4.4017,-4.4064,-4.4064,-4.4075,-4.4094,-4.4017,-4.3942,-4.3865,-4.3736,-4.3617,-4.3531,-4.3496,-4.3515,-4.3515,-4.3515,-4.3515,-4.3515,-4.3515,-4.3515,-4.3515,-4.3515,-4.3515,-4.3566,-4.3703,-4.3897,-4.4155,-4.4481,-4.4827,-4.508,-4.5203,-4.5275,-4.5307,-4.5307,-4.5328,-4.537,-4.541,-4.5429,-4.5504,-4.5594,-4.5594,-4.5594,-4.5594,-4.5594,-4.5594,-4.5594,-4.5594,-4.5594,-4.5594,-4.5594,-4.5594,-4.5537,-4.5152,-4.5037,-4.4855,-4.4008,-4.3181,-4.2431,-4.1923,-4.1162,-4.0496,-4.0496,-4.0496,-4.0496,-4.0496,-4.0496,-4.0519,-4.0593,-4.0595,-4.0635,-4.0784,-4.0499,-4.0066,-3.958,-3.891,-3.8317,-3.7894,-3.7108,-3.6423,-3.6012,-3.5972,-3.5996,-3.5996,-3.5996,-3.5996,-3.5996,-3.5996,-3.5996,-3.5996,-3.5995,-3.5994,-3.5991,-3.6009,-3.6005,-3.5998,-3.5998,-3.5996,-3.5992,-3.5992,-3.5994,-3.5998,-3.5994,-3.5992,-3.5992,-3.5992,-3.5992,-3.5992,-3.5992,-3.5992,-3.5992,-3.5992,-3.5992,-3.5992,-3.5992,-3.5992,-3.5992]},{"header":{"parameterUnit":"m.s-1","parameterCategory":1,"la1":30.6,"la2":28.766,"lo1":-90.7593,"lo2":-88.6598,"dy":0.0162,"dx":0.0183,"nx":116,"ny":114,"refTime":"2024-07-02T00:00:00:Z","depth":0,"parameterNumber":3,"parameterNumberName":"V-component_of_WINDS"},"data":[0.0,0.0,0.0,0.0,0.0,0.0,0.0,0.0,0.0,0.0,0.0,0.0,0.0,0.0,0.0,0.0,0.0,0.0,0.0,0.0,0.0,0.0,0.0,0.0,0.0,0.0,0.0,0.0,0.0,0.0,0.0,0.0,0.0,0.0,0.0,0.0,0.0,0.0,0.0,0.0,0.0,0.0,0.0,0.0,0.0,0.0,0.0,0.0,0.0,0.0,0.0,0.0,0.0,0.0,0.0,0.0,0.0,0.0,0.0,0.0,0.0,0.0,0.0,0.0,0.0,0.0,0.0,0.0,0.0,0.0,0.0,0.0,0.0,0.0,0.0,0.0,0.0,0.0,0.0,0.0,0.0,0.0,0.0,0.0,0.0,0.0,0.0,0.0,0.0,0.0,0.0,0.0,0.0,0.0,0.0,0.0,0.0,0.0,0.0,0.0,0.0,0.0,0.0,0.0,0.0,0.0,0.0,0.0,0.0,0.0,0.0,0.0,0.0,0.0,0.0,0.0,0.0,0.0,0.0,0.0,0.0,0.0,0.0,0.0,0.0,0.0,0.0,0.0,0.0,0.0,0.0,0.0,0.0,0.0,0.0,0.0,0.0,0.0,0.0,0.0,0.0,0.0,0.0,0.0,0.0,0.0,0.0,0.0,0.0,0.0,0.0,0.0,0.0,0.0,0.0,0.0,0.0,0.0,0.0,0.0,0.0,0.0,0.0,0.0,0.0,0.0,0.0,0.0,0.0,0.0,0.0,0.0,0.0,0.0,0.0,0.0,0.0,0.0,0.0,0.0,0.0,0.0,0.0,0.0,0.0,0.0,0.0,0.0,0.0,0.0,0.0,0.0,0.0,0.0,0.0,0.0,0.0,0.0,0.0,0.0,0.0,0.0,0.0,0.0,0.0,0.0,0.0,0.0,0.0,0.0,0.0,0.0,0.0,0.0,0.0,0.0,0.0,0.0,0.0,0.0,0.0,0.0,0.0,0.0,0.0,0.0,0.0,0.0,0.0,0.0,0.0,0.0,0.0,0.0,0.0,0.0,0.0,0.0,0.0,0.0,0.0,0.0,0.0,0.0,0.0,0.0,0.0,0.0,0.0,0.0,0.0,0.0,0.0,0.0,0.0,0.0,0.0,0.0,0.0,0.0,0.0,0.0,0.0,0.0,0.0,0.0,0.0,0.0,0.0,0.0,0.0,0.0,0.0,0.0,0.0,0.0,0.0,0.0,0.0,0.0,0.0,0.0,0.0,0.0,0.0,0.0,0.0,0.0,0.0,0.0,0.0,0.0,0.0,0.0,0.0,0.0,0.0,0.0,0.0,0.0,0.0,0.0,0.0,0.0,0.0,0.0,0.0,0.0,0.0,0.0,0.0,0.0,0.0,0.0,0.0,0.0,0.0,0.0,0.0,0.0,0.0,0.0,0.0,0.0,0.0,0.0,0.0,0.0,0.0,0.0,0.0,0.0,0.0,0.0,0.0,0.0,0.0,0.0,0.0,0.0,0.0,0.0,0.0,0.0,0.0,0.0,0.0,0.0,0.0,0.0,0.0,0.0,0.0,0.0,0.0,0.0,0.0,0.0,0.0,0.0,0.0,0.0,0.0,0.0,0.0,0.0,0.0,0.0,0.0,0.0,0.0,0.0,0.0,0.0,0.0,0.0,0.0,0.0,0.0,0.0,0.0,0.0,0.0,0.0,0.0,0.0,0.0,0.0,0.0,0.0,0.0,0.0,0.0,0.0,0.0,0.0,0.0,0.0,0.0,0.0,0.0,0.0,0.0,0.0,0.0,0.0,0.0,0.0,0.0,0.0,0.0,0.0,0.0,0.0,0.0,0.0,0.0,0.0,0.0,0.0,0.0,0.0,0.0,0.0,0.0,0.0,0.0,0.0,0.0,0.0,0.0,0.0,0.0,0.0,0.0,0.0,0.0,0.0,0.0,0.0,0.0,0.0,0.0,0.0,0.0,0.0,0.0,0.0,0.0,0.0,0.0,0.0,0.0,0.0,0.0,0.0,0.0,0.0,0.0,0.0,0.0,0.0,0.0,0.0,0.0,0.0,0.0,0.0,0.0,0.0,0.0,0.0,0.0,0.0,0.0,0.0,0.0,0.0,0.0,0.0,0.0,0.0,0.0,0.0,0.0,0.0,0.0,0.0,0.0,0.0,0.0,0.0,0.0,0.0,0.0,0.0,0.0,0.0,0.0,0.0,0.0,0.0,0.0,0.0,0.0,0.0,0.0,0.0,0.0,0.0,0.0,0.0,0.0,0.0,0.0,0.0,0.0,0.0,0.0,0.0,0.0,0.0,0.0,0.0,0.0,0.0,0.0,0.0,0.0,0.0,0.0,0.0,0.0,0.0,0.0,0.0,0.0,0.0,0.0,0.0,0.0,0.0,0.0,0.0,0.0,0.0,0.0,0.0,0.0,0.0,0.0,0.0,0.0,0.0,0.0,0.0,0.0,0.0,0.0,0.0,0.0,0.0,0.0,0.0,0.0,0.0,0.0,0.0,0.0,0.0,0.0,0.0,0.0,0.0,0.0,0.0,0.0,0.0,0.0,0.0,0.0,0.0,0.0,0.0,0.0,0.0,0.0,0.0,0.0,0.0,0.0,0.0,0.0,0.0,0.0,0.0,0.0,0.0,0.0,0.0,0.0,0.0,0.0,0.0,0.0,0.0,0.0,0.0,0.0,0.0,0.0,0.0,0.0,0.0,0.0,0.0,0.0,0.0,0.0,0.0,0.0,0.0,0.0,0.0,0.0,0.0,0.0,0.0,0.0,0.0,0.0,0.0,0.0,0.0,0.0,0.0,0.0,0.0,0.0,0.0,0.0,0.0,0.0,0.0,0.0,0.0,0.0,0.0,0.0,0.0,0.0,0.0,0.0,0.0,0.0,0.0,0.0,0.0,0.0,0.0,0.0,0.0,0.0,0.0,0.0,0.0,0.0,0.0,0.0,0.0,0.0,0.0,0.0,0.0,0.0,0.0,0.0,0.0,0.0,0.0,0.0,0.0,0.0,0.0,0.0,0.0,0.0,0.0,0.0,0.0,0.0,0.0,0.0,0.0,0.0,0.0,0.0,0.0,0.0,0.0,0.0,0.0,0.0,0.0,0.0,0.0,0.0,0.0,0.0,0.0,0.0,0.0,0.0,0.0,0.0,0.0,0.0,0.0,0.0,0.0,0.0,0.0,0.0,0.0,0.0,0.0,0.0,0.0,0.0,0.0,0.0,0.0,0.0,0.0,0.0,0.0,0.0,0.0,0.0,0.0,0.0,0.0,0.0,0.0,0.0,0.0,0.0,0.0,0.0,0.0,0.0,0.0,0.0,0.0,0.0,0.0,0.0,0.0,0.0,0.0,0.0,0.0,0.0,0.0,0.0,0.0,0.0,0.0,0.0,0.0,0.0,0.0,0.0,0.0,0.0,0.0,0.0,0.0,0.0,0.0,0.0,0.0,0.0,0.0,0.0,0.0,0.0,0.0,0.0,0.0,0.0,0.0,0.0,0.0,0.0,0.0,0.0,0.0,0.0,0.0,0.0,0.0,0.0,0.0,0.0,0.0,0.0,0.0,0.0,0.0,0.0,0.0,0.0,0.0,0.0,0.0,0.0,0.0,0.0,0.0,0.0,0.0,0.0,0.0,0.0,0.0,0.0,0.0,0.0,0.0,0.0,0.0,0.0,0.0,0.0,0.0,0.0,0.0,0.0,0.0,0.0,0.0,0.0,0.0,0.0,0.0,0.0,0.0,0.0,0.0,0.0,0.0,0.0,0.0,0.0,0.0,0.0,0.0,0.0,0.0,0.0,0.0,0.0,0.0,0.0,0.0,0.0,0.0,0.0,0.0,0.0,0.0,0.0,0.0,0.0,0.0,0.0,0.0,0.0,0.0,0.0,0.0,0.0,0.0,0.0,0.0,0.0,0.0,0.0,0.0,0.0,0.0,0.0,0.0,0.0,0.0,0.0,0.0,0.0,0.0,0.0,0.0,0.0,0.0,0.0,0.0,0.0,0.0,0.0,0.0,0.0,0.0,0.0,0.0,0.0,0.0,0.0,0.0,0.0,0.0,0.0,0.0,0.0,0.0,0.0,0.0,0.0,0.0,0.0,0.0,0.0,0.0,0.0,0.0,0.0,0.0,0.0,0.0,0.0,0.0,0.0,0.0,0.0,0.0,0.0,0.0,0.0,0.0,0.0,0.0,0.0,0.0,0.0,0.0,0.0,0.0,0.0,0.0,0.0,0.0,0.0,0.0,0.0,0.0,0.0,0.0,0.0,0.0,0.0,0.0,0.0,0.0,0.0,0.0,0.0,0.0,0.0,0.0,0.0,0.0,0.0,0.0,0.0,0.0,0.0,0.0,0.0,0.0,0.0,0.0,0.0,0.0,0.0,0.0,0.0,0.0,0.0,0.0,0.0,0.0,0.0,0.0,0.0,0.0,0.0,0.0,0.0,0.0,0.0,0.0,0.0,0.0,0.0,0.0,0.0,0.0,0.0,0.0,0.0,0.0,0.0,0.0,0.0,0.0,0.0,0.0,0.0,0.0,0.0,0.0,0.0,0.0,0.0,0.0,0.0,0.0,0.0,0.0,0.0,0.0,0.0,0.0,0.0,0.0,0.0,0.0,0.0,0.0,0.0,0.0,0.0,0.0,0.0,0.0,0.0,0.0,0.0,0.0,0.0,0.0,0.0,0.0,0.0,0.0,0.0,0.0,0.0,0.0,0.0,0.0,0.0,0.0,0.0,0.0,0.0,0.0,0.0,0.0,0.0,0.0,0.0,0.0,0.0,0.0,0.0,0.0,0.0,0.0,0.0,0.0,0.0,0.0,0.0,0.0,0.0,0.0,0.0,0.0,0.0,0.0,0.0,0.0,0.0,0.0,0.0,0.0,0.0,0.0,0.0,0.0,0.0,0.0,0.0,0.0,0.0,0.0,0.0,0.0,0.0,0.0,0.0,0.0,0.0,0.0,0.0,0.0,0.0,0.0,0.0,0.0,0.0,0.0,0.0,0.0,0.0,0.0,0.0,0.0,0.0,0.0,0.0,0.0,0.0,0.0,0.0,0.0,0.0,0.0,0.0,0.0,0.0,0.0,0.0,0.0,0.0,0.0,0.0,0.0,0.0,0.0,0.0,0.0,0.0,0.0,0.0,0.0,0.0,0.0,0.0,0.0,0.0,0.0,0.0,0.0,0.0,0.0,0.0,0.0,0.0,0.0,0.0,0.0,0.0,0.0,0.0,0.0,0.0,0.0,0.0,0.0,0.0,0.0,0.0,0.0,0.0,0.0,0.0,0.0,0.0,0.0,0.0,0.0,0.0,0.0,0.0,0.0,0.0,0.0,0.0,0.0,0.0,0.0,0.0,0.0,0.0,0.0,0.0,0.0,0.0,0.0,0.0,0.0,0.0,0.0,0.0,0.0,0.0,0.0,0.0,0.0,0.0,0.0,0.0,0.0,0.0,0.0,0.0,0.0,0.0,0.0,0.0,0.0,0.0,0.0,0.0,0.0,0.0,0.0,0.0,0.0,0.0,0.0,0.0,0.0,0.0,0.0,0.0,0.0,0.0,0.0,0.0,0.0,0.0,0.0,0.0,0.0,0.0,0.0,0.0,0.0,0.0,0.0,0.0,0.0,0.0,0.0,0.0,0.0,0.0,0.0,0.0,0.0,0.0,0.0,0.0,0.0,0.0,0.0,0.0,0.0,0.0,0.0,0.0,0.0,0.0,0.0,0.0,0.0,0.0,0.0,0.0,0.0,0.0,0.0,0.0,0.0,0.0,0.0,0.0,0.0,0.0,0.0,0.0,0.0,0.0,0.0,0.0,0.0,0.0,0.0,0.0,0.0,0.0,0.0,0.0,0.0,0.0,0.0,0.0,0.0,0.0,0.0,0.0,0.0,0.0,0.0,0.0,0.0,0.0,0.0,0.0,0.0,0.0,0.0,0.0,0.0,0.0,0.0,0.0,0.0,0.0,0.0,0.0,0.0,0.0,0.0,0.0,0.0,0.0,0.0,0.0,0.0,0.0,0.0,0.0,0.0,0.0,0.0,0.0,0.0,0.0,0.0,0.0,0.0,0.0,0.0,0.0,0.0,0.0,0.0,0.1404,0.1277,0.0,0.0,0.0,0.0,0.0,0.0,0.0,0.0,0.0,0.0,0.0,0.0,0.0,0.0,0.0,0.0,0.0,0.0,0.0,0.0,0.0,0.0,0.0,1.1202,1.1497,1.1608,1.1486,1.1244,1.0829,0.0,0.0,0.0,0.0,0.0,0.9051,0.9016,0.8972,0.8936,0.9282,0.9381,0.9248,0.8964,0.8646,0.8296,0.0,0.0,0.0,0.0,0.0,0.0,0.0,0.0,0.0,0.0,0.0,0.0,0.0,0.0,0.0,0.0,0.0,0.0,0.0,0.0,0.0,0.0,0.0,0.0,0.0,0.0,0.0,0.0,0.0,0.0,0.0,0.0,0.0,0.0,0.0,0.0,0.0,0.0,0.0,0.0,0.0,0.0,0.0,0.0,0.0,0.0,0.0,0.0,0.0,0.0,0.0,0.0,0.0,0.0,0.0,0.0,0.0,0.0,0.0,0.0,0.0,0.0,0.0,0.0,0.0,0.0,0.0,0.0,0.0,0.0,0.0708,0.0734,0.0,0.0,0.0,0.0,0.0,0.0,0.0,0.0,0.0,0.0,0.0,0.0,0.0,0.0,0.0,0.0,0.0,0.0,0.0,0.0,0.0,1.0436,1.0763,1.1071,1.1271,1.1276,1.1075,1.0772,1.036,1.0341,0.0,0.0,0.0,0.9573,0.9385,0.9394,0.9366,0.9291,0.9557,0.9565,0.9299,0.9299,0.9033,0.8572,0.843,0.0,0.0,0.0,0.0,0.0,0.0,0.0,0.0,0.0,0.0,0.0,0.0,0.0,0.0,0.0,0.0,0.0,0.0,0.0,0.0,0.0,0.0,0.0,0.0,0.0,0.0,0.0,0.0,0.0,0.0,0.0,0.0,0.0,0.0,0.0,0.0,0.0,0.0,0.0,0.0,0.0,0.0,0.0,0.0,0.0,0.0,0.0,0.0,0.0,0.0,0.0,0.0,0.0,0.0,0.0,0.0,0.0,0.0,0.0,0.0,0.0,0.0,0.0,0.0336,0.0299,0.0262,0.0262,0.015,0.0,0.0187,0.0259,0.0218,0.0071,0.0,0.0,0.0,0.0,0.0,0.0,0.0,0.0,0.0,0.0,0.0,0.0,0.0,0.0,0.0,0.0,0.0,0.0,0.0,1.0436,1.0763,1.0993,1.1155,1.1212,1.0924,1.0572,1.0176,1.0137,0.0,0.0,1.0183,1.0113,0.9748,1.0012,0.998,0.964,0.9675,0.9565,0.9299,0.9299,0.9151,0.8844,0.8698,0.8324,0.7761,0.0,0.0,0.0,0.0,0.0,0.0,0.0,0.0,0.0,0.0,0.0,0.0,0.0,0.0,0.0,0.0,0.0,0.0,0.0,0.0,0.0,0.0,0.0,0.0,0.0,0.0,0.0,0.0,0.0,0.0,0.0,0.0,0.0,0.0,0.0,0.0,0.0,0.0,0.0,0.0,0.0,0.443,0.3924,0.0,0.0,0.0,0.0,0.0,0.0,0.0,0.0,0.0,0.0,0.0,0.0,0.0,-0.0603,-0.0791,-0.0865,-0.0763,-0.0522,-0.0369,-0.0165,0.0041,0.0041,0.0041,0.0,0.0041,0.0,0.0036,0.0,0.0,0.0,0.0,0.0,0.0,0.0,0.0,0.0,0.0,0.0,0.0,0.0,0.0,0.0,0.0,0.0,0.0,0.0,0.0,0.0,0.0,1.0955,1.1043,1.1025,1.0687,1.0293,0.9902,0.0,1.031,1.027,1.0686,1.0797,1.0533,1.0445,1.018,0.9703,0.9703,0.9594,0.9406,0.9328,0.9168,0.8952,0.8785,0.8492,0.8115,0.7875,0.0,0.0,0.0,0.0,0.0,0.0,0.0,0.0,0.0,0.0,0.0,0.0,0.0,0.0,0.0,0.0,0.0,0.0,0.0,0.0,0.0,0.0,0.0,0.0,0.0,0.0,0.0,0.0,0.0,0.0,0.0,0.0,0.0,0.0,0.0,0.0,0.0,0.0,0.0,0.4276,0.3977,0.3521,0.3131,0.2735,0.0,0.0,0.0,0.0,0.0,0.0,0.0,0.0,0.0,-0.038,-0.0868,-0.1206,-0.1448,-0.1477,-0.1367,-0.1077,-0.0754,-0.0463,-0.021,-0.0084,0.0,0.0,0.0,0.0,0.0,0.0,0.0,0.0,0.0,0.0,0.0,0.0,0.0074,0.0149,0.0,0.0,0.0,0.0,0.0,0.0,0.0,0.0,0.0,0.0,0.0,0.0,1.0978,1.112,1.1121,1.0941,1.0544,0.0,0.0,0.0,1.0377,1.0522,1.1015,1.1186,1.1038,1.0557,1.0119,0.9703,0.9703,0.9643,0.9504,0.9397,0.9248,0.9076,0.8906,0.8651,0.8332,0.8057,0.764,0.0,0.0,0.0,0.0,0.0,0.0,0.0,0.0,0.0,0.0,0.0,0.0,0.0,0.0,0.0,0.0,0.0,0.0,0.0,0.0,0.0,0.0,0.0,0.0,0.0,0.0,0.0,0.0,0.0,0.0,0.0,0.0,0.0,0.0,0.0,0.0,0.0,0.0,0.3948,0.3579,0.3081,0.2596,0.2145,0.0,0.0,0.0,0.0,0.0,0.0,0.0758,0.0235,-0.028,-0.076,-0.1329,-0.178,-0.2161,-0.2173,-0.2052,-0.1794,-0.1155,-0.0728,-0.0471,-0.0128,0.0,0.0,0.0,0.0,0.0,0.0,0.0,0.0,0.0,0.0,0.0,0.0,0.0,0.0039,0.0,0.0,0.0,0.0,0.0,0.0,0.0,0.0,0.0,0.0,0.0,1.1192,1.1524,0.0,1.1557,1.1027,1.0582,1.0147,0.0,0.0,1.0059,1.0577,1.0984,1.1077,1.0821,1.0166,0.9791,0.9703,0.9703,0.9643,0.9504,0.9504,0.9426,0.9279,0.9217,0.8814,0.8196,0.7857,0.7517,0.7196,0.0,0.0,0.0,0.0,0.0,0.0,0.0,0.0,0.0,0.0,0.0,0.0,0.0,0.0,0.0,0.0,0.0,0.0,0.0,0.0,0.0,0.0,0.0,0.0,0.0,0.0,0.0,0.0,0.0,0.0,0.0,0.0,0.0,0.0,0.0,0.0,0.0,0.0,0.0,0.2618,0.2216,0.0,0.0,0.0,0.0,0.0936,0.0939,0.0759,0.0334,0.0126,-0.0294,-0.0965,-0.1759,-0.2472,-0.312,-0.314,-0.3037,-0.2814,-0.1832,-0.1117,-0.067,-0.0224,0.0,0.0,0.0,0.0,0.0,0.0,0.0,0.0,0.0,0.0,0.0,0.0,0.0,0.0,0.0,0.0,0.0,0.9259,0.9341,0.9408,0.9433,0.9759,1.0075,1.0267,1.1063,1.1611,0.0,1.1767,1.1671,1.1169,1.0745,1.0351,1.003,0.0,1.0526,1.0711,1.1435,1.1743,1.1509,1.1179,1.0841,1.0465,1.0208,1.0017,0.9884,0.9533,0.9328,0.9237,0.9217,0.8895,0.8386,0.8131,0.7759,0.7314,0.7055,0.6807,0.0,0.0,0.0,0.0,0.0,0.0,0.0,0.0,0.0,0.0,0.0,0.0,0.0,0.0,0.0,0.0,0.0,0.0,0.0,0.0,0.0,0.0,0.0,0.0,0.0,0.0,0.0,0.0,0.0,0.0,0.0,0.0,0.0,0.0,0.0,0.0,0.0,0.2044,0.1776,0.0,0.1335,0.1301,0.1172,0.0983,0.0863,0.0621,0.0337,-0.0043,-0.0516,-0.1031,-0.1928,-0.2658,-0.319,-0.3484,-0.3406,-0.2911,-0.2062,-0.13,-0.0673,-0.0225,0.0,0.0,-0.018,-0.0269,-0.0269,-0.0397,-0.0263,0.0,0.0,0.0,0.0,0.0,0.0,0.0,0.8969,0.9024,0.0,0.9149,0.9286,0.9427,0.9644,1.0034,1.0437,1.0798,1.1463,1.1902,1.1888,1.1942,1.1799,1.1375,1.0916,1.0515,1.0215,0.0,1.0629,1.0794,1.1577,1.1966,1.1888,1.1653,1.1314,1.0901,1.0643,1.0428,1.029,0.9948,0.9718,0.9644,0.9685,0.9455,0.9025,0.8834,0.8282,0.7503,0.7289,0.703,0.6805,0.0,0.0,0.0,0.0,0.0,0.0,0.0,0.0,0.0,0.0,0.0,0.0,0.0,0.0,0.0,0.0,0.0,0.0,0.0,0.0,0.0,0.0,0.0,0.0,0.0,0.0,0.0,0.0,0.0,0.0,0.0,0.0,0.0,0.0,0.2621,0.2273,0.1717,0.1557,0.1437,0.1324,0.1288,0.1186,0.0935,0.0767,0.0556,0.0215,-0.0175,-0.0571,-0.0966,-0.1824,-0.2553,-0.3092,-0.3497,-0.3452,-0.3002,-0.2198,-0.148,-0.0807,-0.0269,-0.0045,-0.0135,-0.0404,-0.0583,-0.0762,-0.0897,-0.0808,-0.0583,-0.0265,-0.0088,0.0,0.0,0.0,0.0,0.8891,0.8944,0.901,0.9092,0.9205,0.9503,1.0104,1.0271,1.0702,1.1764,1.1909,1.208,1.2449,1.2258,1.1975,1.1634,1.1057,1.063,1.0418,1.0215,1.032,1.0804,1.1336,1.1698,1.193,1.1489,1.1151,1.0947,1.0929,1.0853,1.0718,1.07,1.0611,1.0499,1.0633,1.0476,1.0092,0.9873,0.9042,0.7838,0.7674,0.7376,0.7015,0.0,0.0,0.0,0.0,0.0,0.0,0.0,0.0,0.0,0.0,0.0,0.0,0.0,0.0,0.0,0.0,0.0,0.0,0.0,0.0,0.0,0.0,0.0,0.0,0.0,0.0,0.0,0.0,0.0,0.0,0.0,0.0,0.0,0.2483,0.2437,0.2159,0.1575,0.1597,0.1599,0.1349,0.1307,0.1149,0.074,0.0697,0.0484,0.0045,-0.0224,-0.0493,-0.0673,-0.1391,-0.2108,-0.2867,-0.3047,-0.3181,-0.3136,-0.2198,-0.1525,-0.1076,-0.0359,-0.018,-0.0403,-0.0628,-0.0987,-0.1436,-0.1436,-0.1615,-0.1749,-0.0807,-0.0269,-0.0045,-0.0045,0.0,0.0,0.8742,0.885,0.8944,0.901,0.9176,0.9489,1.0037,1.0555,1.1123,1.1813,1.2234,1.2488,1.2502,1.23,1.2066,1.1774,0.0,1.0935,1.0639,1.0438,1.0645,1.1357,1.1807,1.2177,1.2479,1.2364,1.2201,1.2058,1.1673,1.1361,1.112,1.0745,1.0431,1.0228,1.0363,1.0214,0.9881,0.9781,0.9338,0.87,0.8283,0.7819,0.7374,0.0,0.0,0.0,0.0,0.0,0.0,0.0,0.0,0.0,0.0,0.0,0.0,0.0,0.0,0.0,0.0,0.0,0.0,0.0,0.0,0.0,0.0,0.0,0.0,0.0,0.0,0.0,0.0,0.0,0.0,0.0,0.2727,0.253,0.2242,0.1938,0.1631,0.14,0.1379,0.1397,0.1376,0.1378,0.1173,0.0755,0.0712,0.0491,0.0045,-0.009,-0.0224,-0.0493,-0.1031,-0.148,-0.1793,-0.2239,-0.2284,-0.1883,-0.148,-0.1031,-0.0583,-0.0404,-0.0404,-0.0673,-0.1256,-0.1749,-0.2195,-0.2419,-0.251,-0.2465,-0.1345,-0.0852,-0.0763,-0.0583,-0.0404,-0.0269,0.8645,0.8795,0.8905,0.8944,0.9336,0.9822,1.0353,1.1009,1.1632,1.2162,1.2499,1.2662,1.2579,1.2401,1.2204,0.0,0.0,1.1113,1.0791,1.0665,1.0901,1.1577,0.0,1.2361,1.2691,1.27,1.2627,1.2505,1.2123,1.1833,1.1631,1.1196,1.0924,1.0774,1.0798,1.0664,1.0411,1.0211,0.984,0.9354,0.8873,0.8333,0.778,0.778,0.7613,0.735,0.7296,0.7074,0.6738,0.6289,0.0,0.0,0.0,0.0,0.0,0.0,0.0,0.0,0.0,0.0,0.0,0.0,0.0,0.0,0.0,0.0,0.0,0.0,0.0,0.0,0.0,0.0,0.0,0.0,0.2382,0.2141,0.1959,0.1723,0.1534,0.1361,0.1334,0.1347,0.1408,0.1409,0.1195,0.0717,0.0718,0.0494,0.0045,0.0,-0.009,-0.0224,-0.0628,-0.0897,-0.1121,-0.1524,-0.1569,-0.1256,-0.1031,-0.0807,-0.0538,-0.0538,-0.0762,-0.1211,-0.1928,-0.2553,-0.3089,-0.3358,-0.3539,-0.3539,0.0,0.0,0.0,0.0,-0.0792,-0.0437,0.8611,0.8812,0.897,0.897,0.9646,1.035,1.0904,1.1494,1.2073,1.2619,0.0,1.2662,1.2674,1.2484,0.0,0.0,0.0,1.1169,0.0,1.0935,0.0,1.1587,1.2041,1.241,1.2725,1.2725,1.2652,1.2554,1.2397,1.2283,1.2126,1.1852,1.1728,1.1694,1.1553,1.1427,1.1242,1.082,1.0318,0.9736,0.9335,0.8818,0.8252,0.8252,0.7996,0.7637,0.7503,0.7188,0.6792,0.6355,0.0,0.0,0.0,0.0,0.0,0.0,0.0,0.0,0.0,0.0,0.0,0.0,0.0,0.0,0.0,0.0,0.0,0.0,0.0,0.0,0.0,0.0,0.0,0.0,0.1976,0.1543,0.1637,0.1654,0.1613,0.1439,0.1418,0.1391,0.1391,0.1391,0.1166,0.0718,0.0673,0.0449,0.0,-0.0045,0.0,0.0,0.0,-0.0493,-0.0628,-0.0852,-0.0987,-0.0987,-0.0762,-0.0673,-0.0718,-0.0807,-0.1211,-0.1929,-0.2689,-0.3403,-0.4028,-0.4253,-0.4523,-0.4614,-0.317,-0.2498,-0.2225,-0.1744,-0.1198,-0.0674,0.8676,0.9075,0.947,0.947,1.0087,1.0782,1.1362,1.1626,1.1931,1.2472,1.2544,1.2508,1.2467,0.0,0.0,0.0,0.0,1.1,0.0,0.0,1.1518,1.1596,1.2347,1.2793,1.2856,1.2856,1.2856,1.2832,1.2686,1.2505,1.2249,1.2101,1.1902,1.1694,1.1553,1.1377,1.1099,1.0531,1.0035,0.9614,0.9211,0.8836,0.8521,0.8521,0.8332,0.8059,0.7876,0.7536,0.7113,0.6417,0.5968,0.5583,0.5052,0.0,0.0,0.0,0.0,0.0,0.0,0.0,0.0,0.0,0.0,0.0,0.0,0.0,0.0,0.0,0.0,0.0,0.0,0.0,0.0,0.2036,0.1811,0.1628,0.1474,0.1455,0.1427,0.1427,0.1387,0.1391,0.1391,0.1256,0.1031,0.0718,0.0538,0.0224,-0.0314,-0.0314,-0.0314,-0.0314,-0.0359,-0.0314,-0.0135,-0.018,-0.0225,-0.0225,-0.0359,0.0,-0.0718,-0.13,-0.1883,-0.2419,-0.3314,-0.403,-0.4569,-0.4788,-0.4877,-0.487,-0.3913,-0.3275,-0.2874,-0.2512,-0.1939,-0.1345,0.9393,0.9638,0.9908,0.9948,1.0539,1.1127,1.1482,1.1842,1.2141,1.2401,1.2401,1.2318,1.2258,0.0,0.0,0.0,0.0,0.0,0.0,1.1471,1.1895,1.1895,1.2553,1.2905,1.2905,1.2905,1.2905,1.2905,1.2783,1.2603,1.2406,1.22,1.2026,0.0,0.0,0.0,0.0,0.0,0.0,0.0,0.0,0.0,0.86,0.86,0.8474,0.8268,0.7916,0.7547,0.7095,0.6436,0.6009,0.5677,0.5187,0.5106,0.5199,0.0,0.0,0.0,0.0,0.0,0.0,0.0,0.0,0.0,0.0,0.0,0.0,0.0,0.0,0.3333,0.287,0.0,0.2293,0.1944,0.1689,0.1526,0.141,0.1381,0.1391,0.1391,0.13,0.1256,0.1256,0.1031,0.0762,0.0359,0.0269,-0.009,-0.0718,-0.0762,-0.0762,-0.0762,-0.0628,-0.0448,-0.0224,-0.0045,-0.009,-0.0224,-0.0583,-0.0942,-0.13,-0.2108,-0.2777,-0.3267,-0.4071,-0.4699,-0.5062,-0.5282,-0.5371,-0.5309,-0.4798,-0.4267,-0.3703,-0.3247,-0.2665,-0.199,1.0201,1.0332,1.0449,1.0414,1.0957,1.1446,1.1583,1.2001,1.2294,1.2294,1.2174,1.2048,1.1957,1.1774,1.1549,0.0,0.0,0.0,0.0,1.1832,1.2203,1.2203,1.2646,1.2905,1.2905,1.2905,1.2905,1.2905,1.2774,1.2676,1.2529,1.2298,0.0,0.0,0.0,0.0,0.0,0.0,0.0,0.0,0.0,0.0,0.8521,0.8441,0.8362,0.8209,0.7729,0.73,0.6869,0.6322,0.5946,0.5709,0.5407,0.5297,0.5333,0.5531,0.5482,0.0,0.0,0.0,0.0,0.0,0.0,0.0,0.0,0.4159,0.3726,0.3384,0.3171,0.2981,0.2711,0.2348,0.2056,0.2018,0.168,0.1408,0.1387,0.1391,0.1391,0.1345,0.1211,0.1031,0.0897,0.0628,0.0314,-0.0179,-0.0314,-0.0628,-0.13,-0.1345,-0.1389,-0.1389,-0.1121,-0.0852,-0.0583,-0.0359,-0.0359,-0.0583,-0.1076,-0.1569,-0.2108,-0.2957,-0.3583,-0.4074,-0.4788,-0.5235,-0.5463,-0.5644,-0.5688,-0.5667,-0.5491,-0.5095,-0.4518,-0.3991,-0.3347,-0.2588,1.0547,1.0992,1.1235,1.089,1.134,1.182,1.1997,1.1995,1.1963,1.1963,1.1781,1.1597,1.1412,1.1196,1.1119,0.0,0.0,0.0,0.0,1.1953,1.2203,1.2203,1.2646,1.2905,1.2905,1.2905,1.2905,1.2905,1.2881,1.2808,1.2676,0.0,0.0,0.0,0.0,0.0,0.0,0.0,0.0,0.0,0.0,0.0,0.8215,0.791,0.7803,0.7696,0.7171,0.6766,0.6408,0.5982,0.5736,0.5595,0.538,0.5297,0.5333,0.5531,0.56,0.5628,0.5831,0.5893,0.5852,0.586,0.544,0.4894,0.0,0.4003,0.3513,0.3124,0.2914,0.2785,0.265,0.2301,0.2019,0.207,0.1719,0.1387,0.139,0.1391,0.1345,0.1166,0.1121,0.0852,0.0179,-0.0134,-0.0493,-0.0942,-0.1345,-0.1749,-0.2064,-0.224,-0.2329,-0.2329,-0.2153,-0.1794,-0.13,-0.1256,-0.1256,-0.13,-0.1839,-0.2422,-0.3048,-0.3582,-0.4119,-0.4661,-0.5149,-0.5463,-0.5688,-0.5688,-0.5688,-0.5675,-0.554,-0.5421,-0.5217,-0.4758,-0.4045,-0.3212,1.0764,1.0989,1.1119,1.1027,1.1417,1.1793,1.1918,1.1844,1.176,1.1682,1.1431,1.1207,1.1075,1.1047,1.1186,1.1472,1.1642,1.1802,1.1943,1.2363,1.2607,1.2607,1.2807,1.2905,1.2905,1.2905,1.2905,1.2905,1.2905,1.2832,1.27,0.0,0.0,0.0,0.0,0.0,0.0,0.0,0.0,0.0,0.0,0.0,0.7735,0.7241,0.6966,0.6804,0.6652,0.6413,0.0,0.0,0.565,0.5567,0.5352,0.5365,0.551,0.5722,0.5681,0.5628,0.5709,0.5721,0.569,0.5518,0.5086,0.4539,0.4176,0.3647,0.319,0.2929,0.2728,0.2609,0.259,0.2277,0.2033,0.2078,0.1725,0.1391,0.1391,0.1391,0.1345,0.1121,0.0942,0.0583,-0.0179,-0.0673,-0.1211,-0.1705,-0.2017,-0.2465,-0.3005,-0.3093,-0.3136,-0.3136,-0.2914,-0.2555,-0.2061,-0.1927,-0.1927,-0.2061,-0.2688,-0.3224,-0.3626,-0.4431,-0.4968,-0.5285,-0.5508,-0.5644,-0.5688,-0.5688,-0.5688,-0.5677,-0.5556,-0.5478,-0.5402,-0.4963,-0.4402,-0.3724,1.0717,1.0783,1.085,1.0945,1.1231,1.1485,1.1653,1.1597,1.1493,1.1348,1.1038,1.0824,1.0821,1.0935,1.1227,1.1731,1.2051,1.2262,1.2379,1.2705,1.2905,1.2905,1.2905,0.0,1.2905,1.2905,1.2905,1.2905,1.2905,1.2832,0.0,0.0,0.0,0.0,0.0,0.0,0.0,0.0,0.0,0.0,0.0,0.0,0.7445,0.6862,0.6434,0.6096,0.6155,0.6059,0.0,0.0,0.5513,0.5489,0.5352,0.5413,0.5547,0.5703,0.5669,0.5528,0.547,0.5433,0.5289,0.4989,0.4563,0.411,0.3817,0.3307,0.2919,0.2815,0.2628,0.2529,0.259,0.2277,0.2033,0.2078,0.1725,0.1391,0.1391,0.1391,0.1345,0.1121,0.0807,0.0314,-0.0403,-0.1121,-0.1794,-0.2422,-0.2778,-0.3224,-0.3765,-0.3898,-0.3987,-0.3987,-0.3764,-0.3405,-0.2999,-0.2865,-0.2865,-0.2999,-0.3624,-0.4028,-0.434,-0.5102,-0.5552,-0.5688,-0.5688,-0.5688,-0.5688,-0.5688,-0.5688,-0.568,-0.5594,-0.5537,-0.5486,-0.5191,-0.471,-0.4152,1.0322,1.0486,1.0621,1.0621,1.0687,1.0888,1.1346,1.1231,1.1078,1.0935,1.063,1.0469,1.0612,1.0732,1.112,1.1922,1.2124,1.2389,1.2856,1.2895,1.2905,1.2905,1.2905,1.2905,1.2905,1.2905,1.2905,1.2905,1.2905,1.2832,0.0,0.0,0.0,0.0,0.0,0.0,0.0,0.0,0.0,0.0,0.0,0.0,0.7462,0.6977,0.6386,0.5788,0.5659,0.0,0.0,0.0,0.5301,0.5301,0.5297,0.5305,0.0,0.5408,0.5423,0.5357,0.5176,0.4987,0.4724,0.4261,0.3916,0.3659,0.3387,0.3046,0.2823,0.2785,0.2628,0.2529,0.259,0.2277,0.2033,0.2078,0.1725,0.1391,0.1391,0.1391,0.1345,0.1121,0.0673,0.0134,-0.0628,-0.1345,-0.2153,-0.3093,-0.3851,-0.4253,-0.43,-0.4699,-0.4966,-0.4966,-0.4748,-0.4525,-0.4253,-0.4253,-0.4253,-0.4253,-0.4525,-0.4928,-0.5371,-0.5597,-0.5688,-0.5688,-0.5688,-0.5688,-0.5688,-0.5688,-0.5688,-0.5688,-0.5686,-0.561,-0.5505,-0.5499,-0.5095,-0.4485,0.9617,0.9696,0.9775,0.9923,0.9952,1.0079,1.0429,1.0631,1.0678,1.0409,1.0108,0.0,0.0,0.0,0.0,0.0,1.2368,1.2474,1.2618,1.2627,1.2627,1.2627,1.2627,1.2627,1.2627,1.2627,1.2627,1.2627,1.2627,1.2578,0.0,0.0,0.0,0.0,0.0,0.0,0.0,0.0,0.0,0.0,0.0,0.0,0.6773,0.6207,0.5873,0.5648,0.0,0.0,0.0,0.0,0.5297,0.5297,0.5297,0.5326,0.5333,0.5131,0.4973,0.4802,0.4447,0.4159,0.3898,0.3688,0.3397,0.3128,0.2996,0.277,0.2589,0.2589,0.255,0.2529,0.259,0.2331,0.2122,0.2116,0.1836,0.1545,0.1432,0.1391,0.139,0.13,0.0897,0.0314,-0.0448,-0.1569,-0.2509,-0.3136,-0.3898,-0.4431,-0.4743,-0.4921,-0.5099,-0.528,-0.5193,-0.5057,-0.4788,-0.4743,-0.4743,-0.4788,-0.5057,-0.5329,-0.5599,-0.5688,-0.5688,-0.5688,-0.5688,-0.5688,-0.5688,-0.5688,-0.5688,-0.5688,-0.5688,-0.5664,-0.5618,-0.5537,-0.5283,-0.4893,0.9157,0.9168,0.9239,0.9359,0.943,0.0,0.0,0.0,0.0,0.0,0.0,0.0,0.0,0.0,0.0,0.0,0.0,1.2283,1.2283,1.2249,1.22,1.22,1.22,1.22,1.22,1.2249,1.2348,1.2454,1.2523,1.2487,0.0,0.0,0.0,0.0,0.0,0.0,0.0,0.0,0.0,0.0,0.0,0.0,0.6502,0.5911,0.572,0.0,0.0,0.0,0.0,0.5341,0.5337,0.5378,0.5262,0.5133,0.4983,0.4675,0.4396,0.4136,0.3749,0.3491,0.3292,0.3124,0.2928,0.2761,0.2686,0.2534,0.2431,0.247,0.2431,0.2443,0.2561,0.2384,0.218,0.2092,0.1859,0.162,0.1431,0.1391,0.1391,0.1391,0.0987,0.0493,-0.0045,-0.1344,-0.2374,-0.3047,-0.3851,-0.4478,-0.4879,-0.5055,-0.5235,-0.5508,-0.5508,-0.5416,-0.5235,-0.5235,-0.5235,-0.5235,-0.5416,-0.5552,-0.5688,-0.5688,-0.5688,-0.5688,-0.5688,-0.5688,-0.5688,-0.5688,-0.5688,-0.5688,-0.5688,-0.5688,-0.568,-0.5602,-0.5456,-0.5213,0.8859,0.8923,0.8955,0.0,0.0,0.0,0.0,0.0,0.0,0.0,0.0,0.0,0.0,0.0,0.0,0.0,0.0,0.0,1.1852,0.0,0.0,1.1653,1.1653,1.1619,1.1619,1.1769,1.2007,1.2358,1.2472,1.2485,1.2455,0.0,0.0,0.0,0.0,0.0,0.0,0.0,0.0,0.0,0.0,0.0,0.6609,0.6086,0.0,0.0,0.0,0.0,0.0,0.5462,0.5418,0.5526,0.517,0.4755,0.4319,0.4047,0.3732,0.3402,0.3066,0.2958,0.2875,0.2578,0.2536,0.2525,0.2402,0.2267,0.2227,0.2427,0.231,0.2232,0.2431,0.2318,0.2126,0.1968,0.1797,0.1617,0.1386,0.139,0.1391,0.1391,0.0987,0.0628,0.0403,-0.0673,-0.1794,-0.2782,-0.3719,-0.4389,-0.4705,-0.5149,-0.5463,-0.5688,-0.5688,-0.5688,-0.5688,-0.5688,-0.5688,-0.5688,-0.5688,-0.5688,-0.5688,-0.5688,-0.5688,-0.5688,-0.5688,-0.5688,-0.5688,-0.5688,-0.5688,-0.5688,-0.5688,-0.5688,-0.5688,-0.5688,-0.5615,-0.5397,0.0,0.0,0.0,0.0,0.0,0.0,0.0,0.0,0.0,0.0,0.0,0.0,0.0,0.0,0.0,0.0,0.0,0.0,1.115,0.0,0.0,0.0,0.0,0.0,1.0728,1.0846,0.0,0.0,0.0,1.151,1.1796,0.0,0.0,0.0,0.0,0.0,0.0,0.0,0.0,0.0,0.0,0.0,0.6053,0.0,0.0,0.0,0.0,0.0,0.0,0.5665,0.5404,0.5162,0.4831,0.4442,0.4034,0.3587,0.3201,0.2861,0.2619,0.249,0.237,0.2298,0.222,0.2174,0.2159,0.1923,0.1681,0.1752,0.1758,0.1768,0.1801,0.1895,0.1848,0.1545,0.1435,0.1288,0.0937,0.1031,0.1166,0.1166,0.1076,0.0852,0.0448,-0.0359,-0.1219,-0.2109,-0.3166,-0.4034,-0.4661,-0.4968,-0.528,-0.5688,-0.5688,-0.5688,-0.5688,-0.5688,-0.5688,-0.5688,-0.5688,-0.5688,-0.5688,-0.5688,-0.5688,-0.5688,-0.5688,-0.5688,-0.5688,-0.5688,-0.5688,-0.5688,-0.5688,-0.5688,-0.5688,-0.5688,-0.5669,-0.5577,0.0,0.0,0.0,0.0,0.0,0.0,0.0,0.0,0.0,0.0,0.0,0.0,0.0,0.0,0.0,0.0,0.0,0.0,0.0,0.0,0.0,0.0,0.0,0.0,0.0,0.0,0.0,0.0,0.0,0.0,0.0,0.0,0.0,0.0,0.0,0.0,0.0,0.0,0.0,0.0,0.0,0.0,0.0,0.0,0.0,0.0,0.0,0.0,0.0,0.5852,0.5438,0.5028,0.4693,0.4229,0.3675,0.3168,0.2821,0.2522,0.2356,0.2188,0.2061,0.2059,0.1911,0.1725,0.1715,0.1338,0.1025,0.1114,0.1052,0.1027,0.1273,0.1326,0.1236,0.1043,0.0924,0.0811,0.0579,0.0718,0.0852,0.1076,0.0987,0.0807,0.0538,-0.0224,-0.104,-0.1848,-0.2882,-0.3786,-0.4462,-0.4833,-0.5217,-0.5583,-0.567,-0.5688,-0.5688,-0.5688,-0.5688,-0.5688,-0.5688,-0.5688,-0.5688,-0.5688,-0.5688,-0.5688,-0.5688,-0.5688,-0.5688,-0.5688,-0.5688,-0.5688,-0.5688,-0.5688,-0.5688,-0.5688,-0.5688,-0.568,0.0,0.0,0.0,0.0,0.0,0.0,0.0,0.0,0.0,0.905,0.9116,0.9275,0.9713,0.9796,0.0,0.0,0.0,0.0,0.0,0.0,0.0,0.0,0.0,0.0,0.0,0.9335,0.0,0.0,0.0,0.0,0.0,0.0,0.0,0.0,0.0,0.0,0.0,0.0,0.0,0.0,0.0,0.0,0.0,0.0,0.0,0.0,0.0,0.0,0.0,0.5938,0.5524,0.5016,0.4647,0.4022,0.3346,0.2834,0.2522,0.2322,0.2188,0.2018,0.185,0.1817,0.1575,0.1289,0.1115,0.0638,0.0289,0.0471,0.0221,0.0113,0.0681,0.0617,0.0437,0.0457,0.0252,0.0085,0.0178,0.0224,0.0403,0.0852,0.0762,0.0673,0.0628,-0.018,-0.1045,-0.1902,-0.2887,-0.3658,-0.4233,-0.4773,-0.5184,-0.5496,-0.5615,-0.5688,-0.5688,-0.5688,-0.5688,-0.5688,-0.5688,-0.5688,-0.5688,-0.5688,-0.5688,-0.5688,-0.5688,-0.5688,-0.5688,-0.5688,-0.5688,-0.5688,-0.5688,-0.5688,-0.5688,-0.5688,-0.5688,-0.5688,0.0,0.0,0.0,0.0,0.0,0.0,0.0,0.0,0.0,0.0,0.0,0.0,0.0,0.0,0.0,0.0,0.0,0.0,0.0,0.0,0.0,0.0,0.0,0.0,0.8527,0.858,0.8824,0.928,0.0,0.0,0.0,0.0,0.0,0.0,0.0,0.0,0.0,0.0,0.0,0.0,0.0,0.0,0.0,0.0,0.0,0.0,0.0,0.0,0.0,0.0,0.5398,0.4994,0.4315,0.3713,0.3139,0.2621,0.2221,0.1985,0.1951,0.1817,0.1614,0.1446,0.1147,0.0812,0.0508,-0.0102,-0.0583,-0.0562,-0.0673,-0.0684,-0.03,-0.0266,-0.031,-0.0365,-0.0789,-0.1102,-0.1001,-0.071,-0.0403,-0.0179,0.0359,0.0538,0.0179,-0.041,-0.1206,-0.2223,-0.308,-0.3864,-0.448,-0.4789,-0.5118,-0.5499,-0.5615,-0.5688,-0.5688,-0.5688,-0.5688,-0.5688,-0.5688,-0.5688,-0.5688,-0.5688,-0.5688,-0.5688,-0.5688,-0.5688,-0.5688,-0.5688,-0.5688,-0.5688,-0.5688,-0.5688,-0.5688,-0.5688,-0.5688,-0.5688,0.0,0.0,0.0,0.0,0.0,0.0,0.0,0.0,0.0,0.0,0.816,0.8263,0.0,0.0,0.0,0.0,0.0,0.0,0.0,0.0,0.0,0.0,0.0,0.8103,0.8043,0.8043,0.8078,0.8178,0.0,0.7618,0.7678,0.6956,0.6463,0.6188,0.5682,0.0,0.0,0.0,0.0,0.0,0.0,0.0,0.0,0.0,0.0,0.0,0.0,0.0,0.0,0.0,0.4976,0.4573,0.3941,0.3458,0.2958,0.2321,0.2018,0.1884,0.1783,0.158,0.1412,0.1244,0.0773,0.0269,-0.0168,-0.084,-0.1418,-0.1505,-0.1664,-0.1622,-0.1159,-0.1227,-0.1263,-0.1112,-0.144,-0.1609,-0.1342,-0.1062,-0.0718,-0.0269,0.0134,0.018,-0.0182,-0.0919,-0.1778,-0.275,-0.3512,-0.4121,-0.4467,-0.4955,-0.5289,-0.5501,-0.5716,-0.5793,-0.5688,-0.5688,-0.5688,-0.5688,-0.5688,-0.5688,-0.5688,-0.5688,-0.5688,-0.5688,-0.5688,-0.5688,-0.5688,-0.5688,-0.5688,-0.5688,-0.5688,-0.5688,-0.5688,-0.5688,-0.5688,-0.5688,0.0,0.0,0.0,0.0,0.0,0.0,0.0,0.8008,0.7882,0.7838,0.7652,0.7708,0.8138,0.8119,0.0,0.0,0.0,0.0,0.0,0.0,0.0,0.0,0.0,0.7788,0.767,0.0,0.0,0.7204,0.7044,0.0,0.0,0.0,0.0,0.0,0.466,0.4356,0.4116,0.0,0.0,0.0,0.0,0.5038,0.0,0.0,0.0,0.0,0.0,0.499,0.4994,0.4694,0.4325,0.392,0.3418,0.3088,0.2721,0.2051,0.1817,0.1748,0.158,0.1379,0.1144,0.0975,0.0403,-0.0269,-0.084,-0.1513,-0.2052,-0.2253,-0.2463,-0.2433,-0.182,-0.2001,-0.208,-0.1708,-0.1953,-0.203,-0.1592,-0.1412,-0.1076,-0.0403,-0.0269,-0.0362,-0.06,-0.1438,-0.2312,-0.3131,-0.3888,-0.4369,-0.4483,-0.51,-0.5461,-0.5479,-0.5701,-0.5769,-0.5726,-0.5702,-0.5688,-0.5688,-0.5688,-0.5688,-0.5688,-0.5688,-0.5688,-0.5688,-0.5688,-0.5688,-0.5688,-0.5688,-0.5688,-0.5688,-0.5688,-0.5688,-0.5688,-0.5688,-0.5688,-0.5688,0.0,0.0,0.0,0.0,0.0,0.0,0.0,0.7752,0.7489,0.73,0.7312,0.7212,0.6905,0.7275,0.0,0.0,0.0,0.0,0.0,0.0,0.0,0.0,0.0,0.0,0.0,0.0,0.0,0.6927,0.6686,0.0,0.0,0.0,0.0,0.0,0.0,0.3879,0.3824,0.3863,0.0,0.0,0.0,0.0,0.0,0.0,0.0,0.0,0.0,0.4189,0.3925,0.3892,0.3558,0.3056,0.2618,0.2484,0.235,0.1782,0.1513,0.1344,0.1344,0.1077,0.0775,0.0438,-0.0034,-0.0638,-0.1379,-0.1951,-0.2423,-0.2621,-0.2827,-0.2788,-0.2233,-0.2367,-0.2432,-0.2082,-0.2539,-0.2737,-0.2277,-0.2142,-0.1885,-0.1345,-0.1121,-0.1085,-0.1385,-0.1927,-0.2539,-0.3135,-0.3937,-0.4479,-0.4734,-0.4997,-0.5234,-0.5509,-0.5509,-0.5626,-0.5888,-0.5739,-0.5688,-0.5688,-0.5688,-0.5688,-0.5688,-0.5688,-0.5688,-0.5688,-0.5688,-0.5688,-0.5688,-0.5688,-0.5688,-0.5688,-0.5688,-0.5688,-0.5688,-0.5688,-0.5688,-0.5688,0.0,0.0,0.0,0.0,0.0,0.0,0.0,0.7377,0.7084,0.6761,0.6854,0.6809,0.6447,0.6774,0.695,0.0,0.0,0.0,0.0,0.0,0.0,0.0,0.0,0.0,0.0,0.0,0.7128,0.6673,0.6265,0.0,0.0,0.0,0.0,0.0,0.0,0.3755,0.3691,0.3691,0.0,0.0,0.0,0.0,0.0,0.0,0.0,0.0,0.0,0.0,0.3121,0.2986,0.2753,0.2455,0.2049,0.1848,0.1719,0.1544,0.1414,0.1344,0.1206,0.1012,0.0775,0.0346,-0.031,-0.1034,-0.1655,-0.228,-0.2824,-0.2958,-0.3058,-0.3034,-0.2729,-0.2833,-0.2886,-0.2623,-0.283,-0.282,-0.2355,-0.1965,-0.1525,-0.1031,-0.0952,-0.0967,-0.1081,-0.1869,-0.2735,-0.3636,-0.4119,-0.4537,-0.4784,-0.5051,-0.5255,-0.5491,-0.5646,-0.5769,-0.5904,-0.5858,-0.5801,-0.5688,-0.5688,-0.5688,-0.5688,-0.5688,-0.5688,-0.5688,-0.5552,-0.5508,-0.5508,-0.5327,-0.5371,-0.5508,-0.5508,-0.5597,-0.5688,-0.5688,-0.5688,-0.5688,0.0,0.0,0.0,0.0,0.0,0.0,0.7175,0.6985,0.6689,0.6328,0.6447,0.6447,0.6112,0.6359,0.6436,0.6105,0.0,0.0,0.0,0.0,0.0,0.0,0.0,0.0,0.0,0.0,0.7082,0.6504,0.6133,0.567,0.0,0.0,0.4239,0.3931,0.0,0.0,0.0,0.0,0.0,0.0,0.0,0.0,0.0,0.0,0.0,0.0,0.0,0.0,0.0,0.0,0.0,0.1817,0.1547,0.1312,0.0,0.1274,0.1323,0.1294,0.1145,0.0953,0.0716,0.0244,-0.0484,-0.1246,-0.1767,-0.2387,-0.2891,-0.3092,-0.3125,-0.3133,-0.3057,-0.3109,-0.3141,0.0,-0.3023,-0.2944,-0.2397,-0.1921,-0.1436,-0.0897,-0.0863,-0.0878,-0.0896,-0.1779,-0.2738,-0.3666,-0.4038,-0.4399,-0.4748,-0.4972,-0.5209,-0.5534,-0.5664,-0.5796,-0.5958,-0.5888,-0.5812,-0.5688,-0.5688,-0.5688,-0.5688,-0.5644,-0.5599,-0.5599,-0.5371,-0.528,-0.528,-0.5099,-0.5099,-0.528,-0.5371,-0.5508,-0.5599,-0.5688,-0.5688,-0.5688,0.0,0.0,0.0,0.0,0.0,0.0,0.0,0.6526,0.6303,0.604,0.6187,0.6166,0.5844,0.6056,0.5978,0.5363,0.0,0.0,0.0,0.0,0.0,0.0,0.0,0.0,0.0,0.0,0.0,0.0,0.6444,0.5889,0.4884,0.4568,0.4176,0.3812,0.0,0.0,0.0,0.0,0.0,0.0,0.0,0.0,0.0,0.0,0.0,0.0,0.0,0.0,0.0,0.0,0.0,0.0,0.0,0.0976,0.0843,0.1043,0.1097,0.1114,0.1084,0.0858,0.0522,0.0102,-0.0538,-0.1244,-0.1783,-0.2154,-0.2523,-0.2922,-0.2989,-0.3016,-0.3099,-0.3151,-0.316,-0.3015,-0.3214,-0.3151,-0.2397,-0.2227,-0.193,-0.1166,-0.1077,-0.1131,-0.1201,-0.1884,-0.2525,-0.305,-0.3589,-0.4118,-0.4661,-0.479,-0.5035,-0.5584,-0.5388,-0.5566,-0.6083,-0.5852,-0.5691,-0.5688,-0.5688,-0.5688,-0.5688,-0.5508,-0.5416,-0.5371,-0.5099,-0.501,-0.501,-0.501,-0.501,-0.501,-0.528,-0.5416,-0.5416,-0.5644,-0.5688,-0.5688,0.0,0.0,0.0,0.0,0.0,0.0,0.0,0.5992,0.5831,0.5545,0.5862,0.5976,0.5702,0.5894,0.5864,0.5332,0.0,0.0,0.0,0.0,0.0,0.0,0.0,0.0,0.0,0.0,0.0,0.0,0.0,0.0,0.5022,0.4405,0.4024,0.3781,0.369,0.3477,0.0,0.0,0.0,0.0,0.0,0.0,0.2253,0.0,0.0,0.0,0.0,0.0,0.0,0.0,0.0,0.0,0.0,0.0,0.0,0.0842,0.0995,0.1084,0.1109,0.0846,0.0537,0.0209,-0.038,-0.1003,-0.1453,-0.191,-0.2356,-0.2721,-0.2889,-0.305,-0.3277,-0.3367,-0.3438,-0.3544,-0.341,-0.3167,-0.2662,-0.2028,-0.1391,-0.0718,-0.0318,-0.0277,-0.0848,-0.1424,-0.2096,-0.2953,-0.3547,-0.4087,-0.4616,-0.464,-0.4926,-0.5532,-0.5472,-0.5561,-0.5735,-0.5662,-0.5496,-0.5235,-0.5235,-0.5235,-0.5235,-0.5146,-0.5144,-0.5099,-0.4879,-0.4792,-0.4792,-0.4612,-0.4612,-0.4792,-0.4882,-0.5104,-0.5416,-0.5463,-0.5597,-0.5688,0.0,0.0,0.0,0.0,0.0,0.0,0.0,0.5561,0.548,0.5285,0.5647,0.5824,0.5555,0.5711,0.5668,0.5199,0.0,0.0,0.0,0.0,0.0,0.0,0.0,0.0,0.0,0.0,0.0,0.0,0.0,0.0,0.0,0.0,0.0,0.3601,0.3446,0.3168,0.0,0.0,0.0,0.0,0.0,0.0,0.1446,0.0,0.0,0.0,0.0,0.0,0.0,0.0,0.0,0.0,0.0,0.0,0.0,0.0,0.0819,0.1001,0.107,0.0915,0.0642,0.0382,-0.0103,-0.0586,-0.0966,-0.143,-0.1918,-0.242,-0.2676,-0.296,-0.3362,-0.3487,-0.3605,-0.3824,-0.3609,-0.3261,-0.2687,-0.1903,-0.1076,-0.0224,0.0091,0.0,-0.0698,-0.1352,-0.2097,-0.2887,-0.3565,-0.4098,-0.452,-0.4553,-0.4774,-0.5227,-0.5227,-0.5306,-0.545,-0.5405,-0.526,-0.501,-0.501,-0.501,-0.501,-0.4924,-0.4879,-0.4879,-0.4659,-0.4569,0.0,-0.4389,-0.4389,-0.4569,-0.4661,-0.4882,-0.5149,-0.5327,-0.5463,-0.5597,0.0,0.0,0.0,0.0,0.0,0.0,0.0,0.0,0.0,0.0,0.5526,0.5697,0.5428,0.5527,0.5399,0.0,0.0,0.0,0.0,0.0,0.0,0.0,0.0,0.0,0.0,0.0,0.0,0.0,0.599,0.5481,0.4764,0.0,0.0,0.0,0.3035,0.0,0.0,0.0,0.0,0.0,0.1244,0.1042,0.0,0.0,0.0,0.0,0.0,0.0,0.0,0.0,0.0,0.0,0.0,0.0,0.0,0.0,0.0,0.0,0.0,0.0993,0.0833,0.0575,0.0269,-0.0067,-0.0403,-0.0773,0.0,-0.2018,-0.2405,-0.2787,-0.3374,-0.3569,-0.3647,-0.3871,-0.3767,-0.3389,-0.2556,-0.177,-0.0897,0.0224,0.0134,-0.0224,-0.0718,-0.166,-0.2422,-0.2911,-0.3648,-0.4194,-0.438,-0.4508,-0.4654,-0.4754,-0.4752,-0.4887,-0.516,-0.506,-0.4966,-0.4966,-0.4966,-0.4966,-0.4966,-0.4748,-0.4661,-0.4661,-0.4389,-0.43,-0.43,-0.43,-0.43,-0.4344,-0.4569,-0.4705,-0.475,-0.5193,-0.5371,-0.5416,0.0,0.0,0.0,0.0,0.0,0.0,0.0,0.0,0.0,0.0,0.0,0.5555,0.5289,0.5453,0.0,0.0,0.0,0.0,0.0,0.0,0.0,0.0,0.0,0.0,0.0,0.0,0.0,0.5698,0.5574,0.5126,0.44,0.3866,0.0,0.0,0.0,0.0,0.0,0.0,0.0,0.0,0.064,0.0472,0.0,0.0,0.0,0.0,0.0101,0.0101,0.0,0.0,0.0,0.0,0.0,0.0,0.0,0.0,0.0371,0.0472,0.0775,0.0,0.0815,0.0742,0.0539,0.0303,0.0,-0.0505,-0.1076,-0.1817,-0.237,-0.2894,-0.3411,-0.3569,-0.3647,-0.3871,-0.3602,-0.3219,-0.2687,-0.1461,-0.0448,0.0045,-0.0134,-0.0538,-0.1166,-0.1972,-0.2689,-0.3406,-0.3738,-0.4064,-0.433,-0.4351,-0.44,-0.4422,-0.4422,-0.4557,-0.4829,-0.4804,-0.4659,-0.4478,-0.4478,-0.4478,-0.4476,-0.4433,-0.4389,-0.4389,-0.4344,-0.43,-0.43,-0.43,-0.43,-0.43,-0.4389,-0.4525,-0.475,-0.5013,-0.5235,-0.5416,0.0,0.0,0.0,0.0,0.0,0.0,0.0,0.0,0.0,0.0,0.0,0.0,0.0,0.0,0.0,0.0,0.0,0.0,0.0,0.0,0.0,0.0,0.0,0.0,0.0,0.0,0.0,0.0,0.0,0.4694,0.0,0.0,0.0,0.0,0.0,0.0,0.0,0.0,0.0,0.0,0.0236,0.0,0.0,0.0,0.0,0.0,0.0,0.0,0.0,0.0,0.0,0.0,0.0,0.0,0.0,0.0,0.0236,0.0337,0.0506,0.0674,0.0809,0.0909,0.0841,0.0673,0.0303,-0.0202,-0.0806,-0.1614,-0.229,-0.2901,-0.3417,-0.3638,-0.3797,-0.3938,-0.3615,-0.3094,-0.2242,-0.1291,-0.0628,-0.0359,-0.0762,-0.1256,-0.1837,-0.2553,-0.3227,-0.3723,-0.3944,-0.4168,-0.43,-0.43,-0.43,-0.43,-0.43,-0.4389,-0.4525,-0.4525,-0.4433,-0.43,-0.43,-0.43,-0.43,-0.43,-0.43,-0.43,-0.43,-0.43,-0.43,-0.43,-0.43,-0.43,-0.43,-0.4389,-0.4569,-0.4877,-0.5099,-0.5235,0.0,0.0,0.0,0.0,0.0,0.0,0.0,0.0,0.0,0.0,0.0,0.0,0.0,0.0,0.0,0.0,0.0,0.0,0.0,0.0,0.0,0.0,0.0,0.0,0.0,0.0,0.0,0.0,0.0,0.0,0.0,0.0,0.0,0.0,0.0,0.0,0.0,0.0,0.0,-0.0034,0.0,0.0,0.0,0.0,0.0,0.0,0.0,0.0,0.0,0.0,0.0,0.0,0.0,0.0,0.0,0.0,0.0,0.0,0.0303,0.0507,0.078,0.0947,0.1015,0.0913,0.0508,0.0,-0.0605,-0.1487,-0.2253,-0.2916,-0.3406,-0.3728,-0.3924,-0.396,-0.3716,-0.3062,-0.1788,-0.1435,-0.121,-0.0986,-0.1569,-0.2152,-0.2643,-0.3272,-0.3723,-0.3946,-0.4166,-0.43,-0.43,-0.43,-0.43,-0.43,-0.4344,-0.4344,-0.4344,-0.43,-0.43,-0.43,-0.43,-0.43,-0.43,-0.43,-0.4344,-0.4344,-0.4344,-0.4389,-0.4387,-0.4387,-0.4387,-0.4387,-0.4387,-0.4387,-0.4476,-0.4877,-0.5055,-0.5055,0.0,0.0,0.0,0.0,0.0,0.0,0.0,0.0,0.0,0.0,0.0,0.0,0.0,0.0,0.0,0.0,0.0,0.0,0.0,0.0,0.0,0.0,0.0,0.0,0.0,0.0,0.0,0.0,0.0,0.0,0.3123,0.2589,0.1681,0.0,0.0,0.0,0.0,0.0,-0.027,-0.0236,-0.0067,0.0,0.0,0.0,0.0,0.0,0.0,0.0,0.0,0.0,0.0,0.0,0.0,0.0,0.0,0.0,0.0,0.0,0.027,0.0343,0.0418,0.0557,0.0592,0.0487,0.0139,-0.0342,-0.0947,-0.1768,-0.2461,-0.3079,-0.3519,-0.3767,-0.3903,-0.3918,-0.3679,-0.3324,-0.2769,-0.2464,-0.2284,-0.2239,-0.2509,-0.2913,-0.3406,-0.3678,-0.3946,-0.421,-0.4255,-0.43,-0.43,-0.43,-0.43,-0.43,-0.4525,-0.4661,-0.4661,-0.4433,-0.43,-0.43,-0.43,-0.43,-0.43,-0.43,-0.4433,-0.4661,-0.4661,-0.4748,-0.4877,-0.4877,-0.4877,-0.4877,-0.4877,-0.4877,-0.4921,-0.5235,-0.5327,-0.5238,0.0,0.0,0.0,0.0,0.0,0.0,0.0,0.0,0.0,0.0,0.0,0.0,0.0,0.0,0.0,0.0,0.0,0.0,0.0,0.0,0.0,0.0,0.0,0.0,0.0,0.0,0.0,0.0,0.0,0.3071,0.2497,0.167,0.0875,0.0135,0.0,0.0,0.0,0.0,-0.0303,-0.0135,0.0,0.0,0.0,0.0,0.0,0.0,0.0,0.0,0.0,0.0,0.0,-0.0034,-0.0135,0.0,0.0,0.0,0.0,0.0,-0.0034,0.0069,0.0141,0.0214,0.0358,0.0429,0.0072,-0.0425,-0.1093,-0.189,-0.2664,-0.3332,-0.3645,-0.3928,-0.4085,-0.3931,-0.3796,-0.3548,-0.3132,-0.3092,-0.3047,-0.2911,-0.3227,-0.3542,-0.3723,-0.3991,-0.4166,-0.43,-0.43,-0.43,-0.43,-0.43,-0.4344,-0.4525,-0.4614,-0.4748,-0.4879,-0.4746,-0.461,-0.4525,-0.4389,-0.43,-0.43,-0.4433,-0.4569,-0.4705,-0.4837,-0.4924,-0.501,-0.501,-0.501,-0.501,-0.501,-0.501,-0.501,-0.5282,-0.5327,-0.5102,0.0,0.0,0.0,0.0,0.0,0.0,0.0,0.0,0.0,0.0,0.0,0.0,0.0,0.0,0.0,0.0,0.0,0.0,0.0,0.0,0.0,0.0,0.0,0.0,0.0,0.0,0.0,0.3373,0.2832,0.2282,0.171,0.0863,0.0269,0.0,0.0,0.0,0.0,0.0,-0.0303,-0.0067,0.0,0.0,0.0,0.0,0.0,0.0,0.0,0.0,0.0,0.0,0.0,0.0,0.0,0.0,0.0,-0.064,-0.0606,-0.0472,-0.0438,-0.0241,-0.0071,0.0,0.0181,0.0292,-0.0073,-0.0622,-0.1277,-0.2091,-0.2921,-0.3609,-0.3857,-0.4106,-0.4201,-0.4011,-0.3991,-0.3857,-0.3496,-0.363,-0.3676,-0.3496,-0.3765,-0.3991,-0.3991,-0.4168,-0.43,-0.43,-0.43,-0.43,-0.43,-0.4344,-0.448,-0.4705,-0.4792,-0.4926,-0.5099,-0.5099,-0.4968,-0.4748,-0.4567,-0.4476,-0.4478,-0.4659,-0.4792,-0.4882,-0.5013,-0.5099,-0.5146,-0.5146,-0.5146,-0.5146,-0.5146,-0.5146,-0.5191,-0.5416,-0.5327,-0.501,0.0,0.0,0.0,0.0,0.0,0.0,0.0,0.0,0.0,0.0,0.0,0.0,0.0,0.0,0.0,0.0,0.0,0.0,0.0,0.0,0.0,0.0,0.0,0.0,0.0,0.332,0.2955,0.2412,0.2036,0.144,0.0614,0.0399,0.0101,-0.027,0.0,0.0,0.0,0.0,-0.0303,-0.027,-0.0067,0.0,0.0,0.0,0.0,0.0,0.0,0.0,0.0,0.0,0.0,0.0,0.0,0.0,-0.084,-0.1144,-0.1144,-0.1008,-0.0807,-0.0514,-0.0245,-0.0035,0.0036,-0.0073,-0.045,-0.1038,-0.1688,-0.2553,-0.3346,-0.394,-0.4118,-0.4208,-0.4237,-0.4283,-0.4255,-0.4255,-0.421,-0.4255,-0.4255,-0.421,-0.4255,-0.4255,-0.4255,-0.43,-0.43,-0.43,-0.43,-0.43,-0.43,-0.4525,-0.4661,-0.4705,-0.5104,-0.5371,-0.5371,-0.5371,-0.5235,-0.4966,-0.4966,-0.4966,-0.4966,-0.4966,-0.5102,-0.5327,-0.5371,-0.5463,-0.5644,-0.5644,-0.5644,-0.5644,-0.5644,-0.5644,-0.5644,-0.5688,-0.5552,-0.5282,0.0,0.0,0.0,0.0,0.0,0.0,0.0,0.0,0.0,0.0,0.0,0.0,0.0,0.0,0.0,0.0,0.0,0.0,0.0,0.0,0.0,0.0,0.0,0.2123,0.2094,0.234,0.2253,0.1795,0.1222,0.0721,0.0323,0.0166,0.0,0.0,0.0,0.0,0.0,0.0,0.0,-0.0101,-0.0034,0.0,0.0,0.0,0.0,0.0,0.0,0.0,0.0,0.0,-0.0067,-0.027,-0.074,-0.0975,-0.121,-0.1715,-0.1648,-0.1379,-0.1176,-0.0779,-0.0413,-0.0392,-0.0362,-0.044,-0.0715,-0.1308,-0.2074,-0.292,-0.3704,-0.4287,-0.4513,-0.4385,-0.4263,-0.4293,-0.43,-0.43,-0.43,-0.43,-0.43,-0.43,-0.43,-0.43,-0.43,-0.43,-0.43,-0.43,-0.43,-0.43,-0.43,-0.4569,-0.4748,-0.4879,-0.5235,-0.5463,-0.5597,-0.5597,-0.5552,-0.5416,-0.5144,-0.501,-0.501,-0.5191,-0.5327,-0.5416,-0.5552,-0.5644,-0.5688,-0.5688,-0.5688,-0.5688,-0.5688,-0.5688,-0.5688,-0.5688,-0.5552,-0.5371,0.0,0.0,0.0,0.0,0.0,0.0,0.0,0.0,0.0,0.0,0.0,0.0,0.0,0.0,0.0,0.0,0.0,0.0,0.0,0.0,0.0,0.0,0.0,0.1261,0.1064,0.1327,0.1356,0.1164,0.0555,0.0222,0.0129,0.0,0.0,0.0,0.0,0.0,0.0,0.0,0.0,0.0,-0.0101,-0.0135,0.0,0.0,0.0,0.0,0.0,0.0,0.0,0.0,-0.0371,-0.064,-0.1177,-0.1546,-0.1848,-0.2354,-0.2287,-0.1983,-0.1647,-0.1116,-0.0687,-0.0678,-0.0765,-0.0928,-0.137,-0.1857,-0.2432,-0.3297,-0.3965,-0.4474,-0.4661,-0.4461,-0.4259,-0.4259,-0.4281,-0.43,-0.43,-0.43,-0.43,-0.43,-0.43,-0.43,-0.43,-0.43,-0.43,-0.43,-0.43,-0.43,-0.43,-0.4569,-0.4748,-0.4924,-0.5146,-0.5327,-0.5463,-0.5463,-0.5463,-0.5463,-0.5146,-0.5099,-0.5235,-0.5416,-0.5508,-0.5508,-0.5644,-0.5688,-0.5688,-0.5688,-0.5688,-0.5688,-0.5688,-0.5688,-0.5688,-0.5688,-0.5599,-0.5508,0.0,0.0,0.0,0.0,0.0,0.0,0.0,0.0,0.0,0.0,0.0,0.0,0.0,0.0,0.0,0.0,0.0,0.0,0.0,0.0,0.0,0.0,0.0,0.0697,0.0485,0.0355,0.0319,0.0402,0.0127,0.0,0.0,0.0,0.0,0.0,0.0,0.0,0.0,0.0,0.0,0.0,-0.0303,-0.0404,-0.0506,0.0,0.0,0.0,0.0,0.0,0.0,0.0,-0.0941,-0.121,-0.1748,0.0,0.0,-0.3092,-0.3125,-0.2855,-0.2281,-0.161,-0.1086,-0.0946,-0.1094,-0.1563,-0.2499,-0.2638,-0.2826,-0.3626,-0.4194,-0.4494,-0.443,-0.4278,-0.4214,-0.4214,-0.4242,-0.4297,-0.4297,-0.43,-0.43,-0.43,-0.43,-0.43,-0.43,-0.43,-0.43,-0.43,-0.43,-0.43,-0.43,-0.4569,-0.4705,-0.4705,-0.4879,-0.501,-0.501,-0.501,-0.501,-0.501,-0.501,-0.5235,-0.5688,-0.5688,-0.5688,-0.5688,-0.5688,-0.5688,-0.5688,-0.5688,-0.5688,-0.5688,-0.5688,-0.5688,-0.5688,-0.5688,-0.5688,-0.5688,0.0,0.0,0.0,0.0,0.0,0.0,0.0,0.0,0.0,0.0,0.0,0.0,0.0,0.0,0.0,0.0,0.0,0.0,0.0,0.0,0.0,0.0,0.0,0.0,0.0,0.0,0.0098,0.0127,0.0032,0.0,0.0,0.0,0.0,0.0,0.0,0.0,0.0,0.0,0.0,0.0,-0.0908,-0.1043,-0.1076,0.0,0.0,0.0,0.0,0.0,0.0,0.0,0.0,0.0,-0.2318,0.0,-0.3123,-0.3525,-0.3391,-0.3058,-0.2619,-0.2126,-0.169,-0.1506,-0.1722,-0.2149,-0.2761,-0.3113,-0.3502,-0.4272,-0.4426,-0.4412,-0.44,-0.4225,-0.4077,-0.4077,-0.4153,-0.421,-0.421,-0.4261,-0.43,-0.43,-0.43,-0.43,-0.43,-0.43,-0.43,-0.43,-0.43,-0.421,-0.4036,-0.4257,-0.4255,-0.3944,-0.4119,-0.4206,-0.4206,-0.4206,-0.434,-0.452,-0.452,-0.4746,-0.5191,-0.5191,-0.5191,-0.5191,-0.5191,-0.5327,-0.5508,-0.5644,-0.5688,-0.5688,-0.5688,-0.5688,-0.5688,-0.5688,-0.5688,-0.5688,0.0,0.0,0.0,0.0,0.0,0.0,0.0,0.0,0.0,0.0,0.0,0.0841,0.0,0.0,0.0,0.0,0.0,0.0,0.0,0.0,0.0,0.0,0.0,0.0,0.0,-0.0067,0.0,0.0,0.0,0.0,0.0,0.0,0.0,-0.0202,0.0,-0.0572,0.0,0.0,0.0,0.0,-0.1511,-0.1679,-0.1746,0.0,0.0,0.0,0.0,0.0,0.0,0.0,0.0,0.0,-0.3088,0.0,-0.3696,-0.3928,-0.3727,-0.3332,-0.2927,-0.2474,-0.2041,-0.1913,-0.2152,-0.2596,-0.3201,-0.3616,-0.3954,-0.4298,-0.4319,-0.4252,-0.4168,-0.4037,-0.394,-0.394,-0.4059,-0.4118,-0.4118,-0.4163,-0.4195,-0.4195,-0.4195,-0.4208,-0.4244,-0.4249,-0.4219,-0.4164,-0.4123,-0.3989,-0.3631,-0.3719,-0.3583,-0.3181,-0.3224,-0.3223,-0.3223,-0.3223,-0.3312,-0.3448,-0.3448,-0.3624,-0.3892,-0.4474,-0.4654,-0.4563,-0.4788,-0.5013,-0.528,-0.5508,-0.5597,-0.5597,-0.5688,-0.5688,-0.5688,-0.5688,-0.5644,-0.5547,0.0,0.0,-0.1291,-0.1132,0.0,0.0,0.0,0.0,0.0,0.0,0.0,0.0196,0.0,0.0,0.0,0.0364,0.0,0.0,0.0,0.0,0.0,0.0,0.0,0.0,0.0,0.0,0.0,0.0,0.0,0.0,0.0,0.0,-0.0404,-0.0571,0.0,-0.1076,0.0,0.0,0.0,0.0,-0.2182,-0.2348,-0.2517,-0.272,0.0,0.0,0.0,0.0,0.0,0.0,0.0,0.0,-0.3959,-0.4164,-0.4334,-0.4334,-0.4064,-0.3679,-0.3163,-0.2641,-0.227,-0.2221,-0.2396,-0.2805,-0.3666,-0.3987,-0.4061,-0.393,-0.398,-0.3999,-0.3841,-0.3872,-0.3927,-0.3887,-0.3963,-0.4024,-0.3982,-0.3988,-0.3994,-0.3994,-0.3994,-0.4069,-0.4153,-0.4204,-0.4106,-0.3874,-0.3835,-0.3614,-0.3129,-0.2904,-0.2683,-0.2373,-0.215,-0.2059,-0.2059,-0.2059,-0.2059,-0.2059,-0.2059,-0.2059,-0.2104,-0.3492,-0.403,-0.3894,-0.4433,-0.4792,-0.501,-0.528,-0.5416,-0.5416,-0.5599,-0.5688,-0.5688,-0.5644,-0.5508,-0.5267,0.0,0.0,-0.1452,-0.1231,0.0,0.0,0.0,0.0,-0.0485,-0.0335,-0.028,-0.0224,-0.0084,-0.0028,0.0,-0.0056,-0.0084,0.0,0.0,0.0,0.0,0.0,0.0,0.0,0.0,0.0,0.0,0.0,0.0,0.0,0.0,0.0,0.0,-0.0975,0.0,-0.1747,0.0,0.0,0.0,-0.2788,-0.3092,-0.3226,-0.3293,-0.3491,-0.3556,0.0,0.0,0.0,0.0,0.0,0.0,0.0,-0.4395,-0.4495,-0.4528,-0.4528,-0.4192,-0.3713,-0.3338,-0.2999,-0.2674,-0.2406,-0.2472,-0.2776,-0.3364,-0.3374,-0.3357,-0.3728,-0.3736,-0.3645,-0.3763,-0.3938,-0.3992,-0.3833,-0.3991,-0.4093,-0.3928,-0.395,-0.3994,-0.3994,-0.3994,-0.4,-0.4021,-0.4023,-0.3904,-0.3535,-0.3365,-0.3005,-0.2361,-0.2143,-0.1851,-0.1434,-0.1165,-0.1031,-0.1031,-0.0852,-0.0852,-0.1031,-0.1031,-0.1031,-0.1076,-0.2329,-0.3179,-0.3676,-0.4166,-0.4523,-0.4792,-0.5238,-0.5416,-0.5416,-0.5463,-0.5463,-0.5419,-0.5062,-0.4884,-0.4734,0.0,0.0,0.0,0.0,0.0,0.0,0.0,0.0,-0.0728,-0.0642,-0.0645,-0.0617,-0.0533,-0.0477,0.0,0.0,-0.0589,-0.0729,0.0,0.0,0.0,0.0,0.0,0.0,0.0,0.0,0.0,0.0,0.0,0.0,0.0,0.0,0.0,-0.1746,0.0,-0.2554,0.0,0.0,-0.3293,-0.3391,-0.3627,-0.373,-0.3763,-0.3961,-0.4028,-0.4028,-0.4028,0.0,0.0,0.0,0.0,0.0,0.0,0.0,-0.4824,-0.4728,-0.4328,-0.3828,-0.3457,-0.3062,-0.2689,-0.2438,-0.2296,-0.2414,-0.2921,-0.2804,-0.2708,-0.3105,-0.3255,-0.3372,-0.3606,-0.3724,-0.3841,-0.3921,-0.3963,-0.3995,-0.3995,-0.3957,-0.3906,-0.3906,-0.3906,-0.3922,-0.3967,-0.3845,-0.3654,-0.3231,-0.294,-0.2491,-0.1795,-0.1455,-0.1037,-0.0574,-0.0309,-0.0133,-0.0045,0.009,0.009,-0.0045,-0.0045,-0.0224,-0.0583,-0.1658,-0.2555,-0.3272,-0.3764,-0.4078,-0.4348,-0.4968,-0.5191,-0.5235,-0.5371,-0.5327,-0.5146,-0.4703,-0.4273,-0.3871,0.0,0.0,0.0,0.0,0.0,0.0,0.0,0.0,0.0,-0.0894,-0.0898,-0.0898,-0.0926,-0.0842,-0.0842,0.0,0.0,0.0,-0.143,0.0,0.0,0.0,0.0,0.0,0.0,0.0,0.0,0.0,0.0,0.0,0.0,0.0,0.0,-0.2616,0.0,0.0,0.0,-0.3699,-0.3794,-0.3959,-0.4028,-0.4061,-0.4064,-0.4233,-0.43,-0.43,-0.43,-0.4431,-0.4625,-0.4761,0.0,0.0,0.0,0.0,-0.5054,-0.4894,-0.4461,-0.3975,-0.3621,-0.3076,-0.2586,-0.24,-0.2158,-0.2135,-0.2547,-0.2435,-0.2314,-0.247,-0.2747,-0.3061,-0.3331,-0.3448,-0.3604,-0.3999,-0.396,-0.396,-0.4079,-0.396,-0.3841,-0.3802,-0.3802,-0.3833,-0.3869,-0.3714,-0.3375,-0.2901,-0.2492,-0.1956,-0.1211,-0.0753,-0.0338,0.0086,0.0346,0.0567,0.0754,0.0801,0.0803,0.0803,0.0761,0.0359,-0.0314,-0.1251,-0.21,-0.2868,-0.3363,-0.3723,-0.3946,-0.4701,-0.4966,-0.4964,-0.5171,-0.5075,-0.4761,-0.417,-0.3549,-0.2839,0.0,0.0,0.0,0.0,0.0,0.0,0.0,0.0,0.0,0.0,-0.0898,-0.0954,-0.1066,-0.1066,-0.1178,-0.1487,-0.1515,-0.1684,0.0,0.0,0.0,0.0,0.0,0.0,0.0,0.0,0.0,0.0,0.0,0.0,0.0,0.0,0.0,-0.3387,0.0,0.0,0.0,-0.4461,-0.4459,-0.4492,-0.4331,-0.4267,-0.4267,-0.43,-0.43,-0.43,-0.43,-0.4431,-0.4625,-0.4761,-0.4927,0.0,0.0,0.0,-0.5087,-0.5054,-0.4694,-0.4217,-0.3982,-0.3345,-0.274,-0.2582,-0.2476,-0.2488,-0.279,-0.2634,-0.247,-0.2511,-0.255,-0.2628,-0.2863,-0.3175,-0.3526,-0.3802,-0.4112,-0.4268,-0.4118,-0.4079,-0.3999,-0.3802,-0.3802,-0.3808,-0.3818,-0.3622,-0.3194,-0.2373,-0.1939,-0.1278,-0.0245,0.0041,0.0289,0.0507,0.0761,0.0932,0.0977,0.1211,0.1309,0.1309,0.0889,0.0538,0.0269,-0.066,-0.1631,-0.2602,-0.3274,-0.3723,-0.3946,-0.4701,-0.4877,-0.4741,-0.4697,-0.4446,-0.3917,-0.2989,-0.237,-0.1894,0.0,0.0,0.0,0.0,0.0,0.0,0.0,0.0,0.0,0.0,0.0,-0.1178,-0.1375,-0.1457,-0.1653,-0.2074,-0.224,0.0,0.0,0.0,0.0,0.0,0.0,0.0,0.0,0.0,0.0,0.0,0.0,0.0,-0.3961,-0.4091,-0.4156,0.0,0.0,0.0,0.0,-0.4628,-0.4592,-0.4595,-0.4364,-0.43,-0.4308,-0.4371,-0.4355,-0.4308,-0.4374,-0.4554,-0.4728,-0.4797,-0.4994,-0.5292,-0.5362,0.0,0.0,0.0,-0.4861,-0.445,-0.3837,-0.3289,-0.2862,-0.2615,-0.2609,-0.2714,-0.294,-0.2921,-0.2821,-0.2707,-0.2589,-0.2511,-0.2628,-0.2785,-0.3136,-0.3843,-0.4116,-0.427,-0.4428,-0.4348,-0.4192,-0.3999,-0.396,-0.3921,-0.3802,-0.3489,-0.2981,-0.2235,-0.1726,-0.1025,-0.004,0.0199,0.0444,0.0826,0.0951,0.104,0.1179,0.1275,0.1281,0.1153,0.0733,0.039,0.0173,-0.0514,-0.1209,-0.1938,-0.2741,-0.316,-0.329,-0.4153,-0.4366,-0.4192,-0.428,-0.3966,-0.3364,-0.2532,-0.1793,-0.1072,0.0,0.0,0.0,0.0,0.0,0.0,0.0,0.0,0.0,0.0,0.0,-0.1514,-0.1738,0.0,0.0,0.0,-0.288,0.0,0.0,0.0,0.0,0.0,0.0,0.0,0.0,0.0,0.0,0.0,0.0,0.0,-0.4511,-0.4973,-0.5057,-0.4791,-0.4894,-0.4964,-0.4927,-0.4791,-0.4691,-0.4631,-0.4465,-0.4377,-0.4355,-0.4506,-0.4498,-0.4395,-0.4484,-0.4654,-0.4843,-0.4806,-0.5063,-0.5395,-0.5395,-0.5395,0.0,0.0,0.0,-0.4688,-0.3881,-0.3503,-0.3304,-0.3016,-0.3122,-0.3294,-0.3407,-0.3444,-0.3327,-0.302,-0.2746,-0.2589,-0.2589,-0.2589,-0.2902,-0.3923,-0.4157,-0.4311,-0.4662,-0.4582,-0.4387,-0.4194,-0.4118,-0.4038,-0.3802,-0.3335,-0.2746,-0.2078,-0.1492,-0.0746,0.0118,0.0353,0.0634,0.1048,0.1089,0.1099,0.12,0.1166,0.1089,0.0927,0.0548,0.0295,0.0084,-0.0377,-0.08,-0.1153,-0.2112,-0.2566,-0.2607,-0.3489,-0.3741,-0.3571,-0.3677,-0.3333,-0.2662,-0.2028,-0.1227,-0.0363,0.0,0.0,0.0,0.0,0.0,0.0,0.0,0.0,0.0,0.0,0.0,-0.1875,-0.2128,-0.2352,-0.2631,-0.3019,-0.3244,0.0,0.0,0.0,0.0,0.0,0.0,0.0,0.0,0.0,0.0,0.0,0.0,0.0,-0.5077,-0.5289,-0.5362,-0.5362,-0.5362,-0.5362,-0.5362,-0.5156,-0.4957,-0.4773,-0.4694,-0.4602,-0.4509,-0.4632,-0.4676,-0.4657,-0.4545,-0.4711,-0.497,-0.484,-0.5063,-0.5395,-0.5395,-0.5395,-0.5395,0.0,0.0,0.0,-0.4477,-0.4395,-0.4378,-0.4157,-0.4349,-0.4543,-0.4384,-0.4345,-0.4148,-0.3485,-0.3059,-0.2787,-0.2787,-0.2787,-0.3061,-0.3962,-0.427,-0.4462,-0.4659,-0.4701,-0.4621,-0.4423,-0.4233,-0.4038,-0.3802,-0.3215,-0.247,-0.1685,-0.102,-0.0275,0.051,0.0746,0.0983,0.126,0.1299,0.1182,0.0906,0.0806,0.0742,0.0716,0.0505,0.0379,0.0379,-0.0123,-0.0326,-0.0409,-0.1626,-0.2144,-0.2186,-0.2856,-0.3025,-0.2854,-0.2794,-0.2361,-0.1704,-0.1152,-0.0433,0.0275,0.0,0.0,0.0,0.0,0.0,0.0,0.0,0.0,0.0,0.0,0.0,0.0,0.0,-0.3047,-0.3325,-0.366,-0.3938,0.0,0.0,0.0,0.0,0.0,0.0,0.0,0.0,0.0,0.0,0.0,0.0,-0.5113,-0.5116,-0.5315,-0.5395,-0.5395,-0.5395,-0.5395,-0.5395,-0.506,-0.4861,-0.4776,-0.4631,-0.4541,-0.4528,-0.4692,-0.4722,-0.4692,-0.4692,-0.4801,-0.493,-0.4939,-0.5095,-0.5352,-0.5393,-0.5395,-0.5395,-0.5395,-0.5232,-0.5018,-0.4835,-0.4713,-0.4637,-0.4606,-0.4785,-0.4912,-0.4794,-0.4771,-0.4654,-0.4148,-0.3841,-0.3647,-0.3647,-0.3178,-0.3061,-0.3804,-0.4077,-0.427,-0.4465,-0.4621,-0.4621,-0.4423,-0.4345,-0.4153,-0.3841,-0.3059,-0.2314,-0.1646,-0.0863,-0.0118,0.055,0.0786,0.1021,0.1296,0.1139,0.0943,0.0707,0.0515,0.0439,0.0443,0.0242,0.0161,0.0121,-0.004,-0.0119,-0.0119,-0.0682,-0.1087,-0.1369,-0.193,-0.2011,-0.1852,-0.1952,-0.1668,-0.1151,-0.0827,-0.0353,0.0118,0.0,0.0,0.0,-0.396,0.0,-0.3626,-0.3557,-0.3352,-0.3183,0.0,0.0,0.0,0.0,0.0,-0.3852,-0.4132,-0.438,0.0,0.0,0.0,0.0,0.0,0.0,0.0,0.0,0.0,0.0,0.0,0.0,0.0,0.0,-0.532,-0.5365,-0.5287,-0.5371,-0.5395,-0.5395,-0.5027,-0.4861,-0.4779,-0.4677,-0.4602,-0.4594,-0.4803,-0.4847,-0.4818,-0.4782,-0.4856,-0.498,-0.4988,-0.5136,-0.5315,-0.5373,-0.5395,-0.5395,-0.5395,-0.5292,-0.5179,-0.5145,-0.5067,-0.5002,-0.5071,-0.5251,-0.5376,-0.5269,-0.5209,-0.5085,-0.4693,-0.4426,-0.4272,-0.4194,-0.3686,-0.3411,-0.3919,-0.4038,-0.4155,-0.4384,-0.4582,-0.4621,-0.4423,-0.4345,-0.4112,-0.3604,-0.2784,-0.204,-0.1412,-0.0628,0.0039,0.0589,0.0786,0.0982,0.1178,0.0943,0.0707,0.051,0.0314,0.0196,0.0196,0.0079,0.0,0.0,0.0,0.0,0.0,-0.0157,-0.0393,-0.0746,-0.1099,-0.1177,-0.1061,-0.1216,-0.102,-0.0668,-0.055,-0.0236,0.0118,-0.4661,-0.4626,-0.4543,-0.4284,-0.4235,-0.4125,-0.3878,-0.3827,-0.3771,-0.3638,0.0,0.0,0.0,0.0,0.0,0.0,0.0,0.0,0.0,0.0,0.0,0.0,0.0,0.0,0.0,0.0,0.0,0.0,0.0,0.0,0.0,0.0,-0.5274,-0.51,-0.5317,-0.5388,-0.5388,-0.5186,-0.499,-0.4818,-0.488,-0.4801,-0.4717,-0.4925,-0.5018,-0.5002,-0.4844,-0.4948,-0.5095,-0.5027,-0.5145,-0.5321,-0.5376,-0.5395,-0.5395,-0.5395,-0.5395,-0.5395,0.0,0.0,0.0,-0.5589,-0.5803,-0.5942,-0.5756,-0.5644,-0.5473,-0.5076,-0.4851,-0.4659,-0.4462,-0.427,-0.4194,-0.4389,-0.4233,-0.4155,-0.4345,-0.4543,-0.4621,-0.4423,-0.4233,-0.3841,-0.3171,-0.235,-0.1608,-0.0942,-0.0314,0.0196,0.0589,0.0786,0.0904,0.0864,0.0707,0.051,0.0275,0.0079,0.0,0.0,0.0,0.0,0.0,0.0,0.0,0.0,0.0,-0.0118,-0.0314,-0.051,-0.0589,-0.0589,-0.0589,-0.0471,-0.0275,-0.0275,-0.0039,0.0275,-0.5147,-0.5048,-0.4946,-0.4867,-0.4683,-0.4532,-0.4461,-0.4254,-0.4082,0.0,0.0,0.0,-0.4079,-0.4339,0.0,0.0,0.0,0.0,0.0,0.0,0.0,0.0,0.0,0.0,0.0,0.0,0.0,0.0,0.0,0.0,0.0,0.0,0.0,-0.4955,-0.5128,-0.5196,-0.5167,-0.4982,-0.4861,-0.4785,-0.4771,-0.4726,-0.4717,-0.4925,-0.5018,-0.5012,-0.4941,-0.4966,-0.5018,-0.5078,-0.5144,-0.5236,-0.5373,-0.5395,-0.5395,-0.5395,-0.5395,-0.5395,-0.5395,0.0,0.0,0.0,0.0,0.0,-0.559,-0.5501,-0.5374,-0.5141,-0.4988,-0.4898,-0.4859,-0.4662,-0.4572,-0.4731,-0.4281,-0.3919,-0.3958,-0.4268,-0.4426,-0.4194,-0.4118,-0.3765,-0.2981,-0.2156,-0.1412,-0.0746,-0.0118,0.0275,0.0393,0.0589,0.0628,0.0471,0.0393,0.0275,0.0079,0.0039,0.0,0.0,0.0,0.0,0.0,0.0,0.0,0.0,0.0,-0.0039,-0.0079,-0.0157,-0.0157,-0.0157,-0.0157,-0.0118,-0.0079,-0.0079,0.0,0.0079,-0.5365,-0.532,-0.5206,-0.511,-0.4958,-0.4833,-0.4711,-0.4583,-0.4461,0.0,0.0,0.0,-0.4484,-0.4676,0.0,0.0,0.0,0.0,0.0,0.0,0.0,-0.4491,-0.4694,-0.4853,0.0,0.0,0.0,0.0,0.0,0.0,0.0,0.0,0.0,-0.4894,-0.5036,-0.51,-0.5078,-0.4868,-0.4797,-0.4785,-0.4732,-0.469,-0.4717,-0.4925,-0.5018,-0.5018,-0.5018,-0.5018,-0.4999,-0.506,-0.5152,-0.5259,-0.544,-0.5446,-0.5395,-0.5395,-0.5395,-0.5395,-0.5395,-0.5395,-0.5416,-0.5504,0.0,0.0,-0.5557,-0.5505,-0.5424,-0.531,-0.5228,-0.5131,-0.5054,-0.4936,-0.4836,-0.4827,-0.4388,-0.4088,-0.413,-0.4374,-0.4426,-0.4118,-0.3921,-0.3489,-0.2628,-0.1804,-0.1059,-0.051,-0.0079,0.0196,0.0314,0.0471,0.051,0.0314,0.0314,0.0196,0.0,0.0,0.0,0.0,0.0,0.0,0.0,0.0,0.0,0.0,0.0,0.0,0.0,0.0,0.0,0.0,0.0,0.0,0.0,0.0,0.0,0.0,0.0,-0.5395,-0.5351,-0.5179,-0.511,-0.5012,-0.4779,-0.4843,-0.487,0.0,0.0,0.0,-0.4887,-0.4901,0.0,0.0,0.0,0.0,0.0,0.0,0.0,-0.4491,-0.4638,-0.4762,0.0,0.0,0.0,0.0,0.0,0.0,0.0,0.0,0.0,0.0,-0.5012,-0.5076,-0.5055,-0.4894,-0.4797,-0.4785,-0.4732,-0.469,-0.4717,-0.4925,-0.5018,-0.5018,-0.5018,-0.5018,-0.4999,-0.5098,-0.5195,-0.5351,-0.5547,-0.5552,-0.5443,-0.5443,-0.5433,-0.5423,-0.544,-0.5419,-0.5399,-0.5416,-0.5511,0.0,-0.5566,-0.5537,-0.5464,-0.5464,-0.5426,-0.5339,-0.5124,-0.5064,-0.4955,-0.4792,-0.4589,-0.4501,-0.457,-0.4661,-0.4528,-0.415,-0.3665,-0.3067,-0.2244,-0.1376,-0.0707,-0.0314,-0.0118,0.0079,0.0275,0.0432,0.0432,0.0275,0.0275,0.0196,0.0,0.0,0.0,0.0,0.0,0.0,0.0,0.0,0.0,0.0,0.0,0.0,0.0,0.0,0.0,0.0,0.0,0.0,0.0,0.0,0.0,0.0,-0.5365,-0.5395,-0.5385,-0.5354,-0.5213,-0.5079,-0.5022,-0.4941,-0.4877,-0.4877,-0.487,-0.4887,-0.4887,-0.4988,-0.5012,0.0,0.0,0.0,0.0,0.0,-0.4621,-0.4494,-0.4638,-0.4762,-0.4884,-0.5026,0.0,0.0,0.0,0.0,0.0,0.0,0.0,0.0,-0.4894,-0.4928,-0.4948,-0.4824,-0.4797,-0.4785,-0.4732,-0.469,-0.4717,-0.4925,-0.5018,-0.5018,-0.5018,-0.5018,-0.5038,-0.5252,-0.5359,-0.5408,-0.5689,-0.5739,-0.5715,-0.5715,-0.5633,-0.5569,-0.5684,-0.5576,-0.5426,-0.5549,-0.5511,0.0,-0.544,-0.5385,-0.5348,-0.5348,-0.528,-0.5225,-0.5107,-0.5069,-0.5078,-0.5081,-0.4996,-0.482,-0.461,-0.4565,-0.4423,-0.4055,-0.3589,-0.2902,-0.1896,-0.127,-0.0668,-0.0118,-0.0039,0.0,0.0039,0.0079,0.0118,0.0079,0.0039,0.0039,0.0,0.0,0.0,0.0,0.0,0.0,0.0,0.0,0.0,0.0,0.0,0.0,0.0,0.0,0.0,0.0,0.0,0.0,0.0,0.0,0.0,0.0,-0.5378,-0.5395,-0.5395,-0.5395,-0.533,-0.522,-0.511,-0.5135,-0.5111,-0.5005,-0.5091,-0.5142,-0.5142,-0.5203,-0.5216,-0.5145,-0.5135,0.0,-0.4918,-0.4772,-0.4657,-0.4607,-0.4604,-0.4679,-0.4802,-0.4918,0.0,0.0,0.0,0.0,0.0,0.0,0.0,0.0,-0.4958,-0.4992,-0.5009,-0.4967,-0.4894,-0.4779,-0.4665,-0.4597,-0.4624,-0.4833,-0.4887,-0.4895,-0.4993,-0.5018,-0.5046,-0.5405,-0.545,-0.5458,-0.5792,-0.5864,-0.58,-0.58,-0.5749,-0.5711,-0.5783,-0.5694,-0.5599,-0.5677,-0.5637,0.0,0.0,-0.5513,-0.5448,-0.5448,-0.5434,-0.5364,-0.5215,-0.5171,-0.5133,-0.5132,-0.4999,-0.491,-0.4881,-0.4746,-0.4544,-0.4189,-0.3575,-0.2765,-0.1777,-0.1134,-0.0597,-0.0039,0.0,0.0,0.0,0.0,0.0,0.0,0.0,0.0,0.0,0.0,0.0,0.0,0.0,0.0,0.0,0.0,0.0,0.0,0.0,0.0,0.0,0.0118,0.0157,0.0157,0.0039,0.0,0.0,0.0,0.0,0.0,-0.5458,-0.5428,-0.5395,-0.5395,-0.5395,-0.5351,-0.5196,-0.5281,-0.5351,-0.5189,-0.5284,-0.5395,-0.5395,-0.5395,-0.5395,-0.5395,-0.5247,-0.513,-0.51,-0.4908,-0.4762,-0.4735,-0.4673,-0.4705,-0.4831,-0.4988,0.0,0.0,0.0,0.0,0.0,0.0,-0.51,-0.51,-0.5131,-0.5163,-0.5173,-0.5193,-0.509,-0.4937,-0.4705,-0.4553,-0.4531,-0.4704,-0.4795,-0.4812,-0.4936,-0.5018,-0.5057,-0.5482,-0.5525,-0.551,-0.5924,-0.5989,-0.5891,-0.5891,-0.5867,-0.585,-0.5881,-0.5847,-0.581,-0.5837,-0.5823,-0.58,0.0,0.0,0.0,-0.563,-0.561,-0.5561,-0.5376,-0.5239,-0.5126,-0.5072,-0.4929,-0.4871,-0.5124,-0.4934,-0.4666,-0.4268,-0.3484,-0.2604,-0.1723,-0.0989,-0.0403,-0.0039,0.0,0.0,0.0,0.0,0.0,0.0,0.0,0.0,0.0,0.0,0.0,0.0,0.0,0.0,0.0,0.0,0.0,0.0,0.0,0.0039,0.0079,0.0236,0.0314,0.0353,0.0196,0.0079,0.0039,0.0039,0.0039,0.0,-0.5617,-0.5491,-0.5395,-0.5395,-0.5395,-0.5388,-0.5371,-0.5385,-0.5388,-0.5371,-0.5385,-0.5395,-0.5395,-0.5395,-0.5395,-0.5395,-0.5378,-0.5277,-0.5106,-0.5066,-0.4995,-0.4867,-0.5021,-0.5175,-0.5304,-0.5511,0.0,0.0,0.0,0.0,0.0,0.0,-0.51,-0.51,-0.5294,-0.5361,-0.5371,-0.5487,-0.5517,-0.5488,-0.5173,-0.4814,-0.4531,-0.4704,-0.4795,-0.4812,-0.4936,-0.5018,-0.5057,-0.5482,-0.5589,-0.5654,-0.6118,-0.6262,-0.6245,-0.6245,-0.6112,-0.6034,-0.6207,-0.601,-0.5833,-0.5932,-0.5901,-0.58,-0.58,0.0,-0.5776,-0.5776,0.0,-0.556,-0.5474,0.0,0.0,-0.4945,-0.4839,-0.4844,-0.5018,-0.4888,-0.4623,-0.4099,-0.3276,-0.2354,-0.1429,-0.0577,-0.004,0.0,0.0,0.0,0.0,0.0,0.0,0.0,0.0,0.0,0.0,0.0,0.0,0.0,0.0,0.0,0.0,0.0,0.0,0.0,0.0,0.0118,0.0275,0.0275,0.0393,0.055,0.055,0.0432,0.0275,0.0275,0.0157,0.0,-0.5683,-0.555,-0.5488,-0.5425,-0.5395,-0.5395,-0.5395,-0.5395,-0.5395,-0.5395,-0.5474,-0.5528,-0.5528,-0.56,-0.5616,-0.5616,-0.5724,-0.5727,-0.5536,-0.5541,-0.5553,-0.549,-0.5479,-0.5582,-0.574,-0.5903,-0.5927,0.0,-0.5902,0.0,0.0,0.0,-0.5557,-0.5589,-0.5784,-0.5914,-0.5986,-0.6056,-0.6079,-0.6038,-0.5686,-0.541,-0.5105,-0.4832,-0.4747,-0.4812,-0.4936,-0.5018,-0.5057,-0.5482,-0.5598,-0.5676,-0.6145,-0.63,-0.63,-0.63,-0.6252,-0.6176,-0.6282,-0.6204,-0.6122,-0.6146,-0.6115,-0.6105,-0.6105,-0.6,-0.5932,-0.5932,0.0,0.0,0.0,0.0,0.0,0.0,-0.4843,-0.4703,-0.4675,-0.4508,-0.4341,-0.4205,-0.3526,-0.2592,-0.1404,-0.0614,-0.0161,-0.0157,-0.0079,0.0,0.0,0.0,0.0,0.0,0.0,0.0,0.0,0.0,0.0,0.0,0.0,0.0,0.0,0.0,0.0,0.0,0.0,0.0118,0.0314,0.0432,0.0589,0.0786,0.0943,0.0786,0.0471,0.0353,0.0236,0.0157,-0.6013,-0.5745,-0.555,-0.5428,-0.5395,-0.5395,-0.5395,-0.5429,-0.5457,-0.5457,-0.5555,-0.5682,-0.572,-0.5813,-0.5911,-0.6051,-0.6162,-0.6257,-0.6205,-0.6256,-0.6281,-0.6274,-0.6295,-0.632,-0.6423,-0.653,-0.6508,0.0,0.0,0.0,0.0,0.0,-0.5987,-0.6053,-0.628,-0.6539,-0.6822,-0.6855,-0.6947,-0.7015,-0.6621,-0.6188,-0.571,-0.505,-0.4809,-0.4858,-0.4947,-0.5018,-0.5057,-0.5404,-0.5559,-0.5676,-0.6064,-0.6296,-0.6374,-0.6374,-0.6374,-0.6374,-0.6374,-0.6338,-0.63,-0.63,-0.63,-0.63,-0.63,-0.6173,-0.6095,-0.6095,-0.5969,0.0,0.0,0.0,-0.5237,-0.5101,0.0,-0.4644,-0.4517,-0.4306,-0.415,-0.4012,-0.3273,-0.2426,-0.1385,-0.0692,-0.0282,-0.0315,-0.0118,0.0,0.0,0.0,0.0,0.0,0.0,0.0,0.0,0.0,0.0,0.0,0.0,0.0,0.0,0.0,0.0,0.0,0.0,0.0157,0.0393,0.055,0.0746,0.1021,0.1218,0.11,0.0746,0.0471,0.0353,0.0275,-0.6773,-0.6079,-0.555,-0.5428,-0.5395,-0.5395,-0.5395,-0.5521,-0.5583,-0.5583,-0.5705,-0.5868,-0.6054,-0.6093,-0.6237,-0.6619,-0.669,-0.6833,-0.722,-0.7252,-0.7272,-0.7253,-0.757,-0.7636,-0.7442,-0.7582,-0.7489,-0.7162,-0.6835,0.0,0.0,0.0,0.0,0.0,-0.6716,-0.7242,-0.7855,-0.8001,-0.8324,-0.8684,-0.8087,-0.7168,-0.6093,-0.5362,-0.5047,-0.5012,-0.5015,-0.5018,-0.5015,-0.5243,-0.544,-0.5637,-0.5864,-0.6212,-0.6602,-0.6602,-0.6602,-0.6602,-0.6602,-0.6451,-0.63,-0.63,-0.63,-0.63,-0.63,-0.6296,-0.6293,-0.6293,-0.6132,-0.5983,-0.5979,-0.5597,-0.5306,-0.5303,-0.496,0.0,0.0,-0.4506,-0.4111,-0.3329,-0.2256,-0.1509,-0.13,-0.0692,-0.0282,-0.0315,-0.012,0.0,0.0,0.0,0.0,0.0,0.0,0.0,0.0,0.0,0.0,0.0,0.0,0.0,0.0,0.0,0.0,0.0,0.0,0.0236,0.0589,0.0589,0.0864,0.1296,0.1296,0.1296,0.1218,0.0746,0.0471,0.0275,-0.7451,-0.6999,-0.6408,-0.5653,-0.5458,-0.5429,-0.5532,-0.5637,-0.5728,-0.5728,-0.5966,-0.6282,-0.6652,-0.7026,-0.7405,-0.7838,-0.8312,-0.8471,-0.8286,-0.8672,-0.8808,-0.8623,-0.8875,-0.901,-0.91,-0.8818,-0.8538,-0.8199,-0.7626,0.0,0.0,0.0,0.0,0.0,-0.7433,-0.7905,-0.8368,-0.8417,-0.8687,-0.9046,-0.819,-0.7301,-0.6401,-0.5638,-0.5234,-0.5053,-0.5027,-0.5018,-0.5015,-0.5243,-0.544,-0.5676,-0.6064,-0.6444,-0.6826,-0.6949,-0.7099,-0.7176,-0.7026,-0.6953,-0.6876,-0.6714,-0.6602,-0.6486,-0.6486,-0.6412,-0.63,-0.63,-0.6259,-0.6149,-0.6013,-0.5872,-0.5702,-0.5464,-0.5227,-0.4957,0.0,-0.3813,-0.3092,-0.2584,-0.2154,-0.1768,-0.1475,-0.0867,-0.0515,-0.0511,-0.0201,0.0,0.0,0.0,0.0,0.0,0.0,0.0,0.0,0.0,0.0,0.0,0.0,0.0,0.0,0.0,0.0079,0.0196,0.0196,0.0432,0.0786,0.0786,0.0982,0.1296,0.1296,0.1178,0.0982,0.0707,0.055,0.0432,-0.8166,-0.778,-0.7149,-0.6024,-0.5666,-0.5559,-0.564,-0.5789,-0.5881,-0.5954,-0.6357,-0.6835,-0.7332,-0.793,-0.8488,-0.9028,-0.9603,-0.9882,-0.972,-1.0083,-1.0162,-0.9984,-1.0054,-1.0143,-1.0194,-0.989,-0.9519,-0.9047,-0.8435,-0.7894,0.0,0.0,0.0,0.0,-0.7954,-0.8452,-0.8911,-0.8848,-0.9139,-0.9511,-0.8448,-0.7534,-0.6753,-0.6036,-0.5541,-0.5167,-0.514,-0.5054,-0.5015,-0.5243,-0.5476,-0.5789,-0.6331,-0.683,-0.7284,-0.7561,-0.7714,-0.7791,-0.7676,-0.7561,-0.748,-0.7284,-0.7057,-0.6868,-0.6753,-0.6563,-0.6374,-0.63,-0.63,-0.6269,-0.6132,-0.603,-0.5925,-0.5719,-0.5513,-0.5154,0.0,-0.3617,-0.2804,-0.2339,-0.1952,-0.1611,-0.1324,-0.0813,-0.051,-0.051,-0.0201,0.0,0.0,0.0,0.0,0.0,0.0,0.0,0.0,0.0,0.0,0.0,0.0,0.0039,0.0118,0.0118,0.0236,0.0393,0.0393,0.0589,0.0904,0.0904,0.1061,0.1296,0.1296,0.1139,0.0864,0.0668,0.051,0.0353,-0.8916,-0.845,-0.7764,-0.6556,-0.6086,-0.586,-0.5861,-0.5979,-0.6112,-0.6332,-0.6874,-0.7477,-0.8083,-0.8765,-0.9459,-1.0131,-1.0573,-1.1013,-1.1445,-1.1416,-1.136,-1.1284,-1.1174,-1.1016,-1.0823,-1.077,-1.0448,-0.9791,-0.922,-0.866,0.0,0.0,0.0,0.0,-0.8382,-0.8881,-0.9467,-0.9281,-0.9553,-0.9992,-0.8818,-0.7868,-0.7103,-0.6532,-0.5909,-0.5321,-0.5321,-0.5207,-0.5054,-0.5246,-0.5592,-0.6054,-0.671,-0.7361,-0.7936,-0.8327,-0.8441,-0.8479,-0.8479,-0.8318,-0.8122,-0.7897,-0.771,-0.7442,-0.7019,-0.6753,-0.6525,-0.6338,-0.63,-0.63,-0.63,-0.6139,-0.6003,-0.6003,-0.5735,-0.5298,-0.4592,-0.3927,-0.3226,-0.2488,-0.1621,-0.1065,-0.0903,-0.0541,-0.0314,-0.0314,-0.012,0.0,0.0,0.0,0.0,0.0,0.0,0.0,0.0,0.0,0.0,0.0,0.0,0.0118,0.0314,0.0314,0.0432,0.0628,0.0628,0.0746,0.0904,0.0904,0.1061,0.1296,0.1296,0.1139,0.0864,0.0668,0.0353,0.0,-0.9775,-0.9032,-0.8478,-0.8298,-0.7387,-0.6693,-0.6699,-0.6813,-0.6923,-0.6962,-0.761,-0.8356,-0.899,-0.9972,-1.0836,-1.1466,-1.2121,-1.2463,-1.2392,-1.2638,-1.2681,-1.2479,-1.2557,-1.2535,-1.2269,-1.1905,-1.1477,-1.0943,-1.0115,-0.952,-0.9125,0.0,0.0,0.0,-0.8894,-0.9064,-0.9036,-0.8996,-0.8834,-0.8594,-0.7978,-0.7442,-0.6942,-0.6641,-0.6215,-0.5709,-0.5595,-0.5482,-0.5482,-0.567,-0.6131,-0.671,-0.7211,-0.7974,-0.8737,-0.8975,-0.9279,-0.9463,-0.9316,-0.9241,-0.9122,-0.8775,-0.8313,-0.7855,-0.7442,-0.6945,-0.6525,-0.6338,-0.63,-0.63,-0.63,-0.6269,-0.6242,-0.6242,-0.5958,-0.5477,-0.4818,-0.4099,-0.3285,-0.2354,-0.1648,-0.1171,-0.0929,-0.0521,-0.0306,-0.0306,-0.0119,0.0,0.0,0.0,0.0,0.0,0.0,0.0,0.0,0.0,0.0,0.0,0.0,0.0118,0.0314,0.0314,0.051,0.0825,0.0825,0.0982,0.1178,0.1178,0.1257,0.1296,0.1296,0.1061,0.0668,0.0432,0.0236,0.0,-1.031,-0.9815,-0.9564,-0.9834,-0.9106,-0.8331,-0.7871,-0.7847,-0.7992,-0.8186,-0.8832,-0.9531,-1.0192,-1.1202,-1.1999,-1.2437,-1.3009,-1.3286,-1.3134,-1.3337,-1.3364,-1.3206,-1.32,-1.3126,-1.2991,-1.2614,-1.2173,-1.1702,-1.0814,-1.0172,-0.9795,0.0,0.0,0.0,-0.9081,-0.9031,-0.8765,-0.8527,-0.8156,-0.768,-0.7369,-0.7057,0.0,-0.6563,-0.6296,-0.606,-0.606,-0.5906,-0.5789,-0.6212,-0.671,-0.7288,-0.805,-0.8737,-0.9349,-0.9728,-0.9992,-1.0143,-1.003,-0.9922,-0.9771,-0.9349,-0.8813,-0.8203,-0.7522,-0.6984,-0.6486,-0.6064,-0.5986,-0.6025,-0.6103,-0.6138,-0.618,-0.63,-0.5974,-0.5596,-0.5156,-0.4408,-0.3557,-0.2741,-0.2065,-0.1532,-0.1177,-0.0703,-0.0379,-0.0303,-0.0196,-0.008,0.0,0.0,0.0,0.0,0.0,0.0,0.0,0.0,0.0,0.0,0.0,0.0118,0.0314,0.0393,0.0589,0.0904,0.1021,0.1178,0.1296,0.1178,0.1139,0.11,0.0943,0.0707,0.0432,0.0236,0.0079,0.0,-1.0856,-1.0723,-1.077,-1.1089,-1.0838,-1.0269,-0.9393,-0.9146,-0.9191,-0.9598,-1.0202,-1.0846,-1.1441,-1.2295,-1.2881,-1.3137,-1.3525,-1.3737,-1.3737,-1.3717,-1.366,-1.366,-1.342,-1.3307,-1.3267,-1.3005,-1.2627,-1.2179,-1.1356,-1.0759,-1.0317,0.0,0.0,0.0,-0.918,-0.8913,-0.8471,-0.7935,-0.748,-0.7103,-0.6907,-0.6714,-0.6525,-0.6377,-0.63,-0.6338,-0.6525,-0.6367,-0.6131,-0.6788,-0.7288,-0.7863,-0.8998,-0.9496,-0.9846,-1.0368,-1.0556,-1.0556,-1.0556,-1.0406,-1.0143,-0.9733,-0.916,-0.8437,-0.745,-0.6872,-0.637,-0.5715,-0.5598,-0.5637,-0.5825,-0.5864,-0.5941,-0.618,-0.5914,-0.5635,-0.5473,-0.4706,-0.3951,-0.3331,-0.2625,0.0,-0.1575,-0.1009,-0.0606,-0.0341,-0.0349,-0.0236,0.0,0.0,0.0,0.0,0.0,0.0,0.0,0.0,0.0,0.0,0.0,0.0118,0.0314,0.0471,0.0668,0.0864,0.11,0.1218,0.1178,0.0943,0.0864,0.0825,0.0432,0.0314,0.0275,0.0079,0.0,0.0,-1.1955,-1.1642,-1.1484,-1.1782,-1.1628,-1.153,-1.1728,-1.0952,-1.0414,-1.0495,-1.1243,-1.1904,-1.2194,-1.2848,-1.3349,-1.3568,-1.387,-1.4046,-1.4046,-1.4035,-1.4008,-1.4008,-1.3961,-1.3821,-1.3533,-1.328,-1.2979,-1.2672,-1.1766,-1.1198,-1.1009,0.0,0.0,-0.9466,-0.9667,-0.9119,-0.8052,-0.7349,-0.6903,-0.6679,-0.649,-0.6374,-0.6335,-0.63,-0.63,-0.6338,-0.6525,-0.6637,-0.6822,-0.7437,-0.8012,-0.8623,-0.9311,-0.9916,-1.04,-1.0663,-1.0738,-1.0738,-1.0738,-1.0594,-1.0368,-0.9954,-0.9273,-0.8475,-0.7638,-0.6872,-0.6219,-0.5715,-0.5598,-0.5598,-0.5634,-0.5637,-0.5676,-0.5715,-0.5654,-0.5522,-0.5217,-0.4774,-0.4276,-0.3603,-0.2912,-0.2314,-0.1803,-0.1397,-0.0984,-0.0568,-0.0542,-0.0393,0.0,0.0,0.0,0.0,0.0,0.0,0.0,0.0,0.0,0.0,0.0,0.0118,0.0314,0.0353,0.0471,0.0668,0.0707,0.0707,0.0707,0.0668,0.0668,0.0628,0.0393,0.0314,0.0275,0.0079,0.0,0.0,-1.2264,-1.2207,-1.221,-1.2344,-1.2391,-1.2481,-1.2729,-1.2487,-1.2194,-1.1987,-1.2439,-1.2859,-1.3069,-1.349,-1.3786,-1.3913,-1.4046,-1.4088,-1.4088,-1.4088,-1.4088,-1.4088,-1.4088,-1.4021,-1.3874,-1.354,-1.3287,-1.3025,-1.2245,-1.1653,-1.1286,-1.0956,-1.0444,-0.9734,-0.9237,-0.8483,-0.7557,-0.6988,-0.6637,-0.6451,-0.6338,-0.63,-0.63,-0.63,-0.63,-0.6338,-0.6637,-0.7019,-0.7437,-0.794,-0.8432,-0.9003,-0.9803,-1.0255,-1.055,-1.085,-1.0887,-1.0812,-1.0812,-1.0588,-1.0255,-0.9846,-0.9122,-0.8322,-0.7403,-0.6637,-0.5925,-0.5316,-0.519,-0.5208,-0.5292,-0.5447,-0.5533,-0.5533,-0.5476,-0.5378,-0.5234,-0.4805,-0.4349,-0.393,-0.3242,-0.2627,-0.2193,-0.1793,-0.1288,-0.0644,-0.0581,-0.0432,-0.0039,0.0,0.0,0.0,0.0,0.0,0.0,0.0,0.0,0.0,0.0,0.0039,0.0157,0.0236,0.0353,0.0432,0.055,0.0589,0.0589,0.0471,0.0393,0.0275,0.0196,0.0157,0.0118,0.0039,0.0,0.0,-1.2527,-1.2694,-1.2845,-1.2838,-1.3009,-1.3179,-1.3222,-1.3483,-1.361,-1.3264,-1.344,-1.361,-1.3779,-1.3955,-1.4088,-1.4088,-1.4088,-1.4088,-1.4088,-1.4088,-1.4088,-1.4088,-1.4088,-1.4088,-1.4088,-1.3753,-1.3493,-1.326,-1.2625,-1.2064,-1.1568,-1.1182,-1.0665,-0.9972,-0.8838,-0.7997,-0.7346,-0.6907,-0.6574,-0.634,-0.6313,-0.63,-0.63,-0.63,-0.63,-0.6335,-0.6753,-0.7284,-0.7859,-0.8322,-0.878,-0.9344,-1.0212,-1.0513,-1.0625,-1.0999,-1.0925,-1.0738,-1.0738,-1.0443,-1.0067,-0.9695,-0.9013,-0.8208,-0.7249,-0.6518,-0.5822,-0.5046,-0.4811,-0.4805,-0.4929,-0.5136,-0.5315,-0.5315,-0.5252,-0.5163,-0.5163,-0.4686,-0.4276,-0.4087,-0.3368,-0.2749,-0.2387,-0.192,-0.1328,-0.0572,-0.0583,-0.0432,-0.0039,-0.004,-0.008,-0.0079,-0.0121,-0.0121,-0.0079,-0.0079,-0.0039,0.0,0.0,0.0,0.0,0.0157,0.0236,0.0236,0.0393,0.0471,0.0471,0.0314,0.0157,0.0,0.0,0.0,0.0,0.0,0.0,0.0,-1.3311,-1.3311,-1.3317,-1.3343,-1.3349,-1.344,-1.361,-1.3695,-1.3695,-1.3652,-1.387,-1.4046,-1.4046,-1.4088,-1.4088,-1.4088,-1.4088,-1.4088,-1.4088,-1.4088,-1.4088,-1.4088,-1.4088,-1.4088,-1.4088,-1.3753,-1.3586,-1.356,-1.2694,-1.2271,-1.2204,-1.1434,-1.0713,-1.005,-0.9219,-0.8496,-0.7897,-0.7283,-0.6813,-0.648,-0.6351,-0.63,-0.63,-0.63,-0.63,-0.6335,-0.6753,-0.7284,-0.7897,-0.847,-0.9198,-0.9879,-1.0368,-1.0625,-1.0812,-1.1037,-1.0812,-1.0513,-1.0513,-1.0218,-0.9884,-0.9657,-0.9127,-0.8475,-0.7633,-0.6984,-0.6245,-0.5266,-0.4891,-0.4703,-0.4729,-0.477,-0.4779,-0.4779,-0.4751,-0.4759,-0.4759,-0.4447,-0.4135,-0.3944,-0.3104,-0.2405,-0.1995,-0.1382,-0.0803,-0.0352,-0.051,-0.0432,-0.0039,-0.0241,-0.0322,-0.0275,-0.0523,-0.0523,-0.0275,-0.0275,-0.0196,0.0,0.0,0.0,0.0,0.0,0.0039,0.0039,0.0039,0.0039,0.0039,0.0039,0.0,0.0,0.0,0.0,0.0,0.0,0.0,0.0,-1.3434,-1.3483,-1.3519,-1.3434,-1.3483,-1.361,-1.3695,-1.3828,-1.3955,-1.3955,-1.4046,-1.4088,-1.4088,-1.4088,-1.4088,-1.4088,-1.4088,-1.4088,-1.4088,-1.4088,-1.4088,-1.4088,-1.4088,-1.4088,-1.4088,-1.3968,-1.378,-1.36,-1.3247,-1.2926,-1.2603,-1.2109,-1.1242,-1.0057,-0.9242,-0.8497,-0.7789,-0.726,-0.6893,-0.6603,-0.6549,-0.6525,-0.6525,-0.6525,-0.6525,-0.6566,-0.6878,-0.7356,-0.7997,-0.8679,-0.934,-0.996,-1.0368,-1.0625,-1.085,-1.1037,-1.0887,-1.0663,-1.0663,-1.0481,-1.018,-0.9846,-0.942,-0.8846,-0.8046,-0.7399,-0.6672,-0.5604,-0.4888,-0.4476,-0.4476,-0.4531,-0.4577,-0.4577,-0.464,-0.4651,-0.4543,-0.4184,-0.3843,-0.3587,-0.2737,-0.2058,-0.1683,-0.1052,-0.0565,-0.0313,-0.0393,-0.0314,0.0,-0.0201,-0.0322,-0.0314,-0.0523,-0.0523,-0.0314,-0.0314,-0.0196,0.0,0.0,0.0,0.0,0.0,0.0,0.0,0.0,0.0,0.0,0.0,0.0,0.0,0.0,0.0,0.0,0.0,0.0,0.0,-1.361,-1.3737,-1.3779,-1.361,-1.3737,-1.3822,-1.3822,-1.3997,-1.4088,-1.4088,-1.4088,-1.4088,-1.4088,-1.4088,-1.4088,-1.4088,-1.4088,-1.4088,-1.4088,-1.4088,-1.4088,-1.4088,-1.4088,-1.4088,-1.4088,-1.4088,-1.3981,-1.3733,-1.3646,-1.3427,-1.3006,-1.2499,-1.1513,-1.0127,-0.9407,-0.8593,-0.7727,-0.7344,-0.7014,-0.6763,-0.6719,-0.6702,-0.6702,-0.6702,-0.6702,-0.674,-0.6943,-0.7394,-0.7971,-0.8595,-0.9288,-0.9995,-1.0465,-1.0689,-1.085,-1.1037,-1.0962,-1.0812,-1.0812,-1.0663,-1.0438,-1.0143,-0.9836,-0.9377,-0.8613,-0.797,-0.7181,-0.593,-0.5044,-0.4507,-0.4403,-0.4464,-0.452,-0.4454,-0.4528,-0.4526,-0.438,-0.4018,-0.3612,-0.3165,-0.2394,-0.1717,-0.1258,-0.0711,-0.03,-0.0235,-0.0196,-0.0157,0.0,-0.0201,-0.0322,-0.0314,-0.0523,-0.0523,-0.0314,-0.0314,-0.0196,0.0,0.0,0.0,0.0,0.0,0.0,0.0,0.0,0.0,0.0,0.0,0.0,0.0,0.0,0.0,0.0,0.0,0.0,0.0,-1.4088,-1.4088,-1.4088,-1.4088,-1.4088,-1.4088,-1.4088,-1.4088,-1.4088,-1.4088,-1.4088,-1.4088,-1.4088,-1.4088,-1.4088,-1.4088,-1.4088,-1.4088,-1.4088,-1.4088,-1.4088,-1.4088,-1.4088,-1.4088,-1.4088,-1.4088,-1.4088,-1.4082,-1.3746,-1.36,-1.3586,-1.2444,-1.1347,-1.0298,-0.979,-0.8963,-0.7862,-0.7688,-0.7304,-0.6869,-0.6763,-0.6702,-0.6702,-0.6702,-0.6702,-0.674,-0.6943,-0.7274,-0.7687,-0.8148,-0.9037,-1.0039,-1.0667,-1.0845,-1.085,-1.1037,-1.0962,-1.0812,-1.0812,-1.0663,-1.0513,-1.0475,-1.0331,-1.003,-0.9415,-0.8813,-0.7908,-0.615,-0.5431,-0.498,-0.4648,-0.4595,-0.4531,-0.4334,-0.4303,-0.4279,-0.4221,-0.3901,-0.3414,-0.2712,-0.2004,-0.1337,-0.0666,-0.023,0.0,0.0,0.0,0.0,0.0,-0.0241,-0.0362,-0.0314,-0.0563,-0.0563,-0.0314,-0.0314,-0.0196,0.0,0.0,0.0,0.0,0.0,0.0,0.0,0.0,0.0,0.0,0.0,0.0,0.0,0.0,0.0,0.0,0.0,0.0,0.0,-1.4088,-1.4088,-1.4088,-1.4088,-1.4088,-1.4088,-1.4088,-1.4088,-1.4162,-1.4355,-1.4382,-1.4382,-1.4382,-1.4208,-1.4088,-1.4088,-1.4088,-1.4088,-1.4088,-1.4088,-1.4088,-1.4088,-1.4088,-1.4088,-1.4088,-1.4088,-1.4088,-1.4088,-1.3988,-1.3774,-1.3432,-1.2745,-1.1733,-1.0466,-0.9862,-0.8948,-0.7865,-0.7647,-0.7337,-0.7024,-0.6977,-0.6957,-0.6957,-0.6957,-0.6957,-0.7,-0.704,-0.726,-0.7613,-0.8084,-0.8679,-0.935,-1.0161,-1.0836,-1.1353,-1.1431,-1.151,-1.1507,-1.1334,-1.1242,-1.1086,-1.0784,-1.0663,-1.0438,-0.9836,-0.8623,-0.7377,-0.6415,-0.5689,-0.5222,-0.5109,-0.5064,-0.4997,-0.4824,-0.4792,-0.4629,-0.4201,-0.3693,-0.3067,-0.2281,-0.1548,-0.0932,-0.0459,-0.0152,0.0,0.0,0.0,0.0,0.0,-0.0198,-0.0317,-0.0314,-0.0514,-0.0515,-0.0314,-0.0314,-0.0196,0.0,0.0,0.0,0.0,0.0,0.0,0.0,0.0,0.0,0.0,0.0,0.0,0.0,0.0,0.0,0.0,0.0,0.0,0.0,-1.4088,-1.4088,-1.4088,-1.4088,-1.4175,-1.4249,-1.4249,-1.4349,-1.4482,-1.4663,-1.4689,-1.4689,-1.4689,-1.4522,-1.4329,-1.4108,-1.4088,-1.4088,-1.4088,-1.4088,-1.4088,-1.4088,-1.4088,-1.4088,-1.4088,-1.4088,-1.4088,-1.4088,-1.4088,-1.387,-1.3392,-1.2918,-1.2015,-1.0722,-1.0033,-0.9122,-0.7984,-0.7768,-0.7455,-0.7095,-0.7095,-0.7095,-0.7095,-0.7095,-0.7095,-0.7095,-0.7095,-0.7187,-0.7415,-0.7808,-0.8301,-0.8893,-0.9624,-1.0548,-1.1394,-1.1578,-1.172,-1.1844,-1.1682,-1.1567,-1.1414,-1.1126,-1.1002,-1.07,-0.9873,-0.8595,-0.7401,-0.6634,-0.5989,-0.5507,-0.5384,-0.5375,-0.5303,-0.5056,-0.4984,-0.4784,-0.4203,-0.3618,-0.2927,-0.2056,-0.135,-0.0717,-0.023,-0.0077,0.0,0.0,0.0,0.0,0.0,-0.0118,-0.0196,-0.0196,-0.0314,-0.0314,-0.0196,-0.0196,-0.0118,0.0,0.0,0.0,0.0,0.0,0.0,0.0,0.0,0.0,0.0,0.0,0.0,0.0,0.0,0.0,0.0,0.0,0.0,0.0,-1.4148,-1.4128,-1.4122,-1.4148,-1.4376,-1.4549,-1.4549,-1.4783,-1.5015,-1.5035,-1.5035,-1.5035,-1.5035,-1.5035,-1.4807,-1.4195,-1.4148,-1.4148,-1.4148,-1.4148,-1.4135,-1.4122,-1.4115,-1.4108,-1.4088,-1.4088,-1.4088,-1.4088,-1.4088,-1.387,-1.3398,-1.2924,-1.21,-1.0982,-1.0299,-0.9336,-0.8201,-0.7984,-0.7588,-0.7095,-0.7095,-0.7095,-0.7095,-0.7095,-0.7095,-0.7095,-0.7095,-0.7095,-0.7143,-0.737,-0.7893,-0.8544,-0.9078,-1.0038,-1.1032,-1.1466,-1.1773,-1.1934,-1.1916,-1.1736,-1.1537,-1.1501,-1.1279,-1.0732,-0.9566,-0.8689,-0.7804,-0.6824,-0.6309,-0.5929,-0.5613,-0.5551,-0.5406,-0.5083,-0.5047,-0.4831,-0.4307,-0.3674,-0.294,-0.1994,-0.1295,-0.0668,-0.0039,0.0,0.0,0.0,0.0,0.0,0.0,0.0,0.0,0.0,0.0,0.0,0.0,0.0,0.0,0.0,0.0,0.0,0.0,0.0,0.0,0.0,0.0,0.0,0.0,0.0,0.0,0.0,0.0,0.0,0.0,0.0,0.0,0.0,-1.4754,-1.4576,-1.4489,-1.476,-1.4861,-1.4863,-1.4863,-1.4961,-1.5089,-1.5264,-1.5297,-1.5297,-1.5297,-1.5297,-1.515,-1.4834,-1.48,-1.48,-1.48,-1.48,-1.4656,-1.4429,-1.4422,-1.4315,-1.4088,-1.4088,-1.4088,-1.4088,-1.4088,-1.3955,-1.361,-1.3003,-1.2186,-1.1192,-1.0381,-0.9336,-0.8201,-0.7984,-0.7588,-0.7095,-0.7095,-0.7095,-0.7095,-0.7095,-0.7095,-0.7095,-0.7095,-0.7095,-0.7095,-0.7187,-0.754,-0.8065,-0.8763,-0.968,-1.0621,-1.1448,-1.197,-1.2266,-1.2235,-1.2174,-1.1994,-1.1591,-1.1056,-1.04,-0.949,-0.8689,-0.7842,-0.7004,-0.6506,-0.6193,-0.6121,-0.5959,-0.5727,-0.5504,-0.531,-0.501,-0.4424,-0.3805,-0.2997,-0.2036,-0.1295,-0.0668,-0.0039,0.0,0.0,0.0,0.0,0.0,0.0,0.0,0.0,0.0,0.0,0.0,0.0,0.0,0.0,0.0,0.0,0.0,0.0,0.0,0.0,0.0,0.0,0.0,0.0,0.0,0.0,0.0,0.0,0.0,0.0,0.0,0.0,0.0,-1.4975,-1.4836,-1.4776,-1.4981,-1.5115,-1.5164,-1.5164,-1.5277,-1.5418,-1.5571,-1.5591,-1.5591,-1.5591,-1.5591,-1.5531,-1.5378,-1.5162,-1.5008,-1.5008,-1.5008,-1.4941,-1.473,-1.4723,-1.4649,-1.4489,-1.4489,-1.4379,-1.4153,-1.4113,-1.3913,-1.3568,-1.3094,-1.2363,-1.1456,-1.0554,-0.9467,-0.8372,-0.8028,-0.7588,-0.7095,-0.7095,-0.7095,-0.7095,-0.7095,-0.7095,-0.7095,-0.7095,-0.7095,-0.7095,-0.7095,-0.7363,-0.7764,-0.8372,-0.9161,-1.0033,-1.0939,-1.1757,-1.2419,-1.2488,-1.232,-1.2022,-1.1392,-1.0798,-1.0198,-0.9359,-0.8542,-0.7778,-0.7053,-0.6483,-0.6099,-0.6099,-0.5906,-0.5712,-0.5479,-0.5359,-0.5085,-0.4501,-0.3917,-0.3212,-0.2156,-0.1492,-0.0825,-0.0196,-0.0039,0.0,0.0,0.0,0.0,0.0,0.0,0.0,0.0,0.0,0.0,0.0,0.0,0.0,0.0,0.0,0.0,0.0,0.0,0.0,0.0,0.0,0.0,0.0,0.0,0.0,0.0,0.0,0.0,0.0,0.0,0.0,0.0,-1.5129,-1.5102,-1.5089,-1.5129,-1.5297,-1.5464,-1.5464,-1.5671,-1.5784,-1.5784,-1.5784,-1.5784,-1.5784,-1.5784,-1.5784,-1.5784,-1.5378,-1.5142,-1.5142,-1.5142,-1.5122,-1.5075,-1.5075,-1.5055,-1.5008,-1.4963,-1.4658,-1.4145,-1.4031,-1.3766,-1.3333,-1.307,-1.2448,-1.1585,-1.0641,-0.9598,-0.8548,-0.8072,-0.7544,-0.7095,-0.7095,-0.7095,-0.7095,-0.7095,-0.7095,-0.7095,-0.7095,-0.7095,-0.7095,-0.7095,-0.7234,-0.7503,-0.7981,-0.864,-0.934,-1.025,-1.1284,-1.2192,-1.2491,-1.2259,-1.1711,-1.105,-1.0527,-0.9979,-0.9091,-0.8298,-0.7553,-0.6942,-0.6286,-0.5864,-0.5864,-0.5673,-0.5479,-0.5321,-0.5282,-0.5049,-0.454,-0.4114,-0.3489,-0.2469,-0.1765,-0.1139,-0.0471,-0.0196,-0.0039,0.0,0.0,0.0,0.0,0.0,0.0,0.0,0.0,0.0,0.0,0.0,0.0,0.0,0.0,0.0,0.0,0.0,0.0,0.0,0.0,0.0,0.0,0.0,0.0,0.0,0.0,0.0,0.0,0.0,0.0,0.0,-1.5645,-1.5498,-1.5404,-1.5651,-1.5732,-1.5758,-1.5758,-1.5751,-1.5784,-1.5784,-1.5784,-1.5784,-1.5784,-1.5784,-1.5784,-1.5784,-1.5698,-1.5698,-1.5698,-1.5698,-1.5585,-1.5337,-1.5331,-1.5217,-1.5015,-1.4777,-1.4392,-1.3859,-1.3661,-1.3442,-1.3142,-1.2469,-1.1886,-1.1327,-1.0207,-0.9292,-0.8548,-0.7852,-0.7367,-0.7095,-0.7095,-0.7095,-0.7095,-0.7095,-0.7095,-0.7095,-0.7095,-0.7095,-0.7095,-0.7095,-0.7139,-0.7231,-0.7716,-0.8197,-0.8807,-0.9724,-1.0419,-1.1068,-1.186,-1.1759,-1.13,-1.0767,-1.0165,-0.9478,-0.8693,-0.7854,-0.713,-0.6525,-0.5986,-0.5634,-0.5634,-0.5479,-0.5321,-0.5321,-0.5168,-0.4937,-0.4701,-0.4311,-0.3763,-0.3054,-0.2272,-0.153,-0.0864,-0.0471,-0.0196,0.0,0.0,0.0,0.0,0.0,0.0,0.0,0.0,0.0,0.0,0.0,0.0,0.0,0.0,0.0,0.0,0.0,0.0,0.0,0.0,0.0,0.0,0.0,0.0,0.0,0.0,0.0,0.0,0.0,0.0,0.0,-1.5758,-1.5718,-1.5671,-1.5758,-1.5784,-1.5784,-1.5784,-1.5784,-1.5784,-1.5784,-1.5784,-1.5784,-1.5784,-1.5784,-1.5784,-1.5784,-1.5784,-1.5784,-1.5784,-1.5784,-1.5718,-1.5631,-1.5631,-1.5518,-1.5292,-1.4852,-1.4264,-1.3626,-1.3357,-1.3052,-1.2642,-1.2214,-1.1652,-1.1022,-1.0042,-0.9161,-0.8328,-0.7768,-0.7323,-0.7095,-0.7095,-0.7095,-0.7095,-0.7095,-0.7095,-0.7095,-0.7095,-0.7095,-0.7095,-0.7095,-0.7095,-0.7183,-0.7544,-0.7852,-0.8241,-0.8938,-0.9937,-1.0895,-1.1165,-1.0909,-1.0411,-0.9953,-0.9446,-0.8842,-0.8028,-0.7399,-0.6809,-0.619,-0.575,-0.544,-0.544,-0.5285,-0.5129,-0.5129,-0.5054,-0.4937,-0.474,-0.4545,-0.4153,-0.3368,-0.2743,-0.208,-0.1335,-0.0786,-0.0393,-0.0157,-0.0079,0.0,0.0,0.0,0.0,0.0,0.0,0.0,0.0,0.0,0.0,0.0,0.0,0.0,0.0,0.0,0.0,0.0,0.0,0.0,0.0,0.0,0.0,0.0,0.0,0.0079,0.0157,0.0157,0.0236,0.0314,-1.5784,-1.5784,-1.5784,-1.5784,-1.5784,-1.5784,-1.5784,-1.5784,-1.5784,-1.5784,-1.5784,-1.5784,-1.5784,-1.5784,-1.5784,-1.5784,-1.5784,-1.5784,-1.5784,-1.5784,-1.5784,-1.5784,-1.5784,-1.5635,-1.5302,-1.4801,-1.4125,-1.3237,-1.2841,-1.2446,-1.1934,-1.1746,-1.1275,-1.058,-0.9803,-0.8985,-0.8184,-0.7703,-0.7365,-0.7149,-0.7149,-0.7129,-0.7095,-0.7095,-0.7095,-0.7095,-0.7095,-0.7095,-0.7095,-0.7095,-0.7095,-0.7143,-0.7323,-0.7544,-0.7808,-0.8241,-0.9288,-1.0332,-1.0246,-0.9941,-0.9557,-0.9098,-0.8692,-0.8245,-0.7436,-0.6933,-0.6507,-0.5889,-0.5476,-0.5243,-0.5243,-0.5093,-0.5018,-0.5018,-0.5018,-0.4937,-0.4779,-0.474,-0.4465,-0.38,-0.3255,-0.2628,-0.1885,-0.1178,-0.0628,-0.0314,-0.0118,0.0,0.0,0.0,0.0,0.0,0.0,0.0,0.0,0.0,0.0,0.0,0.0,0.0,0.0,0.0,0.0,0.0,0.0,0.0,0.0,0.0,0.0,0.0,0.0039,0.0157,0.0314,0.0353,0.0471,0.0589,-1.5784,-1.5784,-1.5784,-1.5784,-1.5784,-1.5784,-1.5784,-1.5784,-1.5784,-1.5784,-1.5784,-1.5784,-1.5784,-1.5784,-1.5784,-1.5784,-1.5784,-1.5784,-1.5784,-1.5784,-1.5784,-1.5784,-1.5784,-1.5452,-1.4783,-1.4472,-1.374,-1.249,-1.1971,-1.1437,-1.091,-1.0692,-1.0315,-0.976,-0.9275,-0.8761,-0.8257,-0.7797,-0.7531,-0.7398,-0.7398,-0.7268,-0.7095,-0.7095,-0.7095,-0.7095,-0.7095,-0.7095,-0.7095,-0.7095,-0.7095,-0.7095,-0.7139,-0.7323,-0.7547,-0.7808,-0.8113,-0.8504,-0.8934,-0.8978,-0.8846,-0.84,-0.8107,-0.7735,-0.6926,-0.6495,-0.6078,-0.5464,-0.5168,-0.5015,-0.5015,-0.5018,-0.5018,-0.5018,-0.5018,-0.4979,-0.4979,-0.4818,-0.4659,-0.4623,-0.3878,-0.3095,-0.2511,-0.1727,-0.0982,-0.0353,-0.0118,0.0,0.0,0.0,0.0,0.0,0.0,0.0,0.0,0.0,0.0,0.0,0.0,0.0,0.0,0.0,0.0,0.0,0.0,0.0,0.0,0.0,0.0,0.0,0.0196,0.0275,0.0314,0.051,0.0589,0.0589,-1.5784,-1.5784,-1.5784,-1.5784,-1.5784,-1.5784,-1.5784,-1.5784,-1.5784,-1.5784,-1.5784,-1.5784,-1.5784,-1.5784,-1.5784,-1.5784,-1.5784,-1.5784,-1.5784,-1.5784,-1.5784,-1.5784,-1.5683,-1.5309,-1.4694,-1.41,-1.3281,-1.2175,-1.1604,-1.108,-1.0542,-1.0344,-0.9966,-0.9483,-0.9035,-0.852,-0.8013,-0.7738,-0.7567,-0.7512,-0.7512,-0.7478,-0.7414,-0.7319,-0.7285,-0.7272,-0.7129,-0.7095,-0.7095,-0.7095,-0.7095,-0.7095,-0.7095,-0.7187,-0.7275,-0.7363,-0.7448,-0.7536,-0.7753,-0.7889,-0.7984,-0.7808,-0.7585,-0.721,-0.6502,-0.6245,-0.5941,-0.5249,-0.5054,-0.5018,-0.5018,-0.5018,-0.5018,-0.5018,-0.5018,-0.5018,-0.5018,-0.4937,-0.4779,-0.4543,-0.3995,-0.3331,-0.2588,-0.1766,-0.1061,-0.051,-0.0196,0.0,0.0,0.0,0.0,0.0,0.0,0.0,0.0,0.0,0.0,0.0,0.0,0.0,0.0,0.0,0.0,0.0,0.0,0.0,0.0,0.0,0.0079,0.0196,0.0275,0.0471,0.0668,0.0746,0.0904,0.1021,-1.5784,-1.5784,-1.5784,-1.5784,-1.5784,-1.5784,-1.5784,-1.5784,-1.5784,-1.5784,-1.5784,-1.5784,-1.5784,-1.5784,-1.5784,-1.5784,-1.5784,-1.5784,-1.5784,-1.5784,-1.5784,-1.5784,-1.5588,-1.5207,-1.4592,-1.3709,-1.2694,-1.1634,-1.1096,-1.0556,-1.0015,-0.9989,-0.9736,-0.934,-0.8925,-0.8489,-0.8067,-0.7832,-0.7709,-0.7665,-0.7665,-0.7641,-0.7587,-0.7485,-0.746,-0.7402,-0.7251,-0.7136,-0.7095,-0.7095,-0.7095,-0.7095,-0.7095,-0.7095,-0.7095,-0.7095,-0.7095,-0.7095,-0.7095,-0.7231,-0.737,-0.737,-0.7231,-0.6943,-0.632,-0.611,-0.5891,-0.5192,-0.5042,-0.5018,-0.5018,-0.5018,-0.5018,-0.5018,-0.5018,-0.5018,-0.5018,-0.4937,-0.4818,-0.454,-0.3995,-0.3372,-0.2588,-0.1766,-0.1061,-0.055,-0.0196,0.0,0.0,0.0,0.0,0.0,0.0,0.0,0.0,0.0,0.0,0.0,0.0,0.0,0.0,0.0,0.0,0.0,0.0,0.0,0.0,0.0079,0.0157,0.0314,0.0432,0.0668,0.0904,0.0982,0.1139,0.1257,-1.5784,-1.5784,-1.5784,-1.5784,-1.5784,-1.5784,-1.5784,-1.5784,-1.5784,-1.5784,-1.5784,-1.5784,-1.5784,-1.5784,-1.5784,-1.5784,-1.5784,-1.5784,-1.5784,-1.5784,-1.5784,-1.5784,-1.5594,-1.5112,-1.4346,-1.3264,-1.2058,-1.0801,-1.0265,-0.9727,-0.9187,-0.948,-0.948,-0.9187,-0.8928,-0.8627,-0.8382,-0.8137,-0.7901,-0.7814,-0.7814,-0.7729,-0.7604,-0.76,-0.7506,-0.7419,-0.7415,-0.7272,-0.7098,-0.7095,-0.7095,-0.7095,-0.7095,-0.7095,-0.7095,-0.7095,-0.7095,-0.7095,-0.7095,-0.7095,-0.7095,-0.7095,-0.7095,-0.697,-0.6445,-0.6177,-0.5915,-0.5332,-0.5097,-0.5018,-0.5018,-0.5018,-0.5018,-0.5018,-0.5018,-0.5018,-0.5018,-0.4818,-0.4701,-0.4701,-0.3917,-0.3175,-0.2549,-0.1766,-0.1021,-0.0353,-0.0118,0.0,0.0,0.0,0.0,0.0,0.0,0.0,0.0,0.0,0.0,0.0,0.0,0.0,0.0,0.0,0.0,0.0,0.0,0.0,0.0,0.0236,0.0314,0.0353,0.0746,0.0904,0.0943,0.1218,0.1296,0.1296,-1.5784,-1.5784,-1.5784,-1.5784,-1.5784,-1.5784,-1.5784,-1.5784,-1.5784,-1.5784,-1.5784,-1.5784,-1.5784,-1.5784,-1.5784,-1.5784,-1.5784,-1.5784,-1.5784,-1.5784,-1.5784,-1.5784,-1.5404,-1.4927,-1.4298,-1.3087,-1.2024,-1.1096,-1.0364,-0.9821,-0.948,-0.9579,-0.948,-0.9187,-0.8928,-0.8627,-0.8382,-0.8137,-0.7965,-0.7921,-0.7921,-0.7897,-0.7847,-0.7787,-0.7719,-0.7651,-0.7444,-0.7343,-0.7285,-0.7132,-0.7095,-0.7095,-0.7095,-0.7095,-0.7095,-0.7095,-0.7095,-0.7095,-0.7095,-0.7095,-0.7095,-0.7095,-0.7095,-0.7014,-0.6612,-0.6379,-0.6072,-0.5517,-0.5282,-0.511,-0.5031,-0.5018,-0.5018,-0.5018,-0.5018,-0.5018,-0.5018,-0.4818,-0.4584,-0.4311,-0.3528,-0.2744,-0.2156,-0.1295,-0.0668,-0.0314,-0.0118,0.0,0.0,0.0,0.0,0.0,0.0,0.0,0.0,0.0,0.0,0.0,0.0,0.0,0.0,0.0,0.0,0.0,0.0157,0.0196,0.0236,0.0432,0.0589,0.0746,0.0864,0.1021,0.1178,0.1257,0.1296,0.1296,-1.5784,-1.5784,-1.5784,-1.5784,-1.5784,-1.5784,-1.5784,-1.5784,-1.5784,-1.5784,-1.5784,-1.5784,-1.5784,-1.5784,-1.5784,-1.5784,-1.5784,-1.5784,-1.5784,-1.5784,-1.5784,-1.5784,-1.5452,-1.4975,-1.4298,-1.3044,-1.1932,-1.1047,-1.0364,-0.9826,-0.943,-0.9529,-0.9529,-0.9331,-0.8977,-0.8726,-0.8531,-0.8137,-0.7988,-0.7988,-0.7988,-0.7988,-0.7978,-0.7887,-0.7865,-0.7787,-0.7607,-0.7509,-0.7448,-0.7353,-0.7282,-0.7231,-0.7231,-0.7146,-0.7095,-0.7095,-0.7095,-0.7095,-0.7095,-0.7095,-0.7095,-0.7095,-0.7095,-0.7031,-0.6726,-0.6495,-0.6193,-0.5737,-0.5417,-0.5165,-0.5097,-0.5048,-0.5018,-0.5018,-0.5018,-0.5018,-0.5018,-0.474,-0.4426,-0.4038,-0.3137,-0.2314,-0.1726,-0.0942,-0.0393,-0.0196,-0.0079,0.0,0.0,0.0,0.0,0.0,0.0,0.0,0.0,0.0,0.0,0.0,0.0,0.0,0.0,0.0079,0.0118,0.0118,0.0314,0.0432,0.0432,0.0628,0.0786,0.0904,0.1021,0.1139,0.1296,0.1296,0.1296,0.1296,-1.5784,-1.5784,-1.5784,-1.5784,-1.5784,-1.5784,-1.5784,-1.5784,-1.5784,-1.5784,-1.5784,-1.5784,-1.5784,-1.5784,-1.5784,-1.5784,-1.5784,-1.5784,-1.5784,-1.5784,-1.5784,-1.5784,-1.5588,-1.5112,-1.4346,-1.3093,-1.1878,-1.085,-1.0265,-0.9727,-0.9236,-0.948,-0.9579,-0.9579,-0.9027,-0.8825,-0.8775,-0.8233,-0.7988,-0.7988,-0.7988,-0.7988,-0.7988,-0.7988,-0.7904,-0.7831,-0.7818,-0.7729,-0.7617,-0.7604,-0.7506,-0.7436,-0.7419,-0.7275,-0.7112,-0.7098,-0.7095,-0.7095,-0.7095,-0.7095,-0.7095,-0.7095,-0.7095,-0.7054,-0.6881,-0.6564,-0.6254,-0.5978,-0.558,-0.5254,-0.5205,-0.5108,-0.5031,-0.5031,-0.5023,-0.4979,-0.4979,-0.4623,-0.4229,-0.3802,-0.2784,-0.1922,-0.1335,-0.0668,-0.0196,0.0,0.0,0.0,0.0,0.0,0.0,0.0,0.0,0.0,0.0039,0.0039,0.0,0.0,0.0,0.0039,0.0039,0.0236,0.0314,0.0353,0.055,0.0628,0.0628,0.0864,0.0943,0.0943,0.1218,0.1296,0.1296,0.1296,0.1296,0.1296,-1.5784,-1.5784,-1.5784,-1.5784,-1.5784,-1.5784,-1.5784,-1.5784,-1.5784,-1.5784,-1.5784,-1.5784,-1.5784,-1.5784,-1.5784,-1.5784,-1.5784,-1.5784,-1.5784,-1.5784,-1.5784,-1.5784,-1.5588,-1.5207,-1.464,-1.3318,-1.216,-1.1096,-1.0364,-0.9821,-0.9529,-0.9579,-0.9579,-0.9579,-0.9027,-0.8825,-0.8775,-0.8233,-0.7988,-0.7988,-0.7988,-0.7988,-0.7988,-0.7988,-0.7968,-0.7924,-0.7855,-0.779,-0.7746,-0.7638,-0.7577,-0.7529,-0.7456,-0.735,-0.7295,-0.7132,-0.7095,-0.7095,-0.7095,-0.7095,-0.7095,-0.7095,-0.7095,-0.7095,-0.7054,-0.6858,-0.6587,-0.626,-0.5977,-0.565,-0.5388,-0.5233,-0.5148,-0.5148,-0.5075,-0.4937,-0.4779,-0.4428,-0.3919,-0.3329,-0.235,-0.1529,-0.1021,-0.0432,-0.0039,0.0,0.0,0.0,0.0,0.0,0.0,0.0,0.0,0.0079,0.0236,0.0236,0.0157,0.0,0.0157,0.0236,0.0236,0.0432,0.055,0.055,0.0746,0.0825,0.0864,0.11,0.1218,0.1218,0.1296,0.1296,0.1296,0.1296,0.1296,0.1296,-1.5784,-1.5784,-1.5784,-1.5784,-1.5784,-1.5784,-1.5784,-1.5784,-1.5784,-1.5784,-1.5784,-1.5784,-1.5784,-1.5784,-1.5784,-1.5784,-1.5784,-1.5784,-1.5784,-1.5784,-1.5784,-1.5784,-1.5683,-1.5356,-1.4688,-1.3757,-1.264,-1.1389,-1.0556,-0.9969,-0.9579,-0.9579,-0.9579,-0.9579,-0.9179,-0.8928,-0.8775,-0.8382,-0.8137,-0.7988,-0.7988,-0.7988,-0.7988,-0.7988,-0.7988,-0.7978,-0.7897,-0.787,-0.7909,-0.7834,-0.776,-0.7685,-0.7607,-0.7536,-0.7451,-0.7295,-0.7251,-0.7234,-0.7115,-0.7095,-0.7095,-0.7095,-0.7095,-0.7095,-0.7095,-0.6922,-0.6729,-0.639,-0.6106,-0.5826,-0.5509,-0.5355,-0.5254,-0.5197,-0.5137,-0.4999,-0.4745,-0.435,-0.3765,-0.2899,-0.2077,-0.1294,-0.055,-0.0196,0.0,0.0,0.0,0.0,0.0,0.0,0.0039,0.0157,0.0157,0.0236,0.0432,0.0432,0.0393,0.0275,0.0393,0.0432,0.0432,0.0668,0.0746,0.0746,0.0982,0.11,0.11,0.1257,0.1296,0.1296,0.1296,0.1296,0.1296,0.1296,0.1296,0.1296,-1.5689,-1.5642,-1.5594,-1.5594,-1.5588,-1.554,-1.5594,-1.5642,-1.5689,-1.573,-1.5784,-1.5784,-1.5784,-1.5784,-1.5784,-1.5784,-1.5784,-1.5784,-1.5784,-1.5784,-1.5784,-1.5784,-1.5784,-1.5499,-1.479,-1.4202,-1.3178,-1.1683,-1.085,-1.0167,-0.9677,-0.9628,-0.9579,-0.9579,-0.9331,-0.9031,-0.8775,-0.8531,-0.8237,-0.7988,-0.7988,-0.7988,-0.7988,-0.7988,-0.7988,-0.7988,-0.7988,-0.7988,-0.7988,-0.7988,-0.7907,-0.7845,-0.7821,-0.7729,-0.7607,-0.7455,-0.7439,-0.7343,-0.7214,-0.7115,-0.7095,-0.7095,-0.7095,-0.7095,-0.7095,-0.6966,-0.6748,-0.6476,-0.6168,-0.5878,-0.5581,-0.5483,-0.5368,-0.5224,-0.5173,-0.4994,-0.4624,-0.4206,-0.3567,-0.251,-0.1803,-0.102,-0.0079,0.0,0.0,0.0,0.0,0.0,0.0,0.0039,0.0118,0.0314,0.0314,0.0432,0.0667,0.0668,0.0668,0.0707,0.0707,0.0707,0.0668,0.0864,0.0982,0.0982,0.1218,0.1296,0.1296,0.1296,0.1296,0.1296,0.1296,0.1296,0.1296,0.1296,0.1296,0.1296,-1.5226,-1.5029,-1.4831,-1.4831,-1.4682,-1.4586,-1.4831,-1.5029,-1.5267,-1.5493,-1.5689,-1.5784,-1.5784,-1.5784,-1.5784,-1.5784,-1.5784,-1.5784,-1.5784,-1.5784,-1.5784,-1.5784,-1.5784,-1.5547,-1.5083,-1.4298,-1.3281,-1.1932,-1.1145,-1.0462,-0.992,-0.9727,-0.9579,-0.9579,-0.9331,-0.9031,-0.8775,-0.8531,-0.8237,-0.7988,-0.7988,-0.7988,-0.7988,-0.7988,-0.7988,-0.7988,-0.7988,-0.7988,-0.7988,-0.7988,-0.7975,-0.7934,-0.7851,-0.7797,-0.7753,-0.7611,-0.7475,-0.7412,-0.7346,-0.7241,-0.7095,-0.7095,-0.7095,-0.7095,-0.7095,-0.7098,-0.6918,-0.6476,-0.6372,-0.6186,-0.575,-0.5564,-0.5435,-0.5243,-0.5036,-0.4703,-0.4085,-0.3572,-0.2937,-0.2078,-0.1098,-0.0353,-0.0039,0.0,0.0,0.0,0.0,0.0,0.0,0.0157,0.0275,0.0314,0.0471,0.0668,0.0864,0.0864,0.0982,0.1218,0.1218,0.11,0.0864,0.1139,0.1257,0.1257,0.1296,0.1296,0.1296,0.1296,0.1296,0.1296,0.1296,0.1296,0.1296,0.1296,0.1296,0.1296,-1.4442,-1.4196,-1.4052,-1.4052,-1.395,-1.3956,-1.4196,-1.449,-1.4783,-1.522,-1.5499,-1.5683,-1.5778,-1.5784,-1.5784,-1.5784,-1.5784,-1.5784,-1.5784,-1.5784,-1.5784,-1.5784,-1.5784,-1.5642,-1.5315,-1.4688,-1.3763,-1.2597,-1.1385,-1.0511,-0.9969,-0.9727,-0.9579,-0.9579,-0.948,-0.9179,-0.8775,-0.8676,-0.8382,-0.7988,-0.7988,-0.7988,-0.7988,-0.7988,-0.7988,-0.7988,-0.7988,-0.7988,-0.7988,-0.7988,-0.7988,-0.7978,-0.7911,-0.7891,-0.7909,-0.776,-0.7614,-0.7482,-0.7439,-0.7258,-0.7095,-0.7095,-0.7095,-0.7095,-0.7095,-0.7095,-0.6962,-0.652,-0.6384,-0.6254,-0.5777,-0.5557,-0.5408,-0.5211,-0.4907,-0.445,-0.3816,-0.3206,-0.2427,-0.1297,-0.0549,-0.0079,0.0,0.0,0.0,0.0,0.0,0.0039,0.0157,0.0236,0.0393,0.0628,0.0707,0.0864,0.1139,0.1139,0.1178,0.1296,0.1296,0.1257,0.1139,0.1257,0.1296,0.1296,0.1296,0.1296,0.1296,0.1296,0.1296,0.1296,0.1296,0.1296,0.1296,0.1296,0.1296,0.1296]}]]